Darstellungsparameter: Aktuell verwendete Einstellungen:
Skalierung der Graphiken ... ?
xyx+y,   Skalierungsfaktor:      Skalierung: Modus: x, Faktor: 1
Darstellungszeitraum ... ?
Vom - - bis: - -   Zeitraum: 21.02.2020 - 20.08.2020
Min/Max/Avg-Anzeige ... ?
Zeige MMA aktuell
Zeige MMA Monat
Zeige MMA alles
Zeige --A aktuell
Zeige --A Monat
Zeige --A alles
Keine MMA-Anzeige
MMA:
Minimum Maximum Average (ber die Originaldaten)
MMA-Basis: 21.02.2020 - 20.08.2020
Quicknavigation für Darstellung... ?
Tage:      1T, 2T, 3T, 5T -1T -2T -3T -5T +1T +2T +3T +5T
Wochen: 1W, 2W, 3W -1W -2W -3W +1W +2W +3W
Monate: 1M, 3M, 6M -1M -3M -6M +1M +3M +6M
Jahre:    1J, 3J, 5J, 10J -1J -3J -5J -10J +1J +3J +5J +10J
Nutze für die Darstellung ... ?
Originaldaten oder Mittelwerte auf ...
Stundenbasis Tagesbasis Wochenbasis
Monatsbasis Jahresbasis      Datenbasis: Original-Daten
Darstellen als:
Statistik (Auto) Statistik J:M      Darstellung:
Zur Graphik,    zurück zur Übersicht aller Sensoren.
 
Tabellarische Datenbersicht: ?
 
Sensor: Nr:Datum:Temp:Feuchte:Taupunkt:
Aussen-T/F 1 21-02-2020 00:00:00 6.2 C 85 % 3.87 C
2 21-02-2020 00:05:00 5.9 C 86 % 3.74 C
3 21-02-2020 00:10:00 5.7 C 88 % 3.87 C
4 21-02-2020 00:15:00 5.6 C 89 % 3.93 C
5 21-02-2020 00:20:00 5.4 C 89 % 3.74 C
6 21-02-2020 00:25:00 5.4 C 89 % 3.74 C
7 21-02-2020 00:30:00 5.3 C 89 % 3.64 C
8 21-02-2020 00:35:00 5.2 C 88 % 3.38 C
9 21-02-2020 00:40:00 5.2 C 87 % 3.22 C
10 21-02-2020 00:45:00 5.1 C 87 % 3.12 C
11 21-02-2020 00:50:00 5.1 C 86 % 2.96 C
12 21-02-2020 00:55:00 5.1 C 85 % 2.79 C
13 21-02-2020 01:00:00 5.1 C 85 % 2.79 C
14 21-02-2020 01:05:00 5.1 C 85 % 2.79 C
15 21-02-2020 01:10:00 5.1 C 85 % 2.79 C
16 21-02-2020 01:15:00 5 C 84 % 2.53 C
17 21-02-2020 01:20:00 4.9 C 83 % 2.26 C
18 21-02-2020 01:25:00 4.9 C 82 % 2.09 C
19 21-02-2020 01:30:00 4.9 C 81 % 1.92 C
20 21-02-2020 01:35:00 4.8 C 81 % 1.82 C
21 21-02-2020 01:40:00 4.8 C 82 % 1.99 C
22 21-02-2020 01:45:00 4.6 C 82 % 1.8 C
23 21-02-2020 01:50:00 4.5 C 82 % 1.7 C
24 21-02-2020 01:55:00 4.4 C 83 % 1.77 C
25 21-02-2020 02:00:00 4.3 C 83 % 1.67 C
Sensor: Nr:Datum:Temp:Feuchte:Taupunkt:
Aussen-T/F 26 21-02-2020 02:05:00 4.3 C 83 % 1.67 C
27 21-02-2020 02:10:00 4.2 C 83 % 1.58 C
28 21-02-2020 02:15:00 4.2 C 83 % 1.58 C
29 21-02-2020 02:20:00 4.2 C 83 % 1.58 C
30 21-02-2020 02:25:00 4.2 C 84 % 1.74 C
31 21-02-2020 02:30:00 4.1 C 85 % 1.81 C
32 21-02-2020 02:35:00 4.1 C 85 % 1.81 C
33 21-02-2020 02:40:00 4.2 C 85 % 1.91 C
34 21-02-2020 02:45:00 4.3 C 85 % 2.01 C
35 21-02-2020 02:50:00 4.3 C 85 % 2.01 C
36 21-02-2020 02:55:00 4.3 C 85 % 2.01 C
37 21-02-2020 03:00:00 4.3 C 85 % 2.01 C
38 21-02-2020 03:05:00 4.2 C 84 % 1.74 C
39 21-02-2020 03:10:00 4.3 C 84 % 1.84 C
40 21-02-2020 03:15:00 4.2 C 84 % 1.74 C
41 21-02-2020 03:20:00 4.1 C 84 % 1.65 C
42 21-02-2020 03:25:00 3.9 C 85 % 1.61 C
43 21-02-2020 03:30:00 3.8 C 85 % 1.52 C
44 21-02-2020 03:35:00 3.7 C 85 % 1.42 C
45 21-02-2020 03:40:00 3.6 C 86 % 1.48 C
46 21-02-2020 03:45:00 3.4 C 87 % 1.45 C
47 21-02-2020 03:50:00 3.3 C 87 % 1.35 C
48 21-02-2020 03:55:00 3.2 C 87 % 1.25 C
49 21-02-2020 04:00:00 3.1 C 88 % 1.31 C
50 21-02-2020 04:05:00 2.9 C 88 % 1.11 C
Sensor: Nr:Datum:Temp:Feuchte:Taupunkt:
Aussen-T/F 51 21-02-2020 04:10:00 2.8 C 89 % 1.17 C
52 21-02-2020 04:15:00 2.8 C 89 % 1.17 C
53 21-02-2020 04:20:00 2.8 C 89 % 1.17 C
54 21-02-2020 04:25:00 2.8 C 90 % 1.33 C
55 21-02-2020 04:30:00 2.8 C 90 % 1.33 C
56 21-02-2020 04:35:00 2.8 C 90 % 1.33 C
57 21-02-2020 04:40:00 2.8 C 90 % 1.33 C
58 21-02-2020 04:45:00 2.9 C 90 % 1.43 C
59 21-02-2020 04:50:00 2.9 C 89 % 1.27 C
60 21-02-2020 04:55:00 2.9 C 89 % 1.27 C
61 21-02-2020 05:00:00 2.9 C 90 % 1.43 C
62 21-02-2020 05:05:00 2.9 C 89 % 1.27 C
63 21-02-2020 05:10:00 2.8 C 89 % 1.17 C
64 21-02-2020 05:15:00 2.8 C 89 % 1.17 C
65 21-02-2020 05:20:00 2.7 C 90 % 1.23 C
66 21-02-2020 05:25:00 2.7 C 90 % 1.23 C
67 21-02-2020 05:30:00 2.7 C 90 % 1.23 C
68 21-02-2020 05:35:00 2.8 C 90 % 1.33 C
69 21-02-2020 05:40:00 2.9 C 90 % 1.43 C
70 21-02-2020 05:45:00 2.9 C 89 % 1.27 C
71 21-02-2020 05:50:00 2.9 C 89 % 1.27 C
72 21-02-2020 05:55:00 2.8 C 89 % 1.17 C
73 21-02-2020 06:00:00 2.8 C 90 % 1.33 C
74 21-02-2020 06:05:00 2.9 C 89 % 1.27 C
75 21-02-2020 06:10:00 2.9 C 89 % 1.27 C
Sensor: Nr:Datum:Temp:Feuchte:Taupunkt:
Aussen-T/F 76 21-02-2020 06:15:00 2.8 C 89 % 1.17 C
77 21-02-2020 06:20:00 2.7 C 89 % 1.07 C
78 21-02-2020 06:25:00 2.7 C 89 % 1.07 C
79 21-02-2020 06:30:00 2.6 C 89 % 0.97 C
80 21-02-2020 06:35:00 2.5 C 89 % 0.88 C
81 21-02-2020 06:40:00 2.4 C 90 % 0.93 C
82 21-02-2020 06:45:00 2.3 C 90 % 0.83 C
83 21-02-2020 06:50:00 2.3 C 90 % 0.83 C
84 21-02-2020 06:55:00 2.3 C 90 % 0.83 C
85 21-02-2020 07:00:00 2.4 C 90 % 0.93 C
86 21-02-2020 07:05:00 2.5 C 90 % 1.03 C
87 21-02-2020 07:10:00 2.6 C 89 % 0.97 C
88 21-02-2020 07:15:00 2.7 C 89 % 1.07 C
89 21-02-2020 07:20:00 2.7 C 88 % 0.92 C
90 21-02-2020 07:25:00 2.9 C 87 % 0.96 C
91 21-02-2020 07:30:00 3.1 C 86 % 0.99 C
92 21-02-2020 07:35:00 3.2 C 86 % 1.09 C
93 21-02-2020 07:40:00 3.1 C 86 % 0.99 C
94 21-02-2020 07:45:00 3.2 C 85 % 0.93 C
95 21-02-2020 07:50:00 3.2 C 86 % 1.09 C
96 21-02-2020 07:55:00 3.1 C 86 % 0.99 C
97 21-02-2020 08:00:00 3 C 86 % 0.89 C
98 21-02-2020 08:05:00 2.9 C 86 % 0.8 C
99 21-02-2020 08:10:00 2.8 C 86 % 0.7 C
100 21-02-2020 08:15:00 2.7 C 87 % 0.76 C
Sensor: Nr:Datum:Temp:Feuchte:Taupunkt:
Aussen-T/F 101 21-02-2020 08:20:00 2.6 C 87 % 0.66 C
102 21-02-2020 08:25:00 2.5 C 87 % 0.56 C
103 21-02-2020 08:30:00 2.4 C 88 % 0.62 C
104 21-02-2020 08:35:00 2.4 C 89 % 0.78 C
105 21-02-2020 08:40:00 2.3 C 89 % 0.68 C
106 21-02-2020 08:45:00 2.4 C 89 % 0.78 C
107 21-02-2020 08:50:00 2.5 C 90 % 1.03 C
108 21-02-2020 08:55:00 2.7 C 89 % 1.07 C
109 21-02-2020 09:00:00 2.8 C 89 % 1.17 C
110 21-02-2020 09:05:00 2.9 C 89 % 1.27 C
111 21-02-2020 09:10:00 3.1 C 88 % 1.31 C
112 21-02-2020 09:15:00 3.1 C 88 % 1.31 C
113 21-02-2020 09:20:00 3.2 C 88 % 1.41 C
114 21-02-2020 09:25:00 3.3 C 88 % 1.51 C
115 21-02-2020 09:30:00 3.4 C 87 % 1.45 C
116 21-02-2020 09:35:00 3.5 C 87 % 1.55 C
117 21-02-2020 09:40:00 3.6 C 87 % 1.64 C
118 21-02-2020 09:45:00 3.6 C 87 % 1.64 C
119 21-02-2020 09:50:00 3.7 C 87 % 1.74 C
120 21-02-2020 09:55:00 3.8 C 86 % 1.68 C
121 21-02-2020 10:00:00 3.9 C 86 % 1.78 C
122 21-02-2020 10:05:00 3.9 C 85 % 1.61 C
123 21-02-2020 10:10:00 4 C 85 % 1.71 C
124 21-02-2020 10:15:00 4.1 C 85 % 1.81 C
125 21-02-2020 10:20:00 4.2 C 85 % 1.91 C
Sensor: Nr:Datum:Temp:Feuchte:Taupunkt:
Aussen-T/F 126 21-02-2020 10:25:00 4.2 C 85 % 1.91 C
127 21-02-2020 10:30:00 4.3 C 86 % 2.17 C
128 21-02-2020 10:35:00 4.4 C 85 % 2.11 C
129 21-02-2020 10:40:00 4.6 C 84 % 2.14 C
130 21-02-2020 10:45:00 4.7 C 84 % 2.23 C
131 21-02-2020 10:50:00 4.9 C 84 % 2.43 C
132 21-02-2020 10:55:00 5.1 C 84 % 2.63 C
133 21-02-2020 11:00:00 5.2 C 83 % 2.56 C
134 21-02-2020 11:05:00 5.3 C 82 % 2.48 C
135 21-02-2020 11:10:00 5.4 C 82 % 2.58 C
136 21-02-2020 11:15:00 5.6 C 82 % 2.78 C
137 21-02-2020 11:20:00 5.7 C 82 % 2.87 C
138 21-02-2020 11:25:00 5.8 C 82 % 2.97 C
139 21-02-2020 11:30:00 5.9 C 81 % 2.9 C
140 21-02-2020 11:35:00 5.9 C 81 % 2.9 C
141 21-02-2020 11:40:00 6.1 C 81 % 3.09 C
142 21-02-2020 11:45:00 6.2 C 80 % 3.01 C
143 21-02-2020 11:50:00 6.3 C 80 % 3.11 C
144 21-02-2020 11:55:00 6.5 C 79 % 3.13 C
145 21-02-2020 12:00:00 6.7 C 80 % 3.5 C
146 21-02-2020 12:05:00 6.8 C 79 % 3.42 C
147 21-02-2020 12:10:00 6.9 C 78 % 3.34 C
148 21-02-2020 12:15:00 7.1 C 78 % 3.53 C
149 21-02-2020 12:20:00 7.2 C 78 % 3.63 C
150 21-02-2020 12:25:00 7.2 C 78 % 3.63 C
Sensor: Nr:Datum:Temp:Feuchte:Taupunkt:
Aussen-T/F 151 21-02-2020 12:30:00 7.3 C 77 % 3.54 C
152 21-02-2020 12:35:00 7.3 C 77 % 3.54 C
153 21-02-2020 12:40:00 7.3 C 77 % 3.54 C
154 21-02-2020 12:45:00 7.3 C 77 % 3.54 C
155 21-02-2020 12:50:00 7.4 C 78 % 3.82 C
156 21-02-2020 12:55:00 7.6 C 78 % 4.02 C
157 21-02-2020 13:00:00 7.7 C 76 % 3.75 C
158 21-02-2020 13:05:00 7.8 C 76 % 3.84 C
159 21-02-2020 13:10:00 7.8 C 76 % 3.84 C
160 21-02-2020 13:15:00 7.8 C 76 % 3.84 C
161 21-02-2020 13:20:00 7.7 C 76 % 3.75 C
162 21-02-2020 13:25:00 7.7 C 76 % 3.75 C
163 21-02-2020 13:30:00 7.8 C 76 % 3.84 C
164 21-02-2020 13:35:00 7.8 C 76 % 3.84 C
165 21-02-2020 13:40:00 7.9 C 76 % 3.94 C
166 21-02-2020 13:45:00 7.8 C 76 % 3.84 C
167 21-02-2020 13:50:00 7.7 C 76 % 3.75 C
168 21-02-2020 13:55:00 7.7 C 75 % 3.56 C
169 21-02-2020 14:00:00 7.7 C 77 % 3.93 C
170 21-02-2020 14:05:00 7.7 C 76 % 3.75 C
171 21-02-2020 14:10:00 7.7 C 77 % 3.93 C
172 21-02-2020 14:15:00 7.8 C 76 % 3.84 C
173 21-02-2020 14:20:00 7.8 C 76 % 3.84 C
174 21-02-2020 14:25:00 7.9 C 76 % 3.94 C
175 21-02-2020 14:30:00 8.1 C 75 % 3.94 C
Sensor: Nr:Datum:Temp:Feuchte:Taupunkt:
Aussen-T/F 176 21-02-2020 14:35:00 8.2 C 74 % 3.85 C
177 21-02-2020 14:40:00 8.2 C 74 % 3.85 C
178 21-02-2020 14:45:00 8.2 C 75 % 4.04 C
179 21-02-2020 14:50:00 8.3 C 74 % 3.95 C
180 21-02-2020 14:55:00 8.3 C 74 % 3.95 C
181 21-02-2020 15:00:00 8.4 C 73 % 3.85 C
182 21-02-2020 15:05:00 8.4 C 73 % 3.85 C
183 21-02-2020 15:10:00 8.4 C 72 % 3.65 C
184 21-02-2020 15:15:00 8.4 C 73 % 3.85 C
185 21-02-2020 15:20:00 8.4 C 73 % 3.85 C
186 21-02-2020 15:25:00 8.4 C 73 % 3.85 C
187 21-02-2020 15:30:00 8.4 C 74 % 4.04 C
188 21-02-2020 15:35:00 8.4 C 73 % 3.85 C
189 21-02-2020 15:40:00 8.3 C 72 % 3.56 C
190 21-02-2020 15:45:00 8.3 C 73 % 3.75 C
191 21-02-2020 15:50:00 8.3 C 73 % 3.75 C
192 21-02-2020 15:55:00 8.3 C 73 % 3.75 C
193 21-02-2020 16:00:00 8.3 C 72 % 3.56 C
194 21-02-2020 16:05:00 8.3 C 72 % 3.56 C
195 21-02-2020 16:10:00 8.3 C 73 % 3.75 C
196 21-02-2020 16:15:00 8.2 C 73 % 3.66 C
197 21-02-2020 16:20:00 8.2 C 73 % 3.66 C
198 21-02-2020 16:25:00 8.2 C 73 % 3.66 C
199 21-02-2020 16:30:00 8.2 C 72 % 3.46 C
200 21-02-2020 16:35:00 8.2 C 72 % 3.46 C
Sensor: Nr:Datum:Temp:Feuchte:Taupunkt:
Aussen-T/F 201 21-02-2020 16:40:00 8.2 C 72 % 3.46 C
202 21-02-2020 16:45:00 8.2 C 72 % 3.46 C
203 21-02-2020 16:50:00 8.2 C 71 % 3.26 C
204 21-02-2020 16:55:00 8.2 C 71 % 3.26 C
205 21-02-2020 17:00:00 8.2 C 71 % 3.26 C
206 21-02-2020 17:05:00 8.1 C 72 % 3.37 C
207 21-02-2020 17:10:00 8.1 C 71 % 3.17 C
208 21-02-2020 17:15:00 8 C 71 % 3.07 C
209 21-02-2020 17:20:00 7.9 C 72 % 3.17 C
210 21-02-2020 17:25:00 7.9 C 73 % 3.37 C
211 21-02-2020 17:30:00 7.8 C 74 % 3.46 C
212 21-02-2020 17:35:00 7.7 C 72 % 2.98 C
213 21-02-2020 17:40:00 7.5 C 73 % 2.98 C
214 21-02-2020 17:45:00 7.3 C 74 % 2.98 C
215 21-02-2020 17:50:00 7.2 C 74 % 2.89 C
216 21-02-2020 17:55:00 7.1 C 73 % 2.6 C
217 21-02-2020 18:00:00 7 C 74 % 2.69 C
218 21-02-2020 18:05:00 6.9 C 76 % 2.97 C
219 21-02-2020 18:10:00 6.8 C 76 % 2.87 C
220 21-02-2020 18:15:00 6.7 C 77 % 2.96 C
221 21-02-2020 18:20:00 6.6 C 78 % 3.05 C
222 21-02-2020 18:25:00 6.3 C 78 % 2.75 C
223 21-02-2020 18:30:00 6.1 C 79 % 2.74 C
224 21-02-2020 18:35:00 5.8 C 80 % 2.62 C
225 21-02-2020 18:40:00 5.7 C 80 % 2.53 C
Sensor: Nr:Datum:Temp:Feuchte:Taupunkt:
Aussen-T/F 226 21-02-2020 18:45:00 5.5 C 81 % 2.51 C
227 21-02-2020 18:50:00 5.3 C 81 % 2.31 C
228 21-02-2020 18:55:00 5.3 C 81 % 2.31 C
229 21-02-2020 19:00:00 5.2 C 82 % 2.39 C
230 21-02-2020 19:05:00 5.2 C 82 % 2.39 C
231 21-02-2020 19:10:00 5.2 C 82 % 2.39 C
232 21-02-2020 19:15:00 5.1 C 82 % 2.29 C
233 21-02-2020 19:20:00 5.1 C 83 % 2.46 C
234 21-02-2020 19:25:00 5 C 83 % 2.36 C
235 21-02-2020 19:30:00 4.9 C 83 % 2.26 C
236 21-02-2020 19:35:00 4.8 C 83 % 2.16 C
237 21-02-2020 19:40:00 4.8 C 83 % 2.16 C
238 21-02-2020 19:45:00 4.7 C 83 % 2.07 C
239 21-02-2020 19:50:00 4.8 C 83 % 2.16 C
240 21-02-2020 19:55:00 5 C 83 % 2.36 C
241 21-02-2020 20:00:00 5.1 C 82 % 2.29 C
242 21-02-2020 20:05:00 5 C 82 % 2.19 C
243 21-02-2020 20:10:00 5 C 82 % 2.19 C
244 21-02-2020 20:15:00 5.1 C 82 % 2.29 C
245 21-02-2020 20:20:00 5.1 C 81 % 2.12 C
246 21-02-2020 20:25:00 5.2 C 81 % 2.21 C
247 21-02-2020 20:30:00 5.2 C 81 % 2.21 C
248 21-02-2020 20:35:00 5.4 C 81 % 2.41 C
249 21-02-2020 20:40:00 5.6 C 80 % 2.43 C
250 21-02-2020 20:45:00 5.7 C 80 % 2.53 C
Sensor: Nr:Datum:Temp:Feuchte:Taupunkt:
Aussen-T/F 251 21-02-2020 20:50:00 5.9 C 79 % 2.54 C
252 21-02-2020 20:55:00 5.9 C 79 % 2.54 C
253 21-02-2020 21:00:00 5.9 C 79 % 2.54 C
254 21-02-2020 21:05:00 6 C 79 % 2.64 C
255 21-02-2020 21:10:00 5.9 C 78 % 2.37 C
256 21-02-2020 21:15:00 5.9 C 79 % 2.54 C
257 21-02-2020 21:20:00 5.9 C 79 % 2.54 C
258 21-02-2020 21:25:00 5.9 C 79 % 2.54 C
259 21-02-2020 21:30:00 5.9 C 79 % 2.54 C
260 21-02-2020 21:35:00 5.8 C 80 % 2.62 C
261 21-02-2020 21:40:00 5.6 C 81 % 2.6 C
262 21-02-2020 21:45:00 5.4 C 81 % 2.41 C
263 21-02-2020 21:50:00 5.3 C 82 % 2.48 C
264 21-02-2020 21:55:00 5.3 C 82 % 2.48 C
265 21-02-2020 22:00:00 5.3 C 82 % 2.48 C
266 21-02-2020 22:05:00 5.2 C 82 % 2.39 C
267 21-02-2020 22:10:00 5.1 C 83 % 2.46 C
268 21-02-2020 22:15:00 4.9 C 83 % 2.26 C
269 21-02-2020 22:20:00 4.7 C 84 % 2.23 C
270 21-02-2020 22:25:00 4.5 C 85 % 2.2 C
271 21-02-2020 22:30:00 4.4 C 85 % 2.11 C
272 21-02-2020 22:35:00 4.4 C 86 % 2.27 C
273 21-02-2020 22:40:00 4.4 C 86 % 2.27 C
274 21-02-2020 22:45:00 4.4 C 86 % 2.27 C
275 21-02-2020 22:50:00 4.5 C 86 % 2.37 C
Sensor: Nr:Datum:Temp:Feuchte:Taupunkt:
Aussen-T/F 276 21-02-2020 22:55:00 4.4 C 86 % 2.27 C
277 21-02-2020 23:00:00 4.4 C 87 % 2.43 C
278 21-02-2020 23:05:00 4.3 C 86 % 2.17 C
279 21-02-2020 23:10:00 4.3 C 87 % 2.33 C
280 21-02-2020 23:15:00 4.3 C 87 % 2.33 C
281 21-02-2020 23:20:00 4.3 C 87 % 2.33 C
282 21-02-2020 23:25:00 4.3 C 87 % 2.33 C
283 21-02-2020 23:30:00 4.3 C 87 % 2.33 C
284 21-02-2020 23:35:00 4.3 C 88 % 2.49 C
285 21-02-2020 23:40:00 4.5 C 88 % 2.69 C
286 21-02-2020 23:45:00 4.7 C 87 % 2.73 C
287 21-02-2020 23:50:00 4.7 C 87 % 2.73 C
288 21-02-2020 23:55:00 4.8 C 86 % 2.66 C
289 22-02-2020 00:00:00 4.8 C 86 % 2.66 C
290 22-02-2020 00:05:00 4.8 C 86 % 2.66 C
291 22-02-2020 00:10:00 4.7 C 86 % 2.56 C
292 22-02-2020 00:15:00 4.6 C 86 % 2.47 C
293 22-02-2020 00:20:00 4.5 C 87 % 2.53 C
294 22-02-2020 00:25:00 4.4 C 87 % 2.43 C
295 22-02-2020 00:30:00 4.4 C 87 % 2.43 C
296 22-02-2020 00:35:00 4.4 C 87 % 2.43 C
297 22-02-2020 00:40:00 4.4 C 87 % 2.43 C
298 22-02-2020 00:45:00 4.4 C 87 % 2.43 C
299 22-02-2020 00:50:00 4.5 C 87 % 2.53 C
300 22-02-2020 00:55:00 4.6 C 87 % 2.63 C
Sensor: Nr:Datum:Temp:Feuchte:Taupunkt:
Aussen-T/F 301 22-02-2020 01:00:00 4.6 C 87 % 2.63 C
302 22-02-2020 01:05:00 4.5 C 87 % 2.53 C
303 22-02-2020 01:10:00 4.6 C 87 % 2.63 C
304 22-02-2020 01:15:00 4.7 C 86 % 2.56 C
305 22-02-2020 01:20:00 4.7 C 86 % 2.56 C
306 22-02-2020 01:25:00 4.7 C 86 % 2.56 C
307 22-02-2020 01:30:00 4.7 C 85 % 2.4 C
308 22-02-2020 01:35:00 4.7 C 86 % 2.56 C
309 22-02-2020 01:40:00 4.6 C 86 % 2.47 C
310 22-02-2020 01:45:00 4.4 C 85 % 2.11 C
311 22-02-2020 01:50:00 4.3 C 86 % 2.17 C
312 22-02-2020 01:55:00 4.2 C 87 % 2.23 C
313 22-02-2020 02:00:00 4.3 C 87 % 2.33 C
314 22-02-2020 02:05:00 4.4 C 87 % 2.43 C
315 22-02-2020 02:10:00 4.6 C 87 % 2.63 C
316 22-02-2020 02:15:00 4.8 C 86 % 2.66 C
317 22-02-2020 02:20:00 5.1 C 85 % 2.79 C
318 22-02-2020 02:25:00 5.1 C 85 % 2.79 C
319 22-02-2020 02:30:00 5.1 C 84 % 2.63 C
320 22-02-2020 02:35:00 5.2 C 84 % 2.72 C
321 22-02-2020 02:40:00 5.3 C 84 % 2.82 C
322 22-02-2020 02:45:00 5.4 C 84 % 2.92 C
323 22-02-2020 02:50:00 5.5 C 83 % 2.85 C
324 22-02-2020 02:55:00 5.5 C 83 % 2.85 C
325 22-02-2020 03:00:00 5.5 C 83 % 2.85 C
Sensor: Nr:Datum:Temp:Feuchte:Taupunkt:
Aussen-T/F 326 22-02-2020 03:05:00 5.4 C 83 % 2.75 C
327 22-02-2020 03:10:00 5.4 C 83 % 2.75 C
328 22-02-2020 03:15:00 5.3 C 83 % 2.65 C
329 22-02-2020 03:20:00 5.4 C 83 % 2.75 C
330 22-02-2020 03:25:00 5.4 C 83 % 2.75 C
331 22-02-2020 03:30:00 5.4 C 83 % 2.75 C
332 22-02-2020 03:35:00 5.4 C 83 % 2.75 C
333 22-02-2020 03:40:00 5.5 C 83 % 2.85 C
334 22-02-2020 03:45:00 5.5 C 82 % 2.68 C
335 22-02-2020 03:50:00 5.4 C 83 % 2.75 C
336 22-02-2020 03:55:00 5.4 C 83 % 2.75 C
337 22-02-2020 04:00:00 5.3 C 83 % 2.65 C
338 22-02-2020 04:05:00 5.3 C 83 % 2.65 C
339 22-02-2020 04:10:00 5.3 C 83 % 2.65 C
340 22-02-2020 04:15:00 5.3 C 83 % 2.65 C
341 22-02-2020 04:20:00 5.3 C 83 % 2.65 C
342 22-02-2020 04:25:00 5.3 C 83 % 2.65 C
343 22-02-2020 04:30:00 5.3 C 83 % 2.65 C
344 22-02-2020 04:35:00 5.3 C 83 % 2.65 C
345 22-02-2020 04:40:00 5.2 C 83 % 2.56 C
346 22-02-2020 04:45:00 5.2 C 84 % 2.72 C
347 22-02-2020 04:50:00 5.3 C 84 % 2.82 C
348 22-02-2020 04:55:00 5.3 C 83 % 2.65 C
349 22-02-2020 05:00:00 5.4 C 83 % 2.75 C
350 22-02-2020 05:05:00 5.6 C 83 % 2.95 C
Sensor: Nr:Datum:Temp:Feuchte:Taupunkt:
Aussen-T/F 351 22-02-2020 05:10:00 5.6 C 83 % 2.95 C
352 22-02-2020 05:15:00 5.6 C 83 % 2.95 C
353 22-02-2020 05:20:00 5.7 C 83 % 3.04 C
354 22-02-2020 05:25:00 5.8 C 82 % 2.97 C
355 22-02-2020 05:30:00 5.7 C 82 % 2.87 C
356 22-02-2020 05:35:00 5.8 C 82 % 2.97 C
357 22-02-2020 05:40:00 5.8 C 82 % 2.97 C
358 22-02-2020 05:45:00 5.8 C 82 % 2.97 C
359 22-02-2020 05:50:00 5.9 C 82 % 3.07 C
360 22-02-2020 05:55:00 5.8 C 82 % 2.97 C
361 22-02-2020 06:00:00 5.8 C 82 % 2.97 C
362 22-02-2020 06:05:00 5.8 C 82 % 2.97 C
363 22-02-2020 06:10:00 5.8 C 81 % 2.8 C
364 22-02-2020 06:15:00 5.8 C 82 % 2.97 C
365 22-02-2020 06:20:00 5.8 C 82 % 2.97 C
366 22-02-2020 06:25:00 5.8 C 82 % 2.97 C
367 22-02-2020 06:30:00 5.8 C 82 % 2.97 C
368 22-02-2020 06:35:00 5.8 C 82 % 2.97 C
369 22-02-2020 06:40:00 5.9 C 82 % 3.07 C
370 22-02-2020 06:45:00 5.9 C 82 % 3.07 C
371 22-02-2020 06:50:00 5.9 C 82 % 3.07 C
372 22-02-2020 06:55:00 5.8 C 82 % 2.97 C
373 22-02-2020 07:00:00 5.8 C 82 % 2.97 C
374 22-02-2020 07:05:00 5.8 C 82 % 2.97 C
375 22-02-2020 07:10:00 5.9 C 82 % 3.07 C
Sensor: Nr:Datum:Temp:Feuchte:Taupunkt:
Aussen-T/F 376 22-02-2020 07:15:00 5.8 C 81 % 2.8 C
377 22-02-2020 07:20:00 5.8 C 82 % 2.97 C
378 22-02-2020 07:25:00 5.7 C 82 % 2.87 C
379 22-02-2020 07:30:00 5.7 C 82 % 2.87 C
380 22-02-2020 07:35:00 5.7 C 82 % 2.87 C
381 22-02-2020 07:40:00 5.7 C 82 % 2.87 C
382 22-02-2020 07:45:00 5.8 C 82 % 2.97 C
383 22-02-2020 07:50:00 5.9 C 82 % 3.07 C
384 22-02-2020 07:55:00 5.8 C 82 % 2.97 C
385 22-02-2020 08:00:00 5.8 C 82 % 2.97 C
386 22-02-2020 08:05:00 5.9 C 82 % 3.07 C
387 22-02-2020 08:10:00 5.9 C 82 % 3.07 C
388 22-02-2020 08:15:00 5.9 C 81 % 2.9 C
389 22-02-2020 08:20:00 6.1 C 81 % 3.09 C
390 22-02-2020 08:25:00 6.1 C 81 % 3.09 C
391 22-02-2020 08:30:00 6.1 C 81 % 3.09 C
392 22-02-2020 08:35:00 6.1 C 81 % 3.09 C
393 22-02-2020 08:40:00 6.1 C 81 % 3.09 C
394 22-02-2020 08:45:00 6.1 C 81 % 3.09 C
395 22-02-2020 08:50:00 6.2 C 81 % 3.19 C
396 22-02-2020 08:55:00 6.2 C 81 % 3.19 C
397 22-02-2020 09:00:00 6.3 C 81 % 3.29 C
398 22-02-2020 09:05:00 6.4 C 80 % 3.21 C
399 22-02-2020 09:10:00 6.5 C 80 % 3.31 C
400 22-02-2020 09:15:00 6.6 C 80 % 3.4 C
Sensor: Nr:Datum:Temp:Feuchte:Taupunkt:
Aussen-T/F 401 22-02-2020 09:20:00 6.7 C 80 % 3.5 C
402 22-02-2020 09:25:00 6.7 C 79 % 3.32 C
403 22-02-2020 09:30:00 6.8 C 79 % 3.42 C
404 22-02-2020 09:35:00 6.8 C 78 % 3.24 C
405 22-02-2020 09:40:00 6.8 C 78 % 3.24 C
406 22-02-2020 09:45:00 6.9 C 78 % 3.34 C
407 22-02-2020 09:50:00 6.9 C 78 % 3.34 C
408 22-02-2020 09:55:00 6.9 C 77 % 3.16 C
409 22-02-2020 10:00:00 7.1 C 77 % 3.35 C
410 22-02-2020 10:05:00 7.2 C 77 % 3.45 C
411 22-02-2020 10:10:00 7.3 C 76 % 3.36 C
412 22-02-2020 10:15:00 7.3 C 76 % 3.36 C
413 22-02-2020 10:20:00 7.4 C 75 % 3.27 C
414 22-02-2020 10:25:00 7.4 C 75 % 3.27 C
415 22-02-2020 10:30:00 7.5 C 75 % 3.36 C
416 22-02-2020 10:35:00 7.6 C 75 % 3.46 C
417 22-02-2020 10:40:00 7.6 C 75 % 3.46 C
418 22-02-2020 10:45:00 7.6 C 75 % 3.46 C
419 22-02-2020 10:50:00 7.6 C 75 % 3.46 C
420 22-02-2020 10:55:00 7.6 C 75 % 3.46 C
421 22-02-2020 11:00:00 7.7 C 75 % 3.56 C
422 22-02-2020 11:05:00 7.7 C 75 % 3.56 C
423 22-02-2020 11:10:00 7.7 C 76 % 3.75 C
424 22-02-2020 11:15:00 7.8 C 75 % 3.65 C
425 22-02-2020 11:20:00 7.8 C 75 % 3.65 C
Sensor: Nr:Datum:Temp:Feuchte:Taupunkt:
Aussen-T/F 426 22-02-2020 11:25:00 7.8 C 74 % 3.46 C
427 22-02-2020 11:30:00 7.9 C 74 % 3.56 C
428 22-02-2020 11:35:00 7.9 C 73 % 3.37 C
429 22-02-2020 11:40:00 8 C 73 % 3.46 C
430 22-02-2020 11:45:00 8.1 C 73 % 3.56 C
431 22-02-2020 11:50:00 8.2 C 72 % 3.46 C
432 22-02-2020 11:55:00 8.2 C 71 % 3.26 C
433 22-02-2020 12:00:00 8.3 C 70 % 3.16 C
434 22-02-2020 12:05:00 8.4 C 70 % 3.26 C
435 22-02-2020 12:10:00 8.6 C 71 % 3.65 C
436 22-02-2020 12:15:00 8.7 C 70 % 3.54 C
437 22-02-2020 12:20:00 8.7 C 70 % 3.54 C
438 22-02-2020 12:25:00 8.8 C 69 % 3.44 C
439 22-02-2020 12:30:00 8.8 C 70 % 3.64 C
440 22-02-2020 12:35:00 8.9 C 68 % 3.32 C
441 22-02-2020 12:40:00 9 C 69 % 3.63 C
442 22-02-2020 12:45:00 9.1 C 68 % 3.52 C
443 22-02-2020 12:50:00 9.2 C 69 % 3.82 C
444 22-02-2020 12:55:00 9.2 C 69 % 3.82 C
445 22-02-2020 13:00:00 9.3 C 67 % 3.5 C
446 22-02-2020 13:05:00 9.4 C 68 % 3.8 C
447 22-02-2020 13:10:00 9.5 C 69 % 4.11 C
448 22-02-2020 13:15:00 9.6 C 69 % 4.2 C
449 22-02-2020 13:20:00 9.7 C 67 % 3.88 C
450 22-02-2020 13:25:00 9.8 C 67 % 3.97 C
Sensor: Nr:Datum:Temp:Feuchte:Taupunkt:
Aussen-T/F 451 22-02-2020 13:30:00 10 C 66 % 3.95 C
452 22-02-2020 13:35:00 10.2 C 65 % 3.92 C
453 22-02-2020 13:40:00 10.3 C 66 % 4.24 C
454 22-02-2020 13:45:00 10.3 C 66 % 4.24 C
455 22-02-2020 13:50:00 10.3 C 65 % 4.02 C
456 22-02-2020 13:55:00 10.3 C 65 % 4.02 C
457 22-02-2020 14:00:00 10.3 C 65 % 4.02 C
458 22-02-2020 14:05:00 10.3 C 65 % 4.02 C
459 22-02-2020 14:10:00 10.3 C 65 % 4.02 C
460 22-02-2020 14:15:00 10.3 C 65 % 4.02 C
461 22-02-2020 14:20:00 10.3 C 65 % 4.02 C
462 22-02-2020 14:25:00 10.3 C 66 % 4.24 C
463 22-02-2020 14:30:00 10.2 C 66 % 4.14 C
464 22-02-2020 14:35:00 10.3 C 66 % 4.24 C
465 22-02-2020 14:40:00 10.3 C 66 % 4.24 C
466 22-02-2020 14:45:00 10.3 C 66 % 4.24 C
467 22-02-2020 14:50:00 10.3 C 67 % 4.45 C
468 22-02-2020 14:55:00 10.3 C 67 % 4.45 C
469 22-02-2020 15:00:00 10.4 C 67 % 4.55 C
470 22-02-2020 15:05:00 10.4 C 67 % 4.55 C
471 22-02-2020 15:10:00 10.4 C 67 % 4.55 C
472 22-02-2020 15:15:00 10.4 C 67 % 4.55 C
473 22-02-2020 15:20:00 10.5 C 67 % 4.64 C
474 22-02-2020 15:25:00 10.6 C 67 % 4.74 C
475 22-02-2020 15:30:00 10.6 C 68 % 4.95 C
Sensor: Nr:Datum:Temp:Feuchte:Taupunkt:
Aussen-T/F 476 22-02-2020 15:35:00 10.7 C 68 % 5.04 C
477 22-02-2020 15:40:00 10.7 C 68 % 5.04 C
478 22-02-2020 15:45:00 10.8 C 68 % 5.14 C
479 22-02-2020 15:50:00 10.8 C 68 % 5.14 C
480 22-02-2020 15:55:00 10.8 C 68 % 5.14 C
481 22-02-2020 16:00:00 10.9 C 68 % 5.23 C
482 22-02-2020 16:05:00 10.9 C 68 % 5.23 C
483 22-02-2020 16:10:00 10.8 C 69 % 5.35 C
484 22-02-2020 16:15:00 10.8 C 69 % 5.35 C
485 22-02-2020 16:20:00 10.8 C 69 % 5.35 C
486 22-02-2020 16:25:00 10.7 C 69 % 5.25 C
487 22-02-2020 16:30:00 10.7 C 70 % 5.46 C
488 22-02-2020 16:35:00 10.7 C 70 % 5.46 C
489 22-02-2020 16:40:00 10.6 C 71 % 5.57 C
490 22-02-2020 16:45:00 10.6 C 71 % 5.57 C
491 22-02-2020 16:50:00 10.6 C 71 % 5.57 C
492 22-02-2020 16:55:00 10.5 C 71 % 5.47 C
493 22-02-2020 17:00:00 10.4 C 72 % 5.58 C
494 22-02-2020 17:05:00 10.4 C 71 % 5.38 C
495 22-02-2020 17:10:00 10.4 C 72 % 5.58 C
496 22-02-2020 17:15:00 10.3 C 72 % 5.48 C
497 22-02-2020 17:20:00 10.3 C 72 % 5.48 C
498 22-02-2020 17:25:00 10.3 C 72 % 5.48 C
499 22-02-2020 17:30:00 10.3 C 72 % 5.48 C
500 22-02-2020 17:35:00 10.3 C 73 % 5.68 C
Sensor: Nr:Datum:Temp:Feuchte:Taupunkt:
Aussen-T/F 501 22-02-2020 17:40:00 10.3 C 73 % 5.68 C
502 22-02-2020 17:45:00 10.3 C 73 % 5.68 C
503 22-02-2020 17:50:00 10.3 C 73 % 5.68 C
504 22-02-2020 17:55:00 10.2 C 73 % 5.58 C
505 22-02-2020 18:00:00 10.2 C 74 % 5.78 C
506 22-02-2020 18:05:00 10.2 C 74 % 5.78 C
507 22-02-2020 18:10:00 10.2 C 74 % 5.78 C
508 22-02-2020 18:15:00 10.2 C 74 % 5.78 C
509 22-02-2020 18:20:00 10.1 C 75 % 5.88 C
510 22-02-2020 18:25:00 10.1 C 75 % 5.88 C
511 22-02-2020 18:30:00 10.1 C 76 % 6.07 C
512 22-02-2020 18:35:00 10.1 C 76 % 6.07 C
513 22-02-2020 18:40:00 10.1 C 77 % 6.26 C
514 22-02-2020 18:45:00 10.1 C 77 % 6.26 C
515 22-02-2020 18:50:00 10 C 78 % 6.35 C
516 22-02-2020 18:55:00 10 C 79 % 6.53 C
517 22-02-2020 19:00:00 9.9 C 79 % 6.43 C
518 22-02-2020 19:05:00 9.9 C 79 % 6.43 C
519 22-02-2020 19:10:00 9.9 C 80 % 6.62 C
520 22-02-2020 19:15:00 9.9 C 80 % 6.62 C
521 22-02-2020 19:20:00 9.9 C 80 % 6.62 C
522 22-02-2020 19:25:00 9.9 C 80 % 6.62 C
523 22-02-2020 19:30:00 9.9 C 80 % 6.62 C
524 22-02-2020 19:35:00 9.9 C 80 % 6.62 C
525 22-02-2020 19:40:00 9.9 C 80 % 6.62 C
Sensor: Nr:Datum:Temp:Feuchte:Taupunkt:
Aussen-T/F 526 22-02-2020 19:45:00 10 C 81 % 6.89 C
527 22-02-2020 19:50:00 10.1 C 80 % 6.81 C
528 22-02-2020 19:55:00 10.1 C 81 % 6.99 C
529 22-02-2020 20:00:00 10.2 C 81 % 7.09 C
530 22-02-2020 20:05:00 10.2 C 81 % 7.09 C
531 22-02-2020 20:10:00 10.2 C 81 % 7.09 C
532 22-02-2020 20:15:00 10.2 C 81 % 7.09 C
533 22-02-2020 20:20:00 10.2 C 81 % 7.09 C
534 22-02-2020 20:25:00 10.2 C 81 % 7.09 C
535 22-02-2020 20:30:00 10.2 C 81 % 7.09 C
536 22-02-2020 20:35:00 10.3 C 82 % 7.37 C
537 22-02-2020 20:40:00 10.3 C 82 % 7.37 C
538 22-02-2020 20:45:00 10.3 C 82 % 7.37 C
539 22-02-2020 20:50:00 10.3 C 82 % 7.37 C
540 22-02-2020 20:55:00 10.2 C 82 % 7.27 C
541 22-02-2020 21:00:00 10.2 C 82 % 7.27 C
542 22-02-2020 21:05:00 10.2 C 83 % 7.45 C
543 22-02-2020 21:10:00 10.2 C 83 % 7.45 C
544 22-02-2020 21:15:00 10.3 C 83 % 7.54 C
545 22-02-2020 21:20:00 10.3 C 83 % 7.54 C
546 22-02-2020 21:25:00 10.4 C 82 % 7.46 C
547 22-02-2020 21:30:00 10.4 C 82 % 7.46 C
548 22-02-2020 21:35:00 10.4 C 82 % 7.46 C
549 22-02-2020 21:40:00 10.5 C 82 % 7.56 C
550 22-02-2020 21:45:00 10.6 C 82 % 7.66 C
Sensor: Nr:Datum:Temp:Feuchte:Taupunkt:
Aussen-T/F 551 22-02-2020 21:50:00 10.6 C 82 % 7.66 C
552 22-02-2020 21:55:00 10.6 C 82 % 7.66 C
553 22-02-2020 22:00:00 10.6 C 82 % 7.66 C
554 22-02-2020 22:05:00 10.6 C 82 % 7.66 C
555 22-02-2020 22:10:00 10.7 C 82 % 7.76 C
556 22-02-2020 22:15:00 10.7 C 82 % 7.76 C
557 22-02-2020 22:20:00 10.8 C 82 % 7.85 C
558 22-02-2020 22:25:00 10.8 C 82 % 7.85 C
559 22-02-2020 22:30:00 10.9 C 81 % 7.77 C
560 22-02-2020 22:35:00 10.9 C 82 % 7.95 C
561 22-02-2020 22:40:00 10.9 C 82 % 7.95 C
562 22-02-2020 22:45:00 10.9 C 82 % 7.95 C
563 22-02-2020 22:50:00 10.9 C 82 % 7.95 C
564 22-02-2020 22:55:00 10.9 C 82 % 7.95 C
565 22-02-2020 23:00:00 10.8 C 82 % 7.85 C
566 22-02-2020 23:05:00 10.8 C 82 % 7.85 C
567 22-02-2020 23:10:00 10.9 C 82 % 7.95 C
568 22-02-2020 23:15:00 10.9 C 82 % 7.95 C
569 22-02-2020 23:20:00 10.9 C 82 % 7.95 C
570 22-02-2020 23:25:00 10.9 C 82 % 7.95 C
571 22-02-2020 23:30:00 10.9 C 82 % 7.95 C
572 22-02-2020 23:35:00 10.9 C 82 % 7.95 C
573 22-02-2020 23:40:00 10.9 C 82 % 7.95 C
574 22-02-2020 23:45:00 10.9 C 82 % 7.95 C
575 22-02-2020 23:50:00 11 C 82 % 8.05 C
Sensor: Nr:Datum:Temp:Feuchte:Taupunkt:
Aussen-T/F 576 22-02-2020 23:55:00 11 C 82 % 8.05 C
577 23-02-2020 00:00:00 10.9 C 82 % 7.95 C
578 23-02-2020 00:05:00 11 C 81 % 7.87 C
579 23-02-2020 00:10:00 11 C 81 % 7.87 C
580 23-02-2020 00:15:00 11 C 81 % 7.87 C
581 23-02-2020 00:20:00 11 C 80 % 7.69 C
582 23-02-2020 00:25:00 11 C 81 % 7.87 C
583 23-02-2020 00:30:00 10.9 C 81 % 7.77 C
584 23-02-2020 00:35:00 10.8 C 82 % 7.85 C
585 23-02-2020 00:40:00 10.7 C 83 % 7.93 C
586 23-02-2020 00:45:00 10.6 C 84 % 8.01 C
587 23-02-2020 00:50:00 10.4 C 85 % 7.99 C
588 23-02-2020 00:55:00 10.3 C 87 % 8.23 C
589 23-02-2020 01:00:00 10.1 C 88 % 8.21 C
590 23-02-2020 01:05:00 10 C 89 % 8.27 C
591 23-02-2020 01:10:00 9.9 C 89 % 8.17 C
592 23-02-2020 01:15:00 9.9 C 89 % 8.17 C
593 23-02-2020 01:20:00 9.9 C 89 % 8.17 C
594 23-02-2020 01:25:00 9.8 C 90 % 8.24 C
595 23-02-2020 01:30:00 9.8 C 90 % 8.24 C
596 23-02-2020 01:35:00 9.8 C 90 % 8.24 C
597 23-02-2020 01:40:00 9.9 C 90 % 8.34 C
598 23-02-2020 01:45:00 9.9 C 89 % 8.17 C
599 23-02-2020 01:50:00 9.9 C 89 % 8.17 C
600 23-02-2020 01:55:00 10 C 89 % 8.27 C
Sensor: Nr:Datum:Temp:Feuchte:Taupunkt:
Aussen-T/F 601 23-02-2020 02:00:00 10 C 89 % 8.27 C
602 23-02-2020 02:05:00 10.1 C 89 % 8.37 C
603 23-02-2020 02:10:00 10.1 C 89 % 8.37 C
604 23-02-2020 02:15:00 10.1 C 89 % 8.37 C
605 23-02-2020 02:20:00 10 C 89 % 8.27 C
606 23-02-2020 02:25:00 10 C 88 % 8.11 C
607 23-02-2020 02:30:00 10 C 88 % 8.11 C
608 23-02-2020 02:35:00 10.1 C 88 % 8.21 C
609 23-02-2020 02:40:00 10.1 C 87 % 8.04 C
610 23-02-2020 02:45:00 10.2 C 86 % 7.97 C
611 23-02-2020 02:50:00 10.2 C 86 % 7.97 C
612 23-02-2020 02:55:00 10.3 C 85 % 7.89 C
613 23-02-2020 03:00:00 10.3 C 85 % 7.89 C
614 23-02-2020 03:05:00 10.3 C 85 % 7.89 C
615 23-02-2020 03:10:00 10.3 C 84 % 7.72 C
616 23-02-2020 03:15:00 10.3 C 84 % 7.72 C
617 23-02-2020 03:20:00 10.2 C 85 % 7.79 C
618 23-02-2020 03:25:00 10.2 C 85 % 7.79 C
619 23-02-2020 03:30:00 10.2 C 85 % 7.79 C
620 23-02-2020 03:35:00 10.2 C 85 % 7.79 C
621 23-02-2020 03:40:00 10.1 C 85 % 7.7 C
622 23-02-2020 03:45:00 10.1 C 86 % 7.87 C
623 23-02-2020 03:50:00 10.1 C 86 % 7.87 C
624 23-02-2020 03:55:00 10.1 C 85 % 7.7 C
625 23-02-2020 04:00:00 10.1 C 85 % 7.7 C
Sensor: Nr:Datum:Temp:Feuchte:Taupunkt:
Aussen-T/F 626 23-02-2020 04:05:00 10.1 C 84 % 7.52 C
627 23-02-2020 04:10:00 10.2 C 84 % 7.62 C
628 23-02-2020 04:15:00 10.2 C 83 % 7.45 C
629 23-02-2020 04:20:00 10.2 C 83 % 7.45 C
630 23-02-2020 04:25:00 10.3 C 83 % 7.54 C
631 23-02-2020 04:30:00 10.3 C 83 % 7.54 C
632 23-02-2020 04:35:00 10.3 C 83 % 7.54 C
633 23-02-2020 04:40:00 10.3 C 83 % 7.54 C
634 23-02-2020 04:45:00 10.4 C 83 % 7.64 C
635 23-02-2020 04:50:00 10.4 C 84 % 7.82 C
636 23-02-2020 04:55:00 10.3 C 84 % 7.72 C
637 23-02-2020 05:00:00 10.3 C 85 % 7.89 C
638 23-02-2020 05:05:00 10.3 C 85 % 7.89 C
639 23-02-2020 05:10:00 10.3 C 85 % 7.89 C
640 23-02-2020 05:15:00 10.3 C 85 % 7.89 C
641 23-02-2020 05:20:00 10.3 C 86 % 8.06 C
642 23-02-2020 05:25:00 10.3 C 86 % 8.06 C
643 23-02-2020 05:30:00 10.3 C 86 % 8.06 C
644 23-02-2020 05:35:00 10.4 C 86 % 8.16 C
645 23-02-2020 05:40:00 10.4 C 86 % 8.16 C
646 23-02-2020 05:45:00 10.4 C 85 % 7.99 C
647 23-02-2020 05:50:00 10.4 C 85 % 7.99 C
648 23-02-2020 05:55:00 10.4 C 86 % 8.16 C
649 23-02-2020 06:00:00 10.3 C 86 % 8.06 C
650 23-02-2020 06:05:00 10.3 C 86 % 8.06 C
Sensor: Nr:Datum:Temp:Feuchte:Taupunkt:
Aussen-T/F 651 23-02-2020 06:10:00 10.3 C 85 % 7.89 C
652 23-02-2020 06:15:00 10.3 C 85 % 7.89 C
653 23-02-2020 06:20:00 10.3 C 86 % 8.06 C
654 23-02-2020 06:25:00 10.2 C 86 % 7.97 C
655 23-02-2020 06:30:00 10.2 C 85 % 7.79 C
656 23-02-2020 06:35:00 10.3 C 85 % 7.89 C
657 23-02-2020 06:40:00 10.3 C 85 % 7.89 C
658 23-02-2020 06:45:00 10.3 C 85 % 7.89 C
659 23-02-2020 06:50:00 10.3 C 85 % 7.89 C
660 23-02-2020 06:55:00 10.3 C 86 % 8.06 C
661 23-02-2020 07:00:00 10.3 C 86 % 8.06 C
662 23-02-2020 07:05:00 10.2 C 86 % 7.97 C
663 23-02-2020 07:10:00 10.2 C 86 % 7.97 C
664 23-02-2020 07:15:00 10.2 C 87 % 8.14 C
665 23-02-2020 07:20:00 10.2 C 87 % 8.14 C
666 23-02-2020 07:25:00 10.2 C 87 % 8.14 C
667 23-02-2020 07:30:00 10.2 C 87 % 8.14 C
668 23-02-2020 07:35:00 10.3 C 87 % 8.23 C
669 23-02-2020 07:40:00 10.3 C 87 % 8.23 C
670 23-02-2020 07:45:00 10.3 C 88 % 8.4 C
671 23-02-2020 07:50:00 10.3 C 88 % 8.4 C
672 23-02-2020 07:55:00 10.3 C 88 % 8.4 C
673 23-02-2020 08:00:00 10.4 C 88 % 8.5 C
674 23-02-2020 08:05:00 10.5 C 88 % 8.6 C
675 23-02-2020 08:10:00 10.5 C 88 % 8.6 C
Sensor: Nr:Datum:Temp:Feuchte:Taupunkt:
Aussen-T/F 676 23-02-2020 08:15:00 10.4 C 88 % 8.5 C
677 23-02-2020 08:20:00 10.5 C 88 % 8.6 C
678 23-02-2020 08:25:00 10.5 C 88 % 8.6 C
679 23-02-2020 08:30:00 10.5 C 88 % 8.6 C
680 23-02-2020 08:35:00 10.6 C 88 % 8.7 C
681 23-02-2020 08:40:00 10.6 C 88 % 8.7 C
682 23-02-2020 08:45:00 10.6 C 88 % 8.7 C
683 23-02-2020 08:50:00 10.6 C 88 % 8.7 C
684 23-02-2020 08:55:00 10.6 C 88 % 8.7 C
685 23-02-2020 09:00:00 10.6 C 88 % 8.7 C
686 23-02-2020 09:05:00 10.6 C 88 % 8.7 C
687 23-02-2020 09:10:00 10.6 C 88 % 8.7 C
688 23-02-2020 09:15:00 10.6 C 88 % 8.7 C
689 23-02-2020 09:20:00 10.6 C 89 % 8.86 C
690 23-02-2020 09:25:00 10.6 C 88 % 8.7 C
691 23-02-2020 09:30:00 10.5 C 89 % 8.77 C
692 23-02-2020 09:35:00 10.5 C 89 % 8.77 C
693 23-02-2020 09:40:00 10.6 C 89 % 8.86 C
694 23-02-2020 09:45:00 10.6 C 89 % 8.86 C
695 23-02-2020 09:50:00 10.6 C 89 % 8.86 C
696 23-02-2020 09:55:00 10.6 C 89 % 8.86 C
697 23-02-2020 10:00:00 10.6 C 89 % 8.86 C
698 23-02-2020 10:05:00 10.6 C 89 % 8.86 C
699 23-02-2020 10:10:00 10.7 C 89 % 8.96 C
700 23-02-2020 10:15:00 10.7 C 89 % 8.96 C
Sensor: Nr:Datum:Temp:Feuchte:Taupunkt:
Aussen-T/F 701 23-02-2020 10:20:00 10.8 C 88 % 8.89 C
702 23-02-2020 10:25:00 10.8 C 88 % 8.89 C
703 23-02-2020 10:30:00 11 C 87 % 8.92 C
704 23-02-2020 10:35:00 11.1 C 87 % 9.02 C
705 23-02-2020 10:40:00 11.1 C 87 % 9.02 C
706 23-02-2020 10:45:00 11.2 C 87 % 9.12 C
707 23-02-2020 10:50:00 11.2 C 86 % 8.95 C
708 23-02-2020 10:55:00 11.2 C 86 % 8.95 C
709 23-02-2020 11:00:00 11.2 C 86 % 8.95 C
710 23-02-2020 11:05:00 11.2 C 86 % 8.95 C
711 23-02-2020 11:10:00 11.3 C 86 % 9.05 C
712 23-02-2020 11:15:00 11.3 C 86 % 9.05 C
713 23-02-2020 11:20:00 11.3 C 86 % 9.05 C
714 23-02-2020 11:25:00 11.3 C 86 % 9.05 C
715 23-02-2020 11:30:00 11.3 C 86 % 9.05 C
716 23-02-2020 11:35:00 11.3 C 87 % 9.22 C
717 23-02-2020 11:40:00 11.4 C 86 % 9.14 C
718 23-02-2020 11:45:00 11.4 C 86 % 9.14 C
719 23-02-2020 11:50:00 11.4 C 86 % 9.14 C
720 23-02-2020 11:55:00 11.5 C 86 % 9.24 C
721 23-02-2020 12:00:00 11.6 C 86 % 9.34 C
722 23-02-2020 12:05:00 11.6 C 86 % 9.34 C
723 23-02-2020 12:10:00 11.7 C 86 % 9.44 C
724 23-02-2020 12:15:00 11.7 C 86 % 9.44 C
725 23-02-2020 12:20:00 11.8 C 85 % 9.36 C
Sensor: Nr:Datum:Temp:Feuchte:Taupunkt:
Aussen-T/F 726 23-02-2020 12:25:00 11.8 C 85 % 9.36 C
727 23-02-2020 12:30:00 11.8 C 85 % 9.36 C
728 23-02-2020 12:35:00 11.8 C 85 % 9.36 C
729 23-02-2020 12:40:00 11.8 C 85 % 9.36 C
730 23-02-2020 12:45:00 11.9 C 85 % 9.46 C
731 23-02-2020 12:50:00 11.9 C 85 % 9.46 C
732 23-02-2020 12:55:00 11.9 C 85 % 9.46 C
733 23-02-2020 13:00:00 11.9 C 85 % 9.46 C
734 23-02-2020 13:05:00 12 C 84 % 9.38 C
735 23-02-2020 13:10:00 12.1 C 84 % 9.48 C
736 23-02-2020 13:15:00 12 C 84 % 9.38 C
737 23-02-2020 13:20:00 12.1 C 84 % 9.48 C
738 23-02-2020 13:25:00 12 C 84 % 9.38 C
739 23-02-2020 13:30:00 12 C 84 % 9.38 C
740 23-02-2020 13:35:00 12 C 84 % 9.38 C
741 23-02-2020 13:40:00 12.1 C 84 % 9.48 C
742 23-02-2020 13:45:00 12.1 C 84 % 9.48 C
743 23-02-2020 13:50:00 12.1 C 84 % 9.48 C
744 23-02-2020 13:55:00 12 C 84 % 9.38 C
745 23-02-2020 14:00:00 12 C 84 % 9.38 C
746 23-02-2020 14:05:00 12.1 C 84 % 9.48 C
747 23-02-2020 14:10:00 12.1 C 85 % 9.66 C
748 23-02-2020 14:15:00 12 C 85 % 9.56 C
749 23-02-2020 14:20:00 12.1 C 85 % 9.66 C
750 23-02-2020 14:25:00 12 C 85 % 9.56 C
Sensor: Nr:Datum:Temp:Feuchte:Taupunkt:
Aussen-T/F 751 23-02-2020 14:30:00 12 C 85 % 9.56 C
752 23-02-2020 14:35:00 12 C 85 % 9.56 C
753 23-02-2020 14:40:00 12.1 C 85 % 9.66 C
754 23-02-2020 14:45:00 12.1 C 85 % 9.66 C
755 23-02-2020 14:50:00 12.1 C 86 % 9.83 C
756 23-02-2020 14:55:00 12.1 C 86 % 9.83 C
757 23-02-2020 15:00:00 12.1 C 86 % 9.83 C
758 23-02-2020 15:05:00 12.1 C 86 % 9.83 C
759 23-02-2020 15:10:00 12.2 C 86 % 9.93 C
760 23-02-2020 15:15:00 12.2 C 86 % 9.93 C
761 23-02-2020 15:20:00 12.2 C 86 % 9.93 C
762 23-02-2020 15:25:00 12.2 C 86 % 9.93 C
763 23-02-2020 15:30:00 12.2 C 86 % 9.93 C
764 23-02-2020 15:35:00 12.2 C 86 % 9.93 C
765 23-02-2020 15:40:00 12.2 C 86 % 9.93 C
766 23-02-2020 15:45:00 12.2 C 86 % 9.93 C
767 23-02-2020 15:50:00 12.2 C 86 % 9.93 C
768 23-02-2020 15:55:00 12.1 C 86 % 9.83 C
769 23-02-2020 16:00:00 12.1 C 86 % 9.83 C
770 23-02-2020 16:05:00 12.1 C 86 % 9.83 C
771 23-02-2020 16:10:00 12.1 C 87 % 10 C
772 23-02-2020 16:15:00 12.1 C 86 % 9.83 C
773 23-02-2020 16:20:00 12.1 C 87 % 10 C
774 23-02-2020 16:25:00 12.1 C 87 % 10 C
775 23-02-2020 16:30:00 12.1 C 87 % 10 C
Sensor: Nr:Datum:Temp:Feuchte:Taupunkt:
Aussen-T/F 776 23-02-2020 16:35:00 12.1 C 87 % 10 C
777 23-02-2020 16:40:00 12.1 C 87 % 10 C
778 23-02-2020 16:45:00 12.1 C 87 % 10 C
779 23-02-2020 16:50:00 12.1 C 87 % 10 C
780 23-02-2020 16:55:00 12.1 C 86 % 9.83 C
781 23-02-2020 17:00:00 12.1 C 87 % 10 C
782 23-02-2020 17:05:00 12.1 C 86 % 9.83 C
783 23-02-2020 17:10:00 12.2 C 86 % 9.93 C
784 23-02-2020 17:15:00 12.2 C 87 % 10.1 C
785 23-02-2020 17:20:00 12.1 C 87 % 10 C
786 23-02-2020 17:25:00 12.1 C 88 % 10.17 C
787 23-02-2020 17:30:00 11.9 C 88 % 9.98 C
788 23-02-2020 17:35:00 11.8 C 89 % 10.05 C
789 23-02-2020 17:40:00 11.7 C 90 % 10.12 C
790 23-02-2020 17:45:00 11.6 C 91 % 10.18 C
791 23-02-2020 17:50:00 11.5 C 91 % 10.08 C
792 23-02-2020 17:55:00 11.5 C 91 % 10.08 C
793 23-02-2020 18:00:00 11.4 C 91 % 9.98 C
794 23-02-2020 18:05:00 11.4 C 91 % 9.98 C
795 23-02-2020 18:10:00 11.5 C 92 % 10.25 C
796 23-02-2020 18:15:00 11.5 C 91 % 10.08 C
797 23-02-2020 18:20:00 11.4 C 92 % 10.15 C
798 23-02-2020 18:25:00 11.4 C 92 % 10.15 C
799 23-02-2020 18:30:00 11.3 C 93 % 10.21 C
800 23-02-2020 18:35:00 11.3 C 93 % 10.21 C
Sensor: Nr:Datum:Temp:Feuchte:Taupunkt:
Aussen-T/F 801 23-02-2020 18:40:00 11.3 C 93 % 10.21 C
802 23-02-2020 18:45:00 11.2 C 94 % 10.27 C
803 23-02-2020 18:50:00 11.2 C 94 % 10.27 C
804 23-02-2020 18:55:00 11.2 C 94 % 10.27 C
805 23-02-2020 19:00:00 11.2 C 94 % 10.27 C
806 23-02-2020 19:05:00 11.2 C 94 % 10.27 C
807 23-02-2020 19:10:00 11.2 C 94 % 10.27 C
808 23-02-2020 19:15:00 11.2 C 94 % 10.27 C
809 23-02-2020 19:20:00 11.2 C 94 % 10.27 C
810 23-02-2020 19:25:00 11.3 C 94 % 10.37 C
811 23-02-2020 19:30:00 11.4 C 94 % 10.47 C
812 23-02-2020 19:35:00 10.7 C 91 % 9.29 C
813 23-02-2020 19:40:00 10.1 C 91 % 8.7 C
814 23-02-2020 19:45:00 9.7 C 92 % 8.46 C
815 23-02-2020 19:50:00 9.4 C 92 % 8.17 C
816 23-02-2020 19:55:00 9.2 C 92 % 7.97 C
817 23-02-2020 20:00:00 9 C 92 % 7.77 C
818 23-02-2020 20:05:00 8.8 C 92 % 7.57 C
819 23-02-2020 20:10:00 8.7 C 92 % 7.47 C
820 23-02-2020 20:15:00 8.7 C 92 % 7.47 C
821 23-02-2020 20:20:00 8.6 C 92 % 7.38 C
822 23-02-2020 20:25:00 8.6 C 91 % 7.22 C
823 23-02-2020 20:30:00 8.5 C 91 % 7.12 C
824 23-02-2020 20:35:00 8.5 C 91 % 7.12 C
825 23-02-2020 20:40:00 8.5 C 91 % 7.12 C
Sensor: Nr:Datum:Temp:Feuchte:Taupunkt:
Aussen-T/F 826 23-02-2020 20:45:00 8.5 C 91 % 7.12 C
827 23-02-2020 20:50:00 8.4 C 90 % 6.86 C
828 23-02-2020 20:55:00 8.4 C 90 % 6.86 C
829 23-02-2020 21:00:00 8.4 C 90 % 6.86 C
830 23-02-2020 21:05:00 8.4 C 90 % 6.86 C
831 23-02-2020 21:10:00 8.4 C 89 % 6.7 C
832 23-02-2020 21:15:00 8.4 C 89 % 6.7 C
833 23-02-2020 21:20:00 8.3 C 89 % 6.6 C
834 23-02-2020 21:25:00 8.2 C 88 % 6.33 C
835 23-02-2020 21:30:00 8.3 C 88 % 6.43 C
836 23-02-2020 21:35:00 8.3 C 87 % 6.27 C
837 23-02-2020 21:40:00 8.3 C 87 % 6.27 C
838 23-02-2020 21:45:00 8.3 C 87 % 6.27 C
839 23-02-2020 21:50:00 8.2 C 87 % 6.17 C
840 23-02-2020 21:55:00 8.2 C 88 % 6.33 C
841 23-02-2020 22:00:00 8.2 C 88 % 6.33 C
842 23-02-2020 22:05:00 8.2 C 88 % 6.33 C
843 23-02-2020 22:10:00 8.2 C 87 % 6.17 C
844 23-02-2020 22:15:00 8.3 C 86 % 6.1 C
845 23-02-2020 22:20:00 8.3 C 86 % 6.1 C
846 23-02-2020 22:25:00 8.3 C 85 % 5.93 C
847 23-02-2020 22:30:00 8.2 C 84 % 5.66 C
848 23-02-2020 22:35:00 8.2 C 83 % 5.49 C
849 23-02-2020 22:40:00 8.2 C 83 % 5.49 C
850 23-02-2020 22:45:00 8.1 C 83 % 5.39 C
Sensor: Nr:Datum:Temp:Feuchte:Taupunkt:
Aussen-T/F 851 23-02-2020 22:50:00 8 C 82 % 5.12 C
852 23-02-2020 22:55:00 7.9 C 82 % 5.02 C
853 23-02-2020 23:00:00 7.8 C 81 % 4.75 C
854 23-02-2020 23:05:00 7.8 C 81 % 4.75 C
855 23-02-2020 23:10:00 7.7 C 82 % 4.83 C
856 23-02-2020 23:15:00 7.6 C 83 % 4.9 C
857 23-02-2020 23:20:00 7.5 C 84 % 4.98 C
858 23-02-2020 23:25:00 7.4 C 83 % 4.71 C
859 23-02-2020 23:30:00 7.4 C 80 % 4.18 C
860 23-02-2020 23:35:00 7.4 C 80 % 4.18 C
861 23-02-2020 23:40:00 7.5 C 79 % 4.1 C
862 23-02-2020 23:45:00 7.5 C 78 % 3.92 C
863 23-02-2020 23:50:00 7.5 C 78 % 3.92 C
864 23-02-2020 23:55:00 7.5 C 80 % 4.28 C
865 24-02-2020 00:00:00 7.4 C 78 % 3.82 C
866 24-02-2020 00:05:00 7.4 C 79 % 4 C
867 24-02-2020 00:10:00 7.3 C 78 % 3.73 C
868 24-02-2020 00:15:00 7.3 C 80 % 4.09 C
869 24-02-2020 00:20:00 7.2 C 80 % 3.99 C
870 24-02-2020 00:25:00 7.1 C 80 % 3.89 C
871 24-02-2020 00:30:00 7.1 C 81 % 4.07 C
872 24-02-2020 00:35:00 7.1 C 80 % 3.89 C
873 24-02-2020 00:40:00 7 C 81 % 3.97 C
874 24-02-2020 00:45:00 6.9 C 81 % 3.87 C
875 24-02-2020 00:50:00 6.9 C 81 % 3.87 C
Sensor: Nr:Datum:Temp:Feuchte:Taupunkt:
Aussen-T/F 876 24-02-2020 00:55:00 6.9 C 81 % 3.87 C
877 24-02-2020 01:00:00 6.9 C 81 % 3.87 C
878 24-02-2020 01:05:00 6.8 C 82 % 3.95 C
879 24-02-2020 01:10:00 6.6 C 82 % 3.75 C
880 24-02-2020 01:15:00 6.4 C 82 % 3.56 C
881 24-02-2020 01:20:00 6.3 C 83 % 3.63 C
882 24-02-2020 01:25:00 6.3 C 83 % 3.63 C
883 24-02-2020 01:30:00 6.2 C 83 % 3.53 C
884 24-02-2020 01:35:00 6.2 C 84 % 3.7 C
885 24-02-2020 01:40:00 6.1 C 84 % 3.61 C
886 24-02-2020 01:45:00 6.1 C 84 % 3.61 C
887 24-02-2020 01:50:00 6.1 C 84 % 3.61 C
888 24-02-2020 01:55:00 5.9 C 84 % 3.41 C
889 24-02-2020 02:00:00 5.8 C 84 % 3.31 C
890 24-02-2020 02:05:00 5.8 C 84 % 3.31 C
891 24-02-2020 02:10:00 5.7 C 84 % 3.21 C
892 24-02-2020 02:15:00 5.6 C 84 % 3.12 C
893 24-02-2020 02:20:00 5.4 C 85 % 3.09 C
894 24-02-2020 02:25:00 5.3 C 85 % 2.99 C
895 24-02-2020 02:30:00 5.1 C 86 % 2.96 C
896 24-02-2020 02:35:00 4.9 C 86 % 2.76 C
897 24-02-2020 02:40:00 4.8 C 87 % 2.82 C
898 24-02-2020 02:45:00 4.8 C 87 % 2.82 C
899 24-02-2020 02:50:00 4.7 C 88 % 2.89 C
900 24-02-2020 02:55:00 4.7 C 88 % 2.89 C
Sensor: Nr:Datum:Temp:Feuchte:Taupunkt:
Aussen-T/F 901 24-02-2020 03:00:00 4.7 C 88 % 2.89 C
902 24-02-2020 03:05:00 4.8 C 88 % 2.99 C
903 24-02-2020 03:10:00 4.9 C 88 % 3.08 C
904 24-02-2020 03:15:00 5.1 C 86 % 2.96 C
905 24-02-2020 03:20:00 5.3 C 86 % 3.15 C
906 24-02-2020 03:25:00 5.4 C 86 % 3.25 C
907 24-02-2020 03:30:00 5.4 C 86 % 3.25 C
908 24-02-2020 03:35:00 5.4 C 86 % 3.25 C
909 24-02-2020 03:40:00 5.3 C 85 % 2.99 C
910 24-02-2020 03:45:00 5.3 C 85 % 2.99 C
911 24-02-2020 03:50:00 5.3 C 85 % 2.99 C
912 24-02-2020 03:55:00 5.2 C 85 % 2.89 C
913 24-02-2020 04:00:00 5.2 C 85 % 2.89 C
914 24-02-2020 04:05:00 5.2 C 85 % 2.89 C
915 24-02-2020 04:10:00 5.2 C 85 % 2.89 C
916 24-02-2020 04:15:00 5.2 C 86 % 3.05 C
917 24-02-2020 04:20:00 5.2 C 86 % 3.05 C
918 24-02-2020 04:25:00 5.1 C 87 % 3.12 C
919 24-02-2020 04:30:00 5.1 C 87 % 3.12 C
920 24-02-2020 04:35:00 5.1 C 88 % 3.28 C
921 24-02-2020 04:40:00 5 C 88 % 3.18 C
922 24-02-2020 04:45:00 4.9 C 88 % 3.08 C
923 24-02-2020 04:50:00 4.9 C 88 % 3.08 C
924 24-02-2020 04:55:00 4.8 C 89 % 3.14 C
925 24-02-2020 05:00:00 4.8 C 89 % 3.14 C
Sensor: Nr:Datum:Temp:Feuchte:Taupunkt:
Aussen-T/F 926 24-02-2020 05:05:00 4.7 C 90 % 3.2 C
927 24-02-2020 05:10:00 4.7 C 90 % 3.2 C
928 24-02-2020 05:15:00 4.7 C 90 % 3.2 C
929 24-02-2020 05:20:00 4.7 C 90 % 3.2 C
930 24-02-2020 05:25:00 4.7 C 91 % 3.36 C
931 24-02-2020 05:30:00 4.7 C 91 % 3.36 C
932 24-02-2020 05:35:00 4.7 C 91 % 3.36 C
933 24-02-2020 05:40:00 4.7 C 91 % 3.36 C
934 24-02-2020 05:45:00 4.6 C 91 % 3.26 C
935 24-02-2020 05:50:00 4.6 C 91 % 3.26 C
936 24-02-2020 05:55:00 4.6 C 91 % 3.26 C
937 24-02-2020 06:00:00 4.6 C 91 % 3.26 C
938 24-02-2020 06:05:00 4.6 C 91 % 3.26 C
939 24-02-2020 06:10:00 4.7 C 92 % 3.51 C
940 24-02-2020 06:15:00 4.7 C 92 % 3.51 C
941 24-02-2020 06:20:00 4.7 C 92 % 3.51 C
942 24-02-2020 06:25:00 4.7 C 92 % 3.51 C
943 24-02-2020 06:30:00 4.7 C 92 % 3.51 C
944 24-02-2020 06:35:00 4.7 C 92 % 3.51 C
945 24-02-2020 06:40:00 4.7 C 92 % 3.51 C
946 24-02-2020 06:45:00 4.7 C 92 % 3.51 C
947 24-02-2020 06:50:00 4.7 C 92 % 3.51 C
948 24-02-2020 06:55:00 4.7 C 92 % 3.51 C
949 24-02-2020 07:00:00 4.8 C 92 % 3.61 C
950 24-02-2020 07:05:00 4.8 C 92 % 3.61 C
Sensor: Nr:Datum:Temp:Feuchte:Taupunkt:
Aussen-T/F 951 24-02-2020 07:10:00 4.8 C 92 % 3.61 C
952 24-02-2020 07:15:00 4.8 C 92 % 3.61 C
953 24-02-2020 07:20:00 4.8 C 92 % 3.61 C
954 24-02-2020 07:25:00 4.9 C 92 % 3.71 C
955 24-02-2020 07:30:00 4.9 C 92 % 3.71 C
956 24-02-2020 07:35:00 4.9 C 92 % 3.71 C
957 24-02-2020 07:40:00 4.9 C 92 % 3.71 C
958 24-02-2020 07:45:00 4.9 C 92 % 3.71 C
959 24-02-2020 07:50:00 4.9 C 92 % 3.71 C
960 24-02-2020 07:55:00 4.9 C 91 % 3.56 C
961 24-02-2020 08:00:00 5.1 C 92 % 3.91 C
962 24-02-2020 08:05:00 5.1 C 92 % 3.91 C
963 24-02-2020 08:10:00 5.2 C 91 % 3.85 C
964 24-02-2020 08:15:00 5.3 C 91 % 3.95 C
965 24-02-2020 08:20:00 5.5 C 90 % 3.99 C
966 24-02-2020 08:25:00 5.6 C 90 % 4.09 C
967 24-02-2020 08:30:00 5.7 C 90 % 4.19 C
968 24-02-2020 08:35:00 5.8 C 90 % 4.29 C
969 24-02-2020 08:40:00 5.9 C 89 % 4.23 C
970 24-02-2020 08:45:00 6 C 88 % 4.17 C
971 24-02-2020 08:50:00 6.1 C 88 % 4.27 C
972 24-02-2020 08:55:00 6.1 C 87 % 4.1 C
973 24-02-2020 09:00:00 6.2 C 87 % 4.2 C
974 24-02-2020 09:05:00 6.3 C 87 % 4.3 C
975 24-02-2020 09:10:00 6.3 C 87 % 4.3 C
Sensor: Nr:Datum:Temp:Feuchte:Taupunkt:
Aussen-T/F 976 24-02-2020 09:15:00 6.4 C 86 % 4.23 C
977 24-02-2020 09:20:00 6.5 C 86 % 4.33 C
978 24-02-2020 09:25:00 6.6 C 86 % 4.43 C
979 24-02-2020 09:30:00 6.6 C 86 % 4.43 C
980 24-02-2020 09:35:00 6.6 C 86 % 4.43 C
981 24-02-2020 09:40:00 6.6 C 86 % 4.43 C
982 24-02-2020 09:45:00 6.6 C 86 % 4.43 C
983 24-02-2020 09:50:00 6.6 C 86 % 4.43 C
984 24-02-2020 09:55:00 6.6 C 86 % 4.43 C
985 24-02-2020 10:00:00 6.6 C 87 % 4.6 C
986 24-02-2020 10:05:00 6.6 C 87 % 4.6 C
987 24-02-2020 10:10:00 6.6 C 87 % 4.6 C
988 24-02-2020 10:15:00 6.7 C 88 % 4.86 C
989 24-02-2020 10:20:00 6.6 C 88 % 4.76 C
990 24-02-2020 10:25:00 6.6 C 89 % 4.92 C
991 24-02-2020 10:30:00 6.6 C 89 % 4.92 C
992 24-02-2020 10:35:00 6.5 C 90 % 4.98 C
993 24-02-2020 10:40:00 6.5 C 90 % 4.98 C
994 24-02-2020 10:45:00 6.4 C 90 % 4.88 C
995 24-02-2020 10:50:00 6.3 C 91 % 4.94 C
996 24-02-2020 10:55:00 6.3 C 92 % 5.1 C
997 24-02-2020 11:00:00 6.3 C 92 % 5.1 C
998 24-02-2020 11:05:00 6.3 C 93 % 5.25 C
999 24-02-2020 11:10:00 6.4 C 93 % 5.35 C
1000 24-02-2020 11:15:00 6.4 C 93 % 5.35 C
Sensor: Nr:Datum:Temp:Feuchte:Taupunkt:
Aussen-T/F 1001 24-02-2020 11:20:00 6.4 C 93 % 5.35 C
1002 24-02-2020 11:25:00 6.4 C 93 % 5.35 C
1003 24-02-2020 11:30:00 6.4 C 93 % 5.35 C
1004 24-02-2020 11:35:00 6.4 C 93 % 5.35 C
1005 24-02-2020 11:40:00 6.4 C 93 % 5.35 C
1006 24-02-2020 11:45:00 6.4 C 93 % 5.35 C
1007 24-02-2020 11:50:00 6.4 C 93 % 5.35 C
1008 24-02-2020 11:55:00 6.5 C 93 % 5.45 C
1009 24-02-2020 12:00:00 6.5 C 94 % 5.61 C
1010 24-02-2020 12:05:00 6.6 C 94 % 5.71 C
1011 24-02-2020 12:10:00 6.6 C 94 % 5.71 C
1012 24-02-2020 12:15:00 6.7 C 94 % 5.8 C
1013 24-02-2020 12:20:00 6.8 C 94 % 5.9 C
1014 24-02-2020 12:25:00 6.8 C 95 % 6.06 C
1015 24-02-2020 12:30:00 6.8 C 94 % 5.9 C
1016 24-02-2020 12:35:00 6.9 C 95 % 6.16 C
1017 24-02-2020 12:40:00 7.1 C 95 % 6.35 C
1018 24-02-2020 12:45:00 7.2 C 95 % 6.45 C
1019 24-02-2020 12:50:00 7.3 C 95 % 6.55 C
1020 24-02-2020 12:55:00 7.3 C 95 % 6.55 C
1021 24-02-2020 13:00:00 7.3 C 95 % 6.55 C
1022 24-02-2020 13:05:00 7.4 C 95 % 6.65 C
1023 24-02-2020 13:10:00 7.5 C 95 % 6.75 C
1024 24-02-2020 13:15:00 7.7 C 95 % 6.95 C
1025 24-02-2020 13:20:00 7.8 C 96 % 7.2 C
Sensor: Nr:Datum:Temp:Feuchte:Taupunkt:
Aussen-T/F 1026 24-02-2020 13:25:00 7.9 C 95 % 7.15 C
1027 24-02-2020 13:30:00 8.1 C 96 % 7.5 C
1028 24-02-2020 13:35:00 8.1 C 95 % 7.35 C
1029 24-02-2020 13:40:00 8.2 C 95 % 7.45 C
1030 24-02-2020 13:45:00 8.2 C 95 % 7.45 C
1031 24-02-2020 13:50:00 8.3 C 95 % 7.55 C
1032 24-02-2020 13:55:00 8.4 C 95 % 7.65 C
1033 24-02-2020 14:00:00 8.4 C 95 % 7.65 C
1034 24-02-2020 14:05:00 8.6 C 96 % 8 C
1035 24-02-2020 14:10:00 8.7 C 96 % 8.1 C
1036 24-02-2020 14:15:00 8.9 C 96 % 8.3 C
1037 24-02-2020 14:20:00 9.1 C 96 % 8.5 C
1038 24-02-2020 14:25:00 9.2 C 96 % 8.6 C
1039 24-02-2020 14:30:00 9.4 C 96 % 8.8 C
1040 24-02-2020 14:35:00 9.6 C 96 % 8.99 C
1041 24-02-2020 14:40:00 9.8 C 96 % 9.19 C
1042 24-02-2020 14:45:00 10.1 C 96 % 9.49 C
1043 24-02-2020 14:50:00 10.4 C 95 % 9.63 C
1044 24-02-2020 14:55:00 10.7 C 94 % 9.77 C
1045 24-02-2020 15:00:00 10.8 C 93 % 9.71 C
1046 24-02-2020 15:05:00 10.9 C 93 % 9.81 C
1047 24-02-2020 15:10:00 10.9 C 92 % 9.65 C
1048 24-02-2020 15:15:00 10.9 C 92 % 9.65 C
1049 24-02-2020 15:20:00 11 C 92 % 9.75 C
1050 24-02-2020 15:25:00 11 C 92 % 9.75 C
Sensor: Nr:Datum:Temp:Feuchte:Taupunkt:
Aussen-T/F 1051 24-02-2020 15:30:00 11.1 C 92 % 9.85 C
1052 24-02-2020 15:35:00 11.2 C 92 % 9.95 C
1053 24-02-2020 15:40:00 11.3 C 91 % 9.89 C
1054 24-02-2020 15:45:00 11.4 C 91 % 9.98 C
1055 24-02-2020 15:50:00 11.5 C 90 % 9.92 C
1056 24-02-2020 15:55:00 11.6 C 90 % 10.02 C
1057 24-02-2020 16:00:00 11.7 C 90 % 10.12 C
1058 24-02-2020 16:05:00 11.7 C 90 % 10.12 C
1059 24-02-2020 16:10:00 11.8 C 89 % 10.05 C
1060 24-02-2020 16:15:00 11.9 C 89 % 10.15 C
1061 24-02-2020 16:20:00 11.9 C 88 % 9.98 C
1062 24-02-2020 16:25:00 12 C 88 % 10.08 C
1063 24-02-2020 16:30:00 12.1 C 88 % 10.17 C
1064 24-02-2020 16:35:00 12.1 C 88 % 10.17 C
1065 24-02-2020 16:40:00 12 C 88 % 10.08 C
1066 24-02-2020 16:45:00 11.9 C 88 % 9.98 C
1067 24-02-2020 16:50:00 11.9 C 88 % 9.98 C
1068 24-02-2020 16:55:00 11.8 C 88 % 9.88 C
1069 24-02-2020 17:00:00 11.8 C 88 % 9.88 C
1070 24-02-2020 17:05:00 11.8 C 87 % 9.71 C
1071 24-02-2020 17:10:00 11.8 C 87 % 9.71 C
1072 24-02-2020 17:15:00 11.7 C 87 % 9.61 C
1073 24-02-2020 17:20:00 11.7 C 86 % 9.44 C
1074 24-02-2020 17:25:00 11.7 C 86 % 9.44 C
1075 24-02-2020 17:30:00 11.7 C 85 % 9.27 C
Sensor: Nr:Datum:Temp:Feuchte:Taupunkt:
Aussen-T/F 1076 24-02-2020 17:35:00 11.6 C 84 % 8.99 C
1077 24-02-2020 17:40:00 11.6 C 84 % 8.99 C
1078 24-02-2020 17:45:00 11.6 C 84 % 8.99 C
1079 24-02-2020 17:50:00 11.6 C 83 % 8.81 C
1080 24-02-2020 17:55:00 11.6 C 83 % 8.81 C
1081 24-02-2020 18:00:00 11.6 C 83 % 8.81 C
1082 24-02-2020 18:05:00 11.5 C 82 % 8.54 C
1083 24-02-2020 18:10:00 11.5 C 82 % 8.54 C
1084 24-02-2020 18:15:00 11.5 C 82 % 8.54 C
1085 24-02-2020 18:20:00 11.4 C 83 % 8.62 C
1086 24-02-2020 18:25:00 11.4 C 83 % 8.62 C
1087 24-02-2020 18:30:00 11.4 C 83 % 8.62 C
1088 24-02-2020 18:35:00 11.3 C 83 % 8.52 C
1089 24-02-2020 18:40:00 11.3 C 83 % 8.52 C
1090 24-02-2020 18:45:00 11.2 C 83 % 8.42 C
1091 24-02-2020 18:50:00 11.2 C 83 % 8.42 C
1092 24-02-2020 18:55:00 11.2 C 83 % 8.42 C
1093 24-02-2020 19:00:00 11.2 C 83 % 8.42 C
1094 24-02-2020 19:05:00 11.2 C 82 % 8.25 C
1095 24-02-2020 19:10:00 11.2 C 82 % 8.25 C
1096 24-02-2020 19:15:00 11.2 C 82 % 8.25 C
1097 24-02-2020 19:20:00 11.2 C 82 % 8.25 C
1098 24-02-2020 19:25:00 11.2 C 82 % 8.25 C
1099 24-02-2020 19:30:00 11.3 C 82 % 8.34 C
1100 24-02-2020 19:35:00 11.3 C 81 % 8.16 C
Sensor: Nr:Datum:Temp:Feuchte:Taupunkt:
Aussen-T/F 1101 24-02-2020 19:40:00 11.3 C 81 % 8.16 C
1102 24-02-2020 19:45:00 11.3 C 81 % 8.16 C
1103 24-02-2020 19:50:00 11.4 C 80 % 8.08 C
1104 24-02-2020 19:55:00 11.4 C 80 % 8.08 C
1105 24-02-2020 20:00:00 11.4 C 80 % 8.08 C
1106 24-02-2020 20:05:00 11.4 C 80 % 8.08 C
1107 24-02-2020 20:10:00 11.4 C 79 % 7.89 C
1108 24-02-2020 20:15:00 11.4 C 79 % 7.89 C
1109 24-02-2020 20:20:00 11.4 C 79 % 7.89 C
1110 24-02-2020 20:25:00 11.4 C 78 % 7.71 C
1111 24-02-2020 20:30:00 11.4 C 78 % 7.71 C
1112 24-02-2020 20:35:00 11.5 C 78 % 7.8 C
1113 24-02-2020 20:40:00 11.4 C 78 % 7.71 C
1114 24-02-2020 20:45:00 11.4 C 78 % 7.71 C
1115 24-02-2020 20:50:00 11.4 C 79 % 7.89 C
1116 24-02-2020 20:55:00 11.4 C 79 % 7.89 C
1117 24-02-2020 21:00:00 11.3 C 79 % 7.8 C
1118 24-02-2020 21:05:00 11.3 C 80 % 7.98 C
1119 24-02-2020 21:10:00 11.3 C 80 % 7.98 C
1120 24-02-2020 21:15:00 11.2 C 81 % 8.06 C
1121 24-02-2020 21:20:00 11.2 C 81 % 8.06 C
1122 24-02-2020 21:25:00 11.1 C 81 % 7.97 C
1123 24-02-2020 21:30:00 11.1 C 82 % 8.15 C
1124 24-02-2020 21:35:00 11.1 C 82 % 8.15 C
1125 24-02-2020 21:40:00 11.1 C 82 % 8.15 C
Sensor: Nr:Datum:Temp:Feuchte:Taupunkt:
Aussen-T/F 1126 24-02-2020 21:45:00 11.1 C 82 % 8.15 C
1127 24-02-2020 21:50:00 11.1 C 82 % 8.15 C
1128 24-02-2020 21:55:00 11.1 C 82 % 8.15 C
1129 24-02-2020 22:00:00 11.1 C 82 % 8.15 C
1130 24-02-2020 22:05:00 11.1 C 82 % 8.15 C
1131 24-02-2020 22:10:00 11.1 C 82 % 8.15 C
1132 24-02-2020 22:15:00 11.1 C 82 % 8.15 C
1133 24-02-2020 22:20:00 11.1 C 82 % 8.15 C
1134 24-02-2020 22:25:00 11.2 C 82 % 8.25 C
1135 24-02-2020 22:30:00 11.2 C 82 % 8.25 C
1136 24-02-2020 22:35:00 11.2 C 82 % 8.25 C
1137 24-02-2020 22:40:00 11.1 C 82 % 8.15 C
1138 24-02-2020 22:45:00 11.2 C 82 % 8.25 C
1139 24-02-2020 22:50:00 11.2 C 82 % 8.25 C
1140 24-02-2020 22:55:00 11.2 C 82 % 8.25 C
1141 24-02-2020 23:00:00 11.2 C 82 % 8.25 C
1142 24-02-2020 23:05:00 11.2 C 82 % 8.25 C
1143 24-02-2020 23:10:00 11.2 C 82 % 8.25 C
1144 24-02-2020 23:15:00 11.2 C 83 % 8.42 C
1145 24-02-2020 23:20:00 11.2 C 83 % 8.42 C
1146 24-02-2020 23:25:00 11.2 C 83 % 8.42 C
1147 24-02-2020 23:30:00 11.2 C 83 % 8.42 C
1148 24-02-2020 23:35:00 11.2 C 83 % 8.42 C
1149 24-02-2020 23:40:00 11.2 C 83 % 8.42 C
1150 24-02-2020 23:45:00 11.1 C 83 % 8.33 C
Sensor: Nr:Datum:Temp:Feuchte:Taupunkt:
Aussen-T/F 1151 24-02-2020 23:50:00 11.1 C 84 % 8.5 C
1152 24-02-2020 23:55:00 11.1 C 84 % 8.5 C
1153 25-02-2020 00:00:00 11.1 C 84 % 8.5 C
1154 25-02-2020 00:05:00 11 C 84 % 8.4 C
1155 25-02-2020 00:10:00 11 C 85 % 8.58 C
1156 25-02-2020 00:15:00 11 C 85 % 8.58 C
1157 25-02-2020 00:20:00 10.9 C 85 % 8.48 C
1158 25-02-2020 00:25:00 10.9 C 85 % 8.48 C
1159 25-02-2020 00:30:00 10.8 C 85 % 8.38 C
1160 25-02-2020 00:35:00 10.8 C 86 % 8.56 C
1161 25-02-2020 00:40:00 10.8 C 86 % 8.56 C
1162 25-02-2020 00:45:00 10.8 C 86 % 8.56 C
1163 25-02-2020 00:50:00 10.8 C 86 % 8.56 C
1164 25-02-2020 00:55:00 10.8 C 86 % 8.56 C
1165 25-02-2020 01:00:00 10.8 C 86 % 8.56 C
1166 25-02-2020 01:05:00 10.8 C 86 % 8.56 C
1167 25-02-2020 01:10:00 10.8 C 86 % 8.56 C
1168 25-02-2020 01:15:00 10.8 C 86 % 8.56 C
1169 25-02-2020 01:20:00 10.8 C 86 % 8.56 C
1170 25-02-2020 01:25:00 10.8 C 86 % 8.56 C
1171 25-02-2020 01:30:00 10.8 C 86 % 8.56 C
1172 25-02-2020 01:35:00 10.8 C 86 % 8.56 C
1173 25-02-2020 01:40:00 10.8 C 86 % 8.56 C
1174 25-02-2020 01:45:00 10.8 C 86 % 8.56 C
1175 25-02-2020 01:50:00 10.8 C 86 % 8.56 C
Sensor: Nr:Datum:Temp:Feuchte:Taupunkt:
Aussen-T/F 1176 25-02-2020 01:55:00 10.8 C 86 % 8.56 C
1177 25-02-2020 02:00:00 10.8 C 86 % 8.56 C
1178 25-02-2020 02:05:00 10.8 C 86 % 8.56 C
1179 25-02-2020 02:10:00 10.8 C 86 % 8.56 C
1180 25-02-2020 02:15:00 10.7 C 86 % 8.46 C
1181 25-02-2020 02:20:00 10.7 C 87 % 8.63 C
1182 25-02-2020 02:25:00 10.7 C 87 % 8.63 C
1183 25-02-2020 02:30:00 10.7 C 87 % 8.63 C
1184 25-02-2020 02:35:00 10.7 C 87 % 8.63 C
1185 25-02-2020 02:40:00 10.7 C 87 % 8.63 C
1186 25-02-2020 02:45:00 10.7 C 87 % 8.63 C
1187 25-02-2020 02:50:00 10.6 C 87 % 8.53 C
1188 25-02-2020 02:55:00 10.6 C 87 % 8.53 C
1189 25-02-2020 03:00:00 10.6 C 87 % 8.53 C
1190 25-02-2020 03:05:00 10.6 C 87 % 8.53 C
1191 25-02-2020 03:10:00 10.5 C 88 % 8.6 C
1192 25-02-2020 03:15:00 10.4 C 88 % 8.5 C
1193 25-02-2020 03:20:00 10.4 C 88 % 8.5 C
1194 25-02-2020 03:25:00 10.3 C 88 % 8.4 C
1195 25-02-2020 03:30:00 10.3 C 88 % 8.4 C
1196 25-02-2020 03:35:00 10.3 C 88 % 8.4 C
1197 25-02-2020 03:40:00 10.3 C 88 % 8.4 C
1198 25-02-2020 03:45:00 10.3 C 88 % 8.4 C
1199 25-02-2020 03:50:00 10.3 C 88 % 8.4 C
1200 25-02-2020 03:55:00 10.3 C 88 % 8.4 C
Sensor: Nr:Datum:Temp:Feuchte:Taupunkt:
Aussen-T/F 1201 25-02-2020 04:00:00 10.3 C 88 % 8.4 C
1202 25-02-2020 04:05:00 10.3 C 88 % 8.4 C
1203 25-02-2020 04:10:00 10.3 C 88 % 8.4 C
1204 25-02-2020 04:15:00 10.3 C 88 % 8.4 C
1205 25-02-2020 04:20:00 10.3 C 88 % 8.4 C
1206 25-02-2020 04:25:00 10.3 C 88 % 8.4 C
1207 25-02-2020 04:30:00 10.3 C 88 % 8.4 C
1208 25-02-2020 04:35:00 10.3 C 87 % 8.23 C
1209 25-02-2020 04:40:00 10.3 C 87 % 8.23 C
1210 25-02-2020 04:45:00 10.3 C 87 % 8.23 C
1211 25-02-2020 04:50:00 10.3 C 87 % 8.23 C
1212 25-02-2020 04:55:00 10.3 C 87 % 8.23 C
1213 25-02-2020 05:00:00 10.2 C 87 % 8.14 C
1214 25-02-2020 05:05:00 10.2 C 87 % 8.14 C
1215 25-02-2020 05:10:00 10.2 C 87 % 8.14 C
1216 25-02-2020 05:15:00 10.2 C 87 % 8.14 C
1217 25-02-2020 05:20:00 10.2 C 87 % 8.14 C
1218 25-02-2020 05:25:00 10.1 C 87 % 8.04 C
1219 25-02-2020 05:30:00 10.1 C 88 % 8.21 C
1220 25-02-2020 05:35:00 10.1 C 88 % 8.21 C
1221 25-02-2020 05:40:00 10.1 C 87 % 8.04 C
1222 25-02-2020 05:45:00 10.1 C 87 % 8.04 C
1223 25-02-2020 05:50:00 10.1 C 87 % 8.04 C
1224 25-02-2020 05:55:00 10.1 C 87 % 8.04 C
1225 25-02-2020 06:00:00 10.1 C 87 % 8.04 C
Sensor: Nr:Datum:Temp:Feuchte:Taupunkt:
Aussen-T/F 1226 25-02-2020 06:05:00 10.1 C 87 % 8.04 C
1227 25-02-2020 06:10:00 10.1 C 87 % 8.04 C
1228 25-02-2020 06:15:00 10 C 87 % 7.94 C
1229 25-02-2020 06:20:00 10 C 87 % 7.94 C
1230 25-02-2020 06:25:00 9.9 C 87 % 7.84 C
1231 25-02-2020 06:30:00 9.9 C 87 % 7.84 C
1232 25-02-2020 06:35:00 9.9 C 87 % 7.84 C
1233 25-02-2020 06:40:00 9.8 C 87 % 7.74 C
1234 25-02-2020 06:45:00 9.8 C 87 % 7.74 C
1235 25-02-2020 06:50:00 9.8 C 88 % 7.91 C
1236 25-02-2020 06:55:00 9.7 C 88 % 7.81 C
1237 25-02-2020 07:00:00 9.7 C 88 % 7.81 C
1238 25-02-2020 07:05:00 9.7 C 88 % 7.81 C
1239 25-02-2020 07:10:00 9.7 C 88 % 7.81 C
1240 25-02-2020 07:15:00 9.6 C 88 % 7.71 C
1241 25-02-2020 07:20:00 9.6 C 88 % 7.71 C
1242 25-02-2020 07:25:00 9.6 C 89 % 7.88 C
1243 25-02-2020 07:30:00 9.5 C 89 % 7.78 C
1244 25-02-2020 07:35:00 9.5 C 89 % 7.78 C
1245 25-02-2020 07:40:00 9.4 C 90 % 7.85 C
1246 25-02-2020 07:45:00 9.3 C 90 % 7.75 C
1247 25-02-2020 07:50:00 9.3 C 91 % 7.91 C
1248 25-02-2020 07:55:00 9.2 C 91 % 7.81 C
1249 25-02-2020 08:00:00 9.1 C 92 % 7.87 C
1250 25-02-2020 08:05:00 9.1 C 92 % 7.87 C
Sensor: Nr:Datum:Temp:Feuchte:Taupunkt:
Aussen-T/F 1251 25-02-2020 08:10:00 8.9 C 93 % 7.83 C
1252 25-02-2020 08:15:00 8.9 C 93 % 7.83 C
1253 25-02-2020 08:20:00 8.8 C 93 % 7.73 C
1254 25-02-2020 08:25:00 8.8 C 94 % 7.89 C
1255 25-02-2020 08:30:00 8.7 C 94 % 7.79 C
1256 25-02-2020 08:35:00 8.7 C 94 % 7.79 C
1257 25-02-2020 08:40:00 8.7 C 94 % 7.79 C
1258 25-02-2020 08:45:00 8.7 C 94 % 7.79 C
1259 25-02-2020 08:50:00 8.7 C 94 % 7.79 C
1260 25-02-2020 08:55:00 8.7 C 94 % 7.79 C
1261 25-02-2020 09:00:00 8.7 C 94 % 7.79 C
1262 25-02-2020 09:05:00 8.8 C 94 % 7.89 C
1263 25-02-2020 09:10:00 8.8 C 94 % 7.89 C
1264 25-02-2020 09:15:00 8.7 C 94 % 7.79 C
1265 25-02-2020 09:20:00 8.7 C 94 % 7.79 C
1266 25-02-2020 09:25:00 8.7 C 94 % 7.79 C
1267 25-02-2020 09:30:00 8.7 C 94 % 7.79 C
1268 25-02-2020 09:35:00 8.7 C 94 % 7.79 C
1269 25-02-2020 09:40:00 8.8 C 94 % 7.89 C
1270 25-02-2020 09:45:00 8.8 C 93 % 7.73 C
1271 25-02-2020 09:50:00 8.7 C 92 % 7.47 C
1272 25-02-2020 09:55:00 8.5 C 90 % 6.96 C
1273 25-02-2020 10:00:00 8.4 C 88 % 6.53 C
1274 25-02-2020 10:05:00 8.4 C 85 % 6.03 C
1275 25-02-2020 10:10:00 8.4 C 84 % 5.86 C
Sensor: Nr:Datum:Temp:Feuchte:Taupunkt:
Aussen-T/F 1276 25-02-2020 10:15:00 8.4 C 84 % 5.86 C
1277 25-02-2020 10:20:00 8.4 C 84 % 5.86 C
1278 25-02-2020 10:25:00 8.4 C 85 % 6.03 C
1279 25-02-2020 10:30:00 8.4 C 85 % 6.03 C
1280 25-02-2020 10:35:00 8.6 C 84 % 6.05 C
1281 25-02-2020 10:40:00 8.7 C 83 % 5.98 C
1282 25-02-2020 10:45:00 8.8 C 82 % 5.9 C
1283 25-02-2020 10:50:00 9 C 82 % 6.1 C
1284 25-02-2020 10:55:00 9.2 C 82 % 6.29 C
1285 25-02-2020 11:00:00 9.3 C 80 % 6.03 C
1286 25-02-2020 11:05:00 9.3 C 79 % 5.85 C
1287 25-02-2020 11:10:00 9.2 C 79 % 5.75 C
1288 25-02-2020 11:15:00 8.9 C 80 % 5.64 C
1289 25-02-2020 11:20:00 8.7 C 80 % 5.45 C
1290 25-02-2020 11:25:00 8.6 C 79 % 5.17 C
1291 25-02-2020 11:30:00 8.6 C 78 % 4.99 C
1292 25-02-2020 11:35:00 8.5 C 77 % 4.71 C
1293 25-02-2020 11:40:00 8.4 C 78 % 4.79 C
1294 25-02-2020 11:45:00 8.4 C 78 % 4.79 C
1295 25-02-2020 11:50:00 8.4 C 78 % 4.79 C
1296 25-02-2020 11:55:00 8.5 C 77 % 4.71 C
1297 25-02-2020 12:00:00 8.6 C 76 % 4.62 C
1298 25-02-2020 12:05:00 8.7 C 78 % 5.08 C
1299 25-02-2020 12:10:00 8.9 C 76 % 4.91 C
1300 25-02-2020 12:15:00 9.2 C 74 % 4.81 C
Sensor: Nr:Datum:Temp:Feuchte:Taupunkt:
Aussen-T/F 1301 25-02-2020 12:20:00 9.6 C 74 % 5.2 C
1302 25-02-2020 12:25:00 9.8 C 70 % 4.6 C
1303 25-02-2020 12:30:00 9.9 C 69 % 4.49 C
1304 25-02-2020 12:35:00 9.9 C 69 % 4.49 C
1305 25-02-2020 12:40:00 9.9 C 69 % 4.49 C
1306 25-02-2020 12:45:00 9.9 C 68 % 4.28 C
1307 25-02-2020 12:50:00 9.9 C 68 % 4.28 C
1308 25-02-2020 12:55:00 9.9 C 71 % 4.9 C
1309 25-02-2020 13:00:00 9.9 C 71 % 4.9 C
1310 25-02-2020 13:05:00 9.9 C 72 % 5.1 C
1311 25-02-2020 13:10:00 9.9 C 73 % 5.29 C
1312 25-02-2020 13:15:00 10.1 C 73 % 5.49 C
1313 25-02-2020 13:20:00 10.2 C 72 % 5.39 C
1314 25-02-2020 13:25:00 10.3 C 72 % 5.48 C
1315 25-02-2020 13:30:00 10.2 C 71 % 5.18 C
1316 25-02-2020 13:35:00 10.2 C 70 % 4.98 C
1317 25-02-2020 13:40:00 10.3 C 68 % 4.66 C
1318 25-02-2020 13:45:00 10.3 C 68 % 4.66 C
1319 25-02-2020 13:50:00 10.3 C 68 % 4.66 C
1320 25-02-2020 13:55:00 10.2 C 67 % 4.36 C
1321 25-02-2020 14:00:00 10.3 C 70 % 5.08 C
1322 25-02-2020 14:05:00 10.5 C 67 % 4.64 C
1323 25-02-2020 14:10:00 10.5 C 67 % 4.64 C
1324 25-02-2020 14:15:00 10.4 C 64 % 3.89 C
1325 25-02-2020 14:20:00 10.3 C 65 % 4.02 C
Sensor: Nr:Datum:Temp:Feuchte:Taupunkt:
Aussen-T/F 1326 25-02-2020 14:25:00 10.2 C 67 % 4.36 C
1327 25-02-2020 14:30:00 10.1 C 67 % 4.26 C
1328 25-02-2020 14:35:00 10.1 C 68 % 4.47 C
1329 25-02-2020 14:40:00 10.2 C 67 % 4.36 C
1330 25-02-2020 14:45:00 10.3 C 67 % 4.45 C
1331 25-02-2020 14:50:00 10.3 C 68 % 4.66 C
1332 25-02-2020 14:55:00 10.2 C 69 % 4.78 C
1333 25-02-2020 15:00:00 10.1 C 70 % 4.89 C
1334 25-02-2020 15:05:00 9.9 C 71 % 4.9 C
1335 25-02-2020 15:10:00 9.8 C 70 % 4.6 C
1336 25-02-2020 15:15:00 9.8 C 71 % 4.8 C
1337 25-02-2020 15:20:00 9.9 C 70 % 4.69 C
1338 25-02-2020 15:25:00 10 C 69 % 4.58 C
1339 25-02-2020 15:30:00 10.1 C 67 % 4.26 C
1340 25-02-2020 15:35:00 10.2 C 65 % 3.92 C
1341 25-02-2020 15:40:00 10.3 C 65 % 4.02 C
1342 25-02-2020 15:45:00 10.4 C 64 % 3.89 C
1343 25-02-2020 15:50:00 10.4 C 66 % 4.33 C
1344 25-02-2020 15:55:00 10.6 C 66 % 4.52 C
1345 25-02-2020 16:00:00 10.7 C 66 % 4.62 C
1346 25-02-2020 16:05:00 10.6 C 67 % 4.74 C
1347 25-02-2020 16:10:00 10.4 C 67 % 4.55 C
1348 25-02-2020 16:15:00 10.3 C 67 % 4.45 C
1349 25-02-2020 16:20:00 10.3 C 67 % 4.45 C
1350 25-02-2020 16:25:00 10.2 C 66 % 4.14 C
Sensor: Nr:Datum:Temp:Feuchte:Taupunkt:
Aussen-T/F 1351 25-02-2020 16:30:00 10.2 C 65 % 3.92 C
1352 25-02-2020 16:35:00 10.2 C 65 % 3.92 C
1353 25-02-2020 16:40:00 10.3 C 66 % 4.24 C
1354 25-02-2020 16:45:00 10.6 C 65 % 4.3 C
1355 25-02-2020 16:50:00 10.8 C 64 % 4.27 C
1356 25-02-2020 16:55:00 10.6 C 62 % 3.63 C
1357 25-02-2020 17:00:00 10.3 C 64 % 3.8 C
1358 25-02-2020 17:05:00 10.2 C 66 % 4.14 C
1359 25-02-2020 17:10:00 10.1 C 67 % 4.26 C
1360 25-02-2020 17:15:00 10.2 C 69 % 4.78 C
1361 25-02-2020 17:20:00 10.3 C 68 % 4.66 C
1362 25-02-2020 17:25:00 10.2 C 69 % 4.78 C
1363 25-02-2020 17:30:00 10 C 69 % 4.58 C
1364 25-02-2020 17:35:00 9.8 C 68 % 4.18 C
1365 25-02-2020 17:40:00 9.6 C 69 % 4.2 C
1366 25-02-2020 17:45:00 9.4 C 70 % 4.21 C
1367 25-02-2020 17:50:00 9.2 C 70 % 4.02 C
1368 25-02-2020 17:55:00 9.2 C 72 % 4.42 C
1369 25-02-2020 18:00:00 9.1 C 72 % 4.33 C
1370 25-02-2020 18:05:00 9.1 C 72 % 4.33 C
1371 25-02-2020 18:10:00 9.1 C 71 % 4.13 C
1372 25-02-2020 18:15:00 9 C 72 % 4.23 C
1373 25-02-2020 18:20:00 8.9 C 72 % 4.14 C
1374 25-02-2020 18:25:00 8.8 C 73 % 4.24 C
1375 25-02-2020 18:30:00 8.8 C 73 % 4.24 C
Sensor: Nr:Datum:Temp:Feuchte:Taupunkt:
Aussen-T/F 1376 25-02-2020 18:35:00 8.7 C 74 % 4.33 C
1377 25-02-2020 18:40:00 8.7 C 74 % 4.33 C
1378 25-02-2020 18:45:00 8.7 C 74 % 4.33 C
1379 25-02-2020 18:50:00 8.7 C 74 % 4.33 C
1380 25-02-2020 18:55:00 8.6 C 75 % 4.43 C
1381 25-02-2020 19:00:00 8.3 C 77 % 4.51 C
1382 25-02-2020 19:05:00 8.1 C 79 % 4.68 C
1383 25-02-2020 19:10:00 7.8 C 79 % 4.39 C
1384 25-02-2020 19:15:00 7.6 C 81 % 4.55 C
1385 25-02-2020 19:20:00 7.4 C 81 % 4.36 C
1386 25-02-2020 19:25:00 7.3 C 81 % 4.26 C
1387 25-02-2020 19:30:00 7.2 C 82 % 4.34 C
1388 25-02-2020 19:35:00 7.1 C 83 % 4.41 C
1389 25-02-2020 19:40:00 7.1 C 85 % 4.75 C
1390 25-02-2020 19:45:00 7.1 C 86 % 4.92 C
1391 25-02-2020 19:50:00 7 C 86 % 4.82 C
1392 25-02-2020 19:55:00 6.9 C 87 % 4.89 C
1393 25-02-2020 20:00:00 6.8 C 87 % 4.79 C
1394 25-02-2020 20:05:00 6.7 C 88 % 4.86 C
1395 25-02-2020 20:10:00 6.6 C 89 % 4.92 C
1396 25-02-2020 20:15:00 6.5 C 89 % 4.82 C
1397 25-02-2020 20:20:00 6.4 C 90 % 4.88 C
1398 25-02-2020 20:25:00 6.4 C 90 % 4.88 C
1399 25-02-2020 20:30:00 6.4 C 90 % 4.88 C
1400 25-02-2020 20:35:00 6.4 C 90 % 4.88 C
Sensor: Nr:Datum:Temp:Feuchte:Taupunkt:
Aussen-T/F 1401 25-02-2020 20:40:00 6.4 C 90 % 4.88 C
1402 25-02-2020 20:45:00 6.5 C 90 % 4.98 C
1403 25-02-2020 20:50:00 6.6 C 90 % 5.08 C
1404 25-02-2020 20:55:00 6.8 C 89 % 5.12 C
1405 25-02-2020 21:00:00 6.8 C 89 % 5.12 C
1406 25-02-2020 21:05:00 6.8 C 88 % 4.96 C
1407 25-02-2020 21:10:00 6.7 C 88 % 4.86 C
1408 25-02-2020 21:15:00 6.6 C 89 % 4.92 C
1409 25-02-2020 21:20:00 6.4 C 89 % 4.72 C
1410 25-02-2020 21:25:00 6.3 C 89 % 4.62 C
1411 25-02-2020 21:30:00 6.3 C 90 % 4.78 C
1412 25-02-2020 21:35:00 6.2 C 90 % 4.69 C
1413 25-02-2020 21:40:00 6.1 C 90 % 4.59 C
1414 25-02-2020 21:45:00 6.1 C 90 % 4.59 C
1415 25-02-2020 21:50:00 6.1 C 86 % 3.94 C
1416 25-02-2020 21:55:00 6.2 C 83 % 3.53 C
1417 25-02-2020 22:00:00 6.2 C 82 % 3.36 C
1418 25-02-2020 22:05:00 6.2 C 80 % 3.01 C
1419 25-02-2020 22:10:00 6.2 C 79 % 2.84 C
1420 25-02-2020 22:15:00 6.2 C 78 % 2.66 C
1421 25-02-2020 22:20:00 6.1 C 79 % 2.74 C
1422 25-02-2020 22:25:00 6 C 77 % 2.28 C
1423 25-02-2020 22:30:00 5.9 C 77 % 2.19 C
1424 25-02-2020 22:35:00 5.8 C 77 % 2.09 C
1425 25-02-2020 22:40:00 5.7 C 78 % 2.17 C
Sensor: Nr:Datum:Temp:Feuchte:Taupunkt:
Aussen-T/F 1426 25-02-2020 22:45:00 5.5 C 79 % 2.16 C
1427 25-02-2020 22:50:00 5.3 C 80 % 2.14 C
1428 25-02-2020 22:55:00 5.2 C 80 % 2.04 C
1429 25-02-2020 23:00:00 5 C 81 % 2.02 C
1430 25-02-2020 23:05:00 4.9 C 81 % 1.92 C
1431 25-02-2020 23:10:00 4.8 C 82 % 1.99 C
1432 25-02-2020 23:15:00 4.7 C 83 % 2.07 C
1433 25-02-2020 23:20:00 4.6 C 83 % 1.97 C
1434 25-02-2020 23:25:00 4.6 C 84 % 2.14 C
1435 25-02-2020 23:30:00 4.7 C 84 % 2.23 C
1436 25-02-2020 23:35:00 4.8 C 84 % 2.33 C
1437 25-02-2020 23:40:00 4.9 C 83 % 2.26 C
1438 25-02-2020 23:45:00 5.2 C 82 % 2.39 C
1439 25-02-2020 23:50:00 5.4 C 81 % 2.41 C
1440 25-02-2020 23:55:00 5.6 C 81 % 2.6 C
1441 26-02-2020 00:00:00 5.7 C 81 % 2.7 C
1442 26-02-2020 00:05:00 5.7 C 81 % 2.7 C
1443 26-02-2020 00:10:00 5.7 C 82 % 2.87 C
1444 26-02-2020 00:15:00 5.7 C 82 % 2.87 C
1445 26-02-2020 00:20:00 5.7 C 83 % 3.04 C
1446 26-02-2020 00:25:00 5.6 C 83 % 2.95 C
1447 26-02-2020 00:30:00 5.6 C 82 % 2.78 C
1448 26-02-2020 00:35:00 5.6 C 82 % 2.78 C
1449 26-02-2020 00:40:00 5.6 C 82 % 2.78 C
1450 26-02-2020 00:45:00 5.8 C 82 % 2.97 C
Sensor: Nr:Datum:Temp:Feuchte:Taupunkt:
Aussen-T/F 1451 26-02-2020 00:50:00 5.8 C 81 % 2.8 C
1452 26-02-2020 00:55:00 5.9 C 82 % 3.07 C
1453 26-02-2020 01:00:00 5.9 C 82 % 3.07 C
1454 26-02-2020 01:05:00 6 C 82 % 3.17 C
1455 26-02-2020 01:10:00 6 C 83 % 3.34 C
1456 26-02-2020 01:15:00 6 C 83 % 3.34 C
1457 26-02-2020 01:20:00 6 C 83 % 3.34 C
1458 26-02-2020 01:25:00 6 C 84 % 3.51 C
1459 26-02-2020 01:30:00 6 C 84 % 3.51 C
1460 26-02-2020 01:35:00 5.9 C 84 % 3.41 C
1461 26-02-2020 01:40:00 5.9 C 84 % 3.41 C
1462 26-02-2020 01:45:00 5.8 C 84 % 3.31 C
1463 26-02-2020 01:50:00 5.7 C 84 % 3.21 C
1464 26-02-2020 01:55:00 5.6 C 83 % 2.95 C
1465 26-02-2020 02:00:00 5.6 C 82 % 2.78 C
1466 26-02-2020 02:05:00 5.6 C 82 % 2.78 C
1467 26-02-2020 02:10:00 5.6 C 82 % 2.78 C
1468 26-02-2020 02:15:00 5.6 C 81 % 2.6 C
1469 26-02-2020 02:20:00 5.6 C 81 % 2.6 C
1470 26-02-2020 02:25:00 5.6 C 82 % 2.78 C
1471 26-02-2020 02:30:00 5.6 C 82 % 2.78 C
1472 26-02-2020 02:35:00 5.6 C 81 % 2.6 C
1473 26-02-2020 02:40:00 5.6 C 81 % 2.6 C
1474 26-02-2020 02:45:00 5.5 C 79 % 2.16 C
1475 26-02-2020 02:50:00 5.5 C 79 % 2.16 C
Sensor: Nr:Datum:Temp:Feuchte:Taupunkt:
Aussen-T/F 1476 26-02-2020 02:55:00 5.5 C 79 % 2.16 C
1477 26-02-2020 03:00:00 5.4 C 78 % 1.88 C
1478 26-02-2020 03:05:00 5.4 C 78 % 1.88 C
1479 26-02-2020 03:10:00 5.3 C 78 % 1.78 C
1480 26-02-2020 03:15:00 5.3 C 78 % 1.78 C
1481 26-02-2020 03:20:00 5.3 C 78 % 1.78 C
1482 26-02-2020 03:25:00 5.2 C 79 % 1.86 C
1483 26-02-2020 03:30:00 5.1 C 78 % 1.59 C
1484 26-02-2020 03:35:00 4.9 C 78 % 1.39 C
1485 26-02-2020 03:40:00 4.7 C 78 % 1.2 C
1486 26-02-2020 03:45:00 4.6 C 78 % 1.1 C
1487 26-02-2020 03:50:00 4.5 C 79 % 1.18 C
1488 26-02-2020 03:55:00 4.5 C 80 % 1.36 C
1489 26-02-2020 04:00:00 4.4 C 80 % 1.26 C
1490 26-02-2020 04:05:00 4.4 C 81 % 1.43 C
1491 26-02-2020 04:10:00 4.4 C 81 % 1.43 C
1492 26-02-2020 04:15:00 4.4 C 81 % 1.43 C
1493 26-02-2020 04:20:00 4.4 C 81 % 1.43 C
1494 26-02-2020 04:25:00 4.4 C 81 % 1.43 C
1495 26-02-2020 04:30:00 4.4 C 81 % 1.43 C
1496 26-02-2020 04:35:00 4.4 C 81 % 1.43 C
1497 26-02-2020 04:40:00 4.3 C 81 % 1.34 C
1498 26-02-2020 04:45:00 4.3 C 81 % 1.34 C
1499 26-02-2020 04:50:00 4.3 C 81 % 1.34 C
1500 26-02-2020 04:55:00 4.3 C 81 % 1.34 C
Sensor: Nr:Datum:Temp:Feuchte:Taupunkt:
Aussen-T/F 1501 26-02-2020 05:00:00 4.4 C 81 % 1.43 C
1502 26-02-2020 05:05:00 4.4 C 80 % 1.26 C
1503 26-02-2020 05:10:00 4.4 C 79 % 1.09 C
1504 26-02-2020 05:15:00 4.5 C 79 % 1.18 C
1505 26-02-2020 05:20:00 4.5 C 79 % 1.18 C
1506 26-02-2020 05:25:00 4.5 C 79 % 1.18 C
1507 26-02-2020 05:30:00 4.5 C 79 % 1.18 C
1508 26-02-2020 05:35:00 4.4 C 79 % 1.09 C
1509 26-02-2020 05:40:00 4.4 C 79 % 1.09 C
1510 26-02-2020 05:45:00 4.4 C 79 % 1.09 C
1511 26-02-2020 05:50:00 4.3 C 79 % 0.99 C
1512 26-02-2020 05:55:00 4.3 C 78 % 0.81 C
1513 26-02-2020 06:00:00 4.3 C 79 % 0.99 C
1514 26-02-2020 06:05:00 4.3 C 78 % 0.81 C
1515 26-02-2020 06:10:00 4.3 C 77 % 0.63 C
1516 26-02-2020 06:15:00 4.4 C 77 % 0.73 C
1517 26-02-2020 06:20:00 4.4 C 77 % 0.73 C
1518 26-02-2020 06:25:00 4.4 C 78 % 0.91 C
1519 26-02-2020 06:30:00 4.3 C 78 % 0.81 C
1520 26-02-2020 06:35:00 4.2 C 78 % 0.71 C
1521 26-02-2020 06:40:00 4.2 C 77 % 0.54 C
1522 26-02-2020 06:45:00 4.2 C 77 % 0.54 C
1523 26-02-2020 06:50:00 4.2 C 78 % 0.71 C
1524 26-02-2020 06:55:00 4.2 C 78 % 0.71 C
1525 26-02-2020 07:00:00 4.1 C 78 % 0.62 C
Sensor: Nr:Datum:Temp:Feuchte:Taupunkt:
Aussen-T/F 1526 26-02-2020 07:05:00 4.1 C 78 % 0.62 C
1527 26-02-2020 07:10:00 4.1 C 79 % 0.79 C
1528 26-02-2020 07:15:00 4 C 79 % 0.7 C
1529 26-02-2020 07:20:00 3.9 C 79 % 0.6 C
1530 26-02-2020 07:25:00 3.9 C 80 % 0.77 C
1531 26-02-2020 07:30:00 3.9 C 80 % 0.77 C
1532 26-02-2020 07:35:00 3.8 C 81 % 0.85 C
1533 26-02-2020 07:40:00 3.9 C 81 % 0.95 C
1534 26-02-2020 07:45:00 3.9 C 81 % 0.95 C
1535 26-02-2020 07:50:00 3.9 C 81 % 0.95 C
1536 26-02-2020 07:55:00 3.9 C 81 % 0.95 C
1537 26-02-2020 08:00:00 4 C 81 % 1.04 C
1538 26-02-2020 08:05:00 4 C 81 % 1.04 C
1539 26-02-2020 08:10:00 4 C 81 % 1.04 C
1540 26-02-2020 08:15:00 4 C 81 % 1.04 C
1541 26-02-2020 08:20:00 4 C 81 % 1.04 C
1542 26-02-2020 08:25:00 4.1 C 80 % 0.97 C
1543 26-02-2020 08:30:00 4.1 C 80 % 0.97 C
1544 26-02-2020 08:35:00 4.1 C 80 % 0.97 C
1545 26-02-2020 08:40:00 4.2 C 80 % 1.07 C
1546 26-02-2020 08:45:00 4.2 C 80 % 1.07 C
1547 26-02-2020 08:50:00 4.2 C 80 % 1.07 C
1548 26-02-2020 08:55:00 4.2 C 81 % 1.24 C
1549 26-02-2020 09:00:00 4.1 C 81 % 1.14 C
1550 26-02-2020 09:05:00 4 C 82 % 1.21 C
Sensor: Nr:Datum:Temp:Feuchte:Taupunkt:
Aussen-T/F 1551 26-02-2020 09:10:00 3.9 C 83 % 1.28 C
1552 26-02-2020 09:15:00 3.8 C 83 % 1.19 C
1553 26-02-2020 09:20:00 3.8 C 84 % 1.35 C
1554 26-02-2020 09:25:00 3.7 C 84 % 1.25 C
1555 26-02-2020 09:30:00 3.7 C 85 % 1.42 C
1556 26-02-2020 09:35:00 3.7 C 85 % 1.42 C
1557 26-02-2020 09:40:00 3.8 C 85 % 1.52 C
1558 26-02-2020 09:45:00 4 C 85 % 1.71 C
1559 26-02-2020 09:50:00 4.2 C 84 % 1.74 C
1560 26-02-2020 09:55:00 4.2 C 83 % 1.58 C
1561 26-02-2020 10:00:00 4.3 C 84 % 1.84 C
1562 26-02-2020 10:05:00 4.2 C 84 % 1.74 C
1563 26-02-2020 10:10:00 4.2 C 84 % 1.74 C
1564 26-02-2020 10:15:00 4.2 C 84 % 1.74 C
1565 26-02-2020 10:20:00 4.2 C 84 % 1.74 C
1566 26-02-2020 10:25:00 4.2 C 85 % 1.91 C
1567 26-02-2020 10:30:00 4.1 C 86 % 1.97 C
1568 26-02-2020 10:35:00 4.2 C 85 % 1.91 C
1569 26-02-2020 10:40:00 4.2 C 86 % 2.07 C
1570 26-02-2020 10:45:00 4.3 C 85 % 2.01 C
1571 26-02-2020 10:50:00 4.4 C 85 % 2.11 C
1572 26-02-2020 10:55:00 4.6 C 84 % 2.14 C
1573 26-02-2020 11:00:00 4.7 C 84 % 2.23 C
1574 26-02-2020 11:05:00 4.8 C 83 % 2.16 C
1575 26-02-2020 11:10:00 4.9 C 82 % 2.09 C
Sensor: Nr:Datum:Temp:Feuchte:Taupunkt:
Aussen-T/F 1576 26-02-2020 11:15:00 5 C 81 % 2.02 C
1577 26-02-2020 11:20:00 5.1 C 80 % 1.94 C
1578 26-02-2020 11:25:00 5.2 C 81 % 2.21 C
1579 26-02-2020 11:30:00 5.3 C 81 % 2.31 C
1580 26-02-2020 11:35:00 5.4 C 80 % 2.23 C
1581 26-02-2020 11:40:00 5.5 C 79 % 2.16 C
1582 26-02-2020 11:45:00 5.6 C 79 % 2.25 C
1583 26-02-2020 11:50:00 5.6 C 79 % 2.25 C
1584 26-02-2020 11:55:00 5.7 C 78 % 2.17 C
1585 26-02-2020 12:00:00 5.9 C 79 % 2.54 C
1586 26-02-2020 12:05:00 6 C 78 % 2.46 C
1587 26-02-2020 12:10:00 6.1 C 78 % 2.56 C
1588 26-02-2020 12:15:00 6.1 C 78 % 2.56 C
1589 26-02-2020 12:20:00 6.2 C 78 % 2.66 C
1590 26-02-2020 12:25:00 6.1 C 76 % 2.2 C
1591 26-02-2020 12:30:00 6.1 C 77 % 2.38 C
1592 26-02-2020 12:35:00 6 C 77 % 2.28 C
1593 26-02-2020 12:40:00 5.9 C 77 % 2.19 C
1594 26-02-2020 12:45:00 5.9 C 77 % 2.19 C
1595 26-02-2020 12:50:00 5.9 C 76 % 2 C
1596 26-02-2020 12:55:00 6.1 C 76 % 2.2 C
1597 26-02-2020 13:00:00 6.3 C 75 % 2.2 C
1598 26-02-2020 13:05:00 6.4 C 75 % 2.3 C
1599 26-02-2020 13:10:00 6.3 C 74 % 2.02 C
1600 26-02-2020 13:15:00 6.3 C 75 % 2.2 C
Sensor: Nr:Datum:Temp:Feuchte:Taupunkt:
Aussen-T/F 1601 26-02-2020 13:20:00 6.3 C 75 % 2.2 C
1602 26-02-2020 13:25:00 6.1 C 77 % 2.38 C
1603 26-02-2020 13:30:00 5.8 C 79 % 2.45 C
1604 26-02-2020 13:35:00 5.7 C 78 % 2.17 C
1605 26-02-2020 13:40:00 5.7 C 79 % 2.35 C
1606 26-02-2020 13:45:00 5.7 C 80 % 2.53 C
1607 26-02-2020 13:50:00 5.8 C 80 % 2.62 C
1608 26-02-2020 13:55:00 5.7 C 79 % 2.35 C
1609 26-02-2020 14:00:00 5.7 C 80 % 2.53 C
1610 26-02-2020 14:05:00 5.7 C 81 % 2.7 C
1611 26-02-2020 14:10:00 5.6 C 81 % 2.6 C
1612 26-02-2020 14:15:00 5.6 C 81 % 2.6 C
1613 26-02-2020 14:20:00 5.7 C 81 % 2.7 C
1614 26-02-2020 14:25:00 5.6 C 81 % 2.6 C
1615 26-02-2020 14:30:00 5.6 C 81 % 2.6 C
1616 26-02-2020 14:35:00 5.6 C 82 % 2.78 C
1617 26-02-2020 14:40:00 5.7 C 83 % 3.04 C
1618 26-02-2020 14:45:00 5.8 C 81 % 2.8 C
1619 26-02-2020 14:50:00 5.8 C 81 % 2.8 C
1620 26-02-2020 14:55:00 5.9 C 80 % 2.72 C
1621 26-02-2020 15:00:00 5.9 C 80 % 2.72 C
1622 26-02-2020 15:05:00 6.1 C 81 % 3.09 C
1623 26-02-2020 15:10:00 6 C 81 % 2.99 C
1624 26-02-2020 15:15:00 6.1 C 81 % 3.09 C
1625 26-02-2020 15:20:00 6.2 C 80 % 3.01 C
Sensor: Nr:Datum:Temp:Feuchte:Taupunkt:
Aussen-T/F 1626 26-02-2020 15:25:00 6.3 C 79 % 2.93 C
1627 26-02-2020 15:30:00 6.5 C 78 % 2.95 C
1628 26-02-2020 15:35:00 6.7 C 77 % 2.96 C
1629 26-02-2020 15:40:00 6.6 C 76 % 2.68 C
1630 26-02-2020 15:45:00 6.5 C 74 % 2.21 C
1631 26-02-2020 15:50:00 6.3 C 75 % 2.2 C
1632 26-02-2020 15:55:00 6.2 C 74 % 1.92 C
1633 26-02-2020 16:00:00 6.1 C 74 % 1.82 C
1634 26-02-2020 16:05:00 6.1 C 75 % 2.01 C
1635 26-02-2020 16:10:00 6.1 C 73 % 1.63 C
1636 26-02-2020 16:15:00 6.1 C 75 % 2.01 C
1637 26-02-2020 16:20:00 6 C 75 % 1.91 C
1638 26-02-2020 16:25:00 5.9 C 75 % 1.82 C
1639 26-02-2020 16:30:00 5.9 C 75 % 1.82 C
1640 26-02-2020 16:35:00 5.9 C 75 % 1.82 C
1641 26-02-2020 16:40:00 5.8 C 75 % 1.72 C
1642 26-02-2020 16:45:00 5.9 C 75 % 1.82 C
1643 26-02-2020 16:50:00 5.9 C 75 % 1.82 C
1644 26-02-2020 16:55:00 5.9 C 76 % 2 C
1645 26-02-2020 17:00:00 5.8 C 76 % 1.91 C
1646 26-02-2020 17:05:00 5.8 C 76 % 1.91 C
1647 26-02-2020 17:10:00 5.8 C 75 % 1.72 C
1648 26-02-2020 17:15:00 5.7 C 75 % 1.62 C
1649 26-02-2020 17:20:00 5.6 C 75 % 1.53 C
1650 26-02-2020 17:25:00 5.6 C 75 % 1.53 C
Sensor: Nr:Datum:Temp:Feuchte:Taupunkt:
Aussen-T/F 1651 26-02-2020 17:30:00 5.6 C 75 % 1.53 C
1652 26-02-2020 17:35:00 5.5 C 75 % 1.43 C
1653 26-02-2020 17:40:00 5.4 C 75 % 1.33 C
1654 26-02-2020 17:45:00 5.4 C 75 % 1.33 C
1655 26-02-2020 17:50:00 5.3 C 76 % 1.42 C
1656 26-02-2020 17:55:00 5.1 C 77 % 1.41 C
1657 26-02-2020 18:00:00 4.9 C 78 % 1.39 C
1658 26-02-2020 18:05:00 4.8 C 78 % 1.3 C
1659 26-02-2020 18:10:00 4.7 C 79 % 1.38 C
1660 26-02-2020 18:15:00 4.6 C 79 % 1.28 C
1661 26-02-2020 18:20:00 4.4 C 80 % 1.26 C
1662 26-02-2020 18:25:00 4.4 C 80 % 1.26 C
1663 26-02-2020 18:30:00 4.4 C 79 % 1.09 C
1664 26-02-2020 18:35:00 4.4 C 80 % 1.26 C
1665 26-02-2020 18:40:00 4.4 C 80 % 1.26 C
1666 26-02-2020 18:45:00 4.4 C 80 % 1.26 C
1667 26-02-2020 18:50:00 4.5 C 80 % 1.36 C
1668 26-02-2020 18:55:00 4.5 C 80 % 1.36 C
1669 26-02-2020 19:00:00 4.6 C 80 % 1.46 C
1670 26-02-2020 19:05:00 4.5 C 80 % 1.36 C
1671 26-02-2020 19:10:00 4.5 C 80 % 1.36 C
1672 26-02-2020 19:15:00 4.5 C 81 % 1.53 C
1673 26-02-2020 19:20:00 4.5 C 81 % 1.53 C
1674 26-02-2020 19:25:00 4.5 C 82 % 1.7 C
1675 26-02-2020 19:30:00 4.4 C 82 % 1.6 C
Sensor: Nr:Datum:Temp:Feuchte:Taupunkt:
Aussen-T/F 1676 26-02-2020 19:35:00 4.4 C 82 % 1.6 C
1677 26-02-2020 19:40:00 4.4 C 82 % 1.6 C
1678 26-02-2020 19:45:00 4.3 C 83 % 1.67 C
1679 26-02-2020 19:50:00 4.3 C 83 % 1.67 C
1680 26-02-2020 19:55:00 4.2 C 83 % 1.58 C
1681 26-02-2020 20:00:00 4.2 C 83 % 1.58 C
1682 26-02-2020 20:05:00 4.1 C 83 % 1.48 C
1683 26-02-2020 20:10:00 3.9 C 83 % 1.28 C
1684 26-02-2020 20:15:00 3.8 C 83 % 1.19 C
1685 26-02-2020 20:20:00 3.8 C 83 % 1.19 C
1686 26-02-2020 20:25:00 3.9 C 83 % 1.28 C
1687 26-02-2020 20:30:00 4 C 82 % 1.21 C
1688 26-02-2020 20:35:00 4.1 C 82 % 1.31 C
1689 26-02-2020 20:40:00 4.1 C 82 % 1.31 C
1690 26-02-2020 20:45:00 4.1 C 82 % 1.31 C
1691 26-02-2020 20:50:00 4.1 C 82 % 1.31 C
1692 26-02-2020 20:55:00 4.1 C 83 % 1.48 C
1693 26-02-2020 21:00:00 4.1 C 83 % 1.48 C
1694 26-02-2020 21:05:00 4.1 C 83 % 1.48 C
1695 26-02-2020 21:10:00 4.1 C 84 % 1.65 C
1696 26-02-2020 21:15:00 4.1 C 83 % 1.48 C
1697 26-02-2020 21:20:00 4.1 C 83 % 1.48 C
1698 26-02-2020 21:25:00 4 C 84 % 1.55 C
1699 26-02-2020 21:30:00 3.9 C 84 % 1.45 C
1700 26-02-2020 21:35:00 3.9 C 83 % 1.28 C
Sensor: Nr:Datum:Temp:Feuchte:Taupunkt:
Aussen-T/F 1701 26-02-2020 21:40:00 3.9 C 84 % 1.45 C
1702 26-02-2020 21:45:00 3.9 C 84 % 1.45 C
1703 26-02-2020 21:50:00 3.9 C 84 % 1.45 C
1704 26-02-2020 21:55:00 3.9 C 84 % 1.45 C
1705 26-02-2020 22:00:00 3.9 C 84 % 1.45 C
1706 26-02-2020 22:05:00 3.9 C 84 % 1.45 C
1707 26-02-2020 22:10:00 3.9 C 84 % 1.45 C
1708 26-02-2020 22:15:00 3.9 C 84 % 1.45 C
1709 26-02-2020 22:20:00 3.9 C 85 % 1.61 C
1710 26-02-2020 22:25:00 3.9 C 85 % 1.61 C
1711 26-02-2020 22:30:00 3.9 C 85 % 1.61 C
1712 26-02-2020 22:35:00 3.9 C 85 % 1.61 C
1713 26-02-2020 22:40:00 3.9 C 85 % 1.61 C
1714 26-02-2020 22:45:00 3.9 C 86 % 1.78 C
1715 26-02-2020 22:50:00 3.9 C 86 % 1.78 C
1716 26-02-2020 22:55:00 3.9 C 86 % 1.78 C
1717 26-02-2020 23:00:00 3.9 C 86 % 1.78 C
1718 26-02-2020 23:05:00 3.9 C 86 % 1.78 C
1719 26-02-2020 23:10:00 3.8 C 87 % 1.84 C
1720 26-02-2020 23:15:00 3.8 C 87 % 1.84 C
1721 26-02-2020 23:20:00 3.7 C 87 % 1.74 C
1722 26-02-2020 23:25:00 3.7 C 86 % 1.58 C
1723 26-02-2020 23:30:00 3.6 C 86 % 1.48 C
1724 26-02-2020 23:35:00 3.5 C 86 % 1.38 C
1725 26-02-2020 23:40:00 3.4 C 87 % 1.45 C
Sensor: Nr:Datum:Temp:Feuchte:Taupunkt:
Aussen-T/F 1726 26-02-2020 23:45:00 3.4 C 87 % 1.45 C
1727 26-02-2020 23:50:00 3.4 C 87 % 1.45 C
1728 26-02-2020 23:55:00 3.4 C 87 % 1.45 C
1729 27-02-2020 00:00:00 3.4 C 86 % 1.29 C
1730 27-02-2020 00:05:00 3.4 C 86 % 1.29 C
1731 27-02-2020 00:10:00 3.4 C 86 % 1.29 C
1732 27-02-2020 00:15:00 3.5 C 86 % 1.38 C
1733 27-02-2020 00:20:00 3.5 C 86 % 1.38 C
1734 27-02-2020 00:25:00 3.5 C 86 % 1.38 C
1735 27-02-2020 00:30:00 3.4 C 86 % 1.29 C
1736 27-02-2020 00:35:00 3.5 C 86 % 1.38 C
1737 27-02-2020 00:40:00 3.6 C 86 % 1.48 C
1738 27-02-2020 00:45:00 3.6 C 86 % 1.48 C
1739 27-02-2020 00:50:00 3.6 C 86 % 1.48 C
1740 27-02-2020 00:55:00 3.6 C 86 % 1.48 C
1741 27-02-2020 01:00:00 3.5 C 86 % 1.38 C
1742 27-02-2020 01:05:00 3.4 C 86 % 1.29 C
1743 27-02-2020 01:10:00 3.3 C 86 % 1.19 C
1744 27-02-2020 01:15:00 3.2 C 86 % 1.09 C
1745 27-02-2020 01:20:00 3.1 C 86 % 0.99 C
1746 27-02-2020 01:25:00 3 C 86 % 0.89 C
1747 27-02-2020 01:30:00 2.9 C 87 % 0.96 C
1748 27-02-2020 01:35:00 2.8 C 87 % 0.86 C
1749 27-02-2020 01:40:00 2.7 C 87 % 0.76 C
1750 27-02-2020 01:45:00 2.7 C 88 % 0.92 C
Sensor: Nr:Datum:Temp:Feuchte:Taupunkt:
Aussen-T/F 1751 27-02-2020 01:50:00 2.8 C 88 % 1.02 C
1752 27-02-2020 01:55:00 2.8 C 88 % 1.02 C
1753 27-02-2020 02:00:00 3 C 88 % 1.21 C
1754 27-02-2020 02:05:00 3.1 C 87 % 1.15 C
1755 27-02-2020 02:10:00 3.2 C 87 % 1.25 C
1756 27-02-2020 02:15:00 3.1 C 87 % 1.15 C
1757 27-02-2020 02:20:00 3.2 C 87 % 1.25 C
1758 27-02-2020 02:25:00 3.3 C 87 % 1.35 C
1759 27-02-2020 02:30:00 3.3 C 86 % 1.19 C
1760 27-02-2020 02:35:00 3.3 C 86 % 1.19 C
1761 27-02-2020 02:40:00 3.2 C 86 % 1.09 C
1762 27-02-2020 02:45:00 3.2 C 87 % 1.25 C
1763 27-02-2020 02:50:00 3.2 C 87 % 1.25 C
1764 27-02-2020 02:55:00 3.2 C 87 % 1.25 C
1765 27-02-2020 03:00:00 3.4 C 87 % 1.45 C
1766 27-02-2020 03:05:00 3.6 C 86 % 1.48 C
1767 27-02-2020 03:10:00 3.7 C 86 % 1.58 C
1768 27-02-2020 03:15:00 3.7 C 87 % 1.74 C
1769 27-02-2020 03:20:00 3.7 C 88 % 1.9 C
1770 27-02-2020 03:25:00 3.6 C 89 % 1.96 C
1771 27-02-2020 03:30:00 3.5 C 89 % 1.86 C
1772 27-02-2020 03:35:00 3.4 C 89 % 1.76 C
1773 27-02-2020 03:40:00 3.4 C 89 % 1.76 C
1774 27-02-2020 03:45:00 3.4 C 89 % 1.76 C
1775 27-02-2020 03:50:00 3.4 C 89 % 1.76 C
Sensor: Nr:Datum:Temp:Feuchte:Taupunkt:
Aussen-T/F 1776 27-02-2020 03:55:00 3.4 C 89 % 1.76 C
1777 27-02-2020 04:00:00 3.4 C 89 % 1.76 C
1778 27-02-2020 04:05:00 3.4 C 89 % 1.76 C
1779 27-02-2020 04:10:00 3.4 C 89 % 1.76 C
1780 27-02-2020 04:15:00 3.3 C 89 % 1.67 C
1781 27-02-2020 04:20:00 3.3 C 89 % 1.67 C
1782 27-02-2020 04:25:00 3.3 C 89 % 1.67 C
1783 27-02-2020 04:30:00 3.3 C 89 % 1.67 C
1784 27-02-2020 04:35:00 3.3 C 89 % 1.67 C
1785 27-02-2020 04:40:00 3.3 C 88 % 1.51 C
1786 27-02-2020 04:45:00 3.3 C 88 % 1.51 C
1787 27-02-2020 04:50:00 3.2 C 88 % 1.41 C
1788 27-02-2020 04:55:00 3.1 C 88 % 1.31 C
1789 27-02-2020 05:00:00 3 C 88 % 1.21 C
1790 27-02-2020 05:05:00 2.9 C 89 % 1.27 C
1791 27-02-2020 05:10:00 2.8 C 89 % 1.17 C
1792 27-02-2020 05:15:00 2.8 C 89 % 1.17 C
1793 27-02-2020 05:20:00 2.8 C 89 % 1.17 C
1794 27-02-2020 05:25:00 2.7 C 89 % 1.07 C
1795 27-02-2020 05:30:00 2.7 C 89 % 1.07 C
1796 27-02-2020 05:35:00 2.6 C 90 % 1.13 C
1797 27-02-2020 05:40:00 2.6 C 90 % 1.13 C
1798 27-02-2020 05:45:00 2.6 C 90 % 1.13 C
1799 27-02-2020 05:50:00 2.6 C 90 % 1.13 C
1800 27-02-2020 05:55:00 2.6 C 90 % 1.13 C
Sensor: Nr:Datum:Temp:Feuchte:Taupunkt:
Aussen-T/F 1801 27-02-2020 06:00:00 2.6 C 90 % 1.13 C
1802 27-02-2020 06:05:00 2.6 C 89 % 0.97 C
1803 27-02-2020 06:10:00 2.6 C 89 % 0.97 C
1804 27-02-2020 06:15:00 2.6 C 89 % 0.97 C
1805 27-02-2020 06:20:00 2.7 C 89 % 1.07 C
1806 27-02-2020 06:25:00 2.7 C 88 % 0.92 C
1807 27-02-2020 06:30:00 2.8 C 88 % 1.02 C
1808 27-02-2020 06:35:00 2.8 C 88 % 1.02 C
1809 27-02-2020 06:40:00 2.8 C 87 % 0.86 C
1810 27-02-2020 06:45:00 2.8 C 87 % 0.86 C
1811 27-02-2020 06:50:00 2.8 C 87 % 0.86 C
1812 27-02-2020 06:55:00 2.9 C 87 % 0.96 C
1813 27-02-2020 07:00:00 2.9 C 87 % 0.96 C
1814 27-02-2020 07:05:00 2.9 C 87 % 0.96 C
1815 27-02-2020 07:10:00 3 C 87 % 1.05 C
1816 27-02-2020 07:15:00 3.1 C 87 % 1.15 C
1817 27-02-2020 07:20:00 3.1 C 87 % 1.15 C
1818 27-02-2020 07:25:00 3.1 C 87 % 1.15 C
1819 27-02-2020 07:30:00 3.1 C 88 % 1.31 C
1820 27-02-2020 07:35:00 3.1 C 88 % 1.31 C
1821 27-02-2020 07:40:00 3.1 C 88 % 1.31 C
1822 27-02-2020 07:45:00 3.2 C 87 % 1.25 C
1823 27-02-2020 07:50:00 3.2 C 87 % 1.25 C
1824 27-02-2020 07:55:00 3.2 C 87 % 1.25 C
1825 27-02-2020 08:00:00 3.2 C 88 % 1.41 C
Sensor: Nr:Datum:Temp:Feuchte:Taupunkt:
Aussen-T/F 1826 27-02-2020 08:05:00 3.3 C 88 % 1.51 C
1827 27-02-2020 08:10:00 3.3 C 88 % 1.51 C
1828 27-02-2020 08:15:00 3.3 C 88 % 1.51 C
1829 27-02-2020 08:20:00 3.4 C 89 % 1.76 C
1830 27-02-2020 08:25:00 3.4 C 89 % 1.76 C
1831 27-02-2020 08:30:00 3.5 C 89 % 1.86 C
1832 27-02-2020 08:35:00 3.6 C 89 % 1.96 C
1833 27-02-2020 08:40:00 3.7 C 89 % 2.06 C
1834 27-02-2020 08:45:00 3.7 C 89 % 2.06 C
1835 27-02-2020 08:50:00 3.8 C 88 % 2 C
1836 27-02-2020 08:55:00 3.9 C 87 % 1.94 C
1837 27-02-2020 09:00:00 4 C 87 % 2.04 C
1838 27-02-2020 09:05:00 4.2 C 86 % 2.07 C
1839 27-02-2020 09:10:00 4.3 C 86 % 2.17 C
1840 27-02-2020 09:15:00 4.4 C 86 % 2.27 C
1841 27-02-2020 09:20:00 4.5 C 86 % 2.37 C
1842 27-02-2020 09:25:00 4.6 C 85 % 2.3 C
1843 27-02-2020 09:30:00 4.7 C 84 % 2.23 C
1844 27-02-2020 09:35:00 4.8 C 83 % 2.16 C
1845 27-02-2020 09:40:00 4.8 C 83 % 2.16 C
1846 27-02-2020 09:45:00 4.9 C 83 % 2.26 C
1847 27-02-2020 09:50:00 4.9 C 83 % 2.26 C
1848 27-02-2020 09:55:00 5.1 C 83 % 2.46 C
1849 27-02-2020 10:00:00 5.1 C 83 % 2.46 C
1850 27-02-2020 10:05:00 5.2 C 82 % 2.39 C
Sensor: Nr:Datum:Temp:Feuchte:Taupunkt:
Aussen-T/F 1851 27-02-2020 10:10:00 5.2 C 82 % 2.39 C
1852 27-02-2020 10:15:00 5.2 C 81 % 2.21 C
1853 27-02-2020 10:20:00 5.3 C 81 % 2.31 C
1854 27-02-2020 10:25:00 5.3 C 81 % 2.31 C
1855 27-02-2020 10:30:00 5.3 C 80 % 2.14 C
1856 27-02-2020 10:35:00 5.4 C 80 % 2.23 C
1857 27-02-2020 10:40:00 5.4 C 80 % 2.23 C
1858 27-02-2020 10:45:00 5.5 C 81 % 2.51 C
1859 27-02-2020 10:50:00 5.5 C 80 % 2.33 C
1860 27-02-2020 10:55:00 5.6 C 80 % 2.43 C
1861 27-02-2020 11:00:00 5.5 C 80 % 2.33 C
1862 27-02-2020 11:05:00 5.4 C 80 % 2.23 C
1863 27-02-2020 11:10:00 5.4 C 81 % 2.41 C
1864 27-02-2020 11:15:00 5.3 C 81 % 2.31 C
1865 27-02-2020 11:20:00 5.3 C 82 % 2.48 C
1866 27-02-2020 11:25:00 5.1 C 83 % 2.46 C
1867 27-02-2020 11:30:00 4.9 C 84 % 2.43 C
1868 27-02-2020 11:35:00 4.7 C 85 % 2.4 C
1869 27-02-2020 11:40:00 4.7 C 85 % 2.4 C
1870 27-02-2020 11:45:00 4.6 C 86 % 2.47 C
1871 27-02-2020 11:50:00 4.6 C 87 % 2.63 C
1872 27-02-2020 11:55:00 4.6 C 87 % 2.63 C
1873 27-02-2020 12:00:00 4.6 C 87 % 2.63 C
1874 27-02-2020 12:05:00 4.6 C 88 % 2.79 C
1875 27-02-2020 12:10:00 4.6 C 88 % 2.79 C
Sensor: Nr:Datum:Temp:Feuchte:Taupunkt:
Aussen-T/F 1876 27-02-2020 12:15:00 4.6 C 88 % 2.79 C
1877 27-02-2020 12:20:00 4.6 C 89 % 2.95 C
1878 27-02-2020 12:25:00 4.6 C 89 % 2.95 C
1879 27-02-2020 12:30:00 4.5 C 89 % 2.85 C
1880 27-02-2020 12:35:00 4.4 C 89 % 2.75 C
1881 27-02-2020 12:40:00 4.4 C 89 % 2.75 C
1882 27-02-2020 12:45:00 4.3 C 89 % 2.65 C
1883 27-02-2020 12:50:00 4.3 C 90 % 2.81 C
1884 27-02-2020 12:55:00 4.2 C 90 % 2.71 C
1885 27-02-2020 13:00:00 4.1 C 90 % 2.61 C
1886 27-02-2020 13:05:00 4.1 C 90 % 2.61 C
1887 27-02-2020 13:10:00 4 C 91 % 2.67 C
1888 27-02-2020 13:15:00 3.9 C 91 % 2.57 C
1889 27-02-2020 13:20:00 3.9 C 91 % 2.57 C
1890 27-02-2020 13:25:00 3.8 C 91 % 2.47 C
1891 27-02-2020 13:30:00 3.7 C 92 % 2.52 C
1892 27-02-2020 13:35:00 3.6 C 92 % 2.42 C
1893 27-02-2020 13:40:00 3.5 C 91 % 2.17 C
1894 27-02-2020 13:45:00 3.4 C 92 % 2.23 C
1895 27-02-2020 13:50:00 3.4 C 92 % 2.23 C
1896 27-02-2020 13:55:00 3.3 C 92 % 2.13 C
1897 27-02-2020 14:00:00 3.3 C 93 % 2.28 C
1898 27-02-2020 14:05:00 3.3 C 93 % 2.28 C
1899 27-02-2020 14:10:00 3.3 C 93 % 2.28 C
1900 27-02-2020 14:15:00 3.3 C 93 % 2.28 C
Sensor: Nr:Datum:Temp:Feuchte:Taupunkt:
Aussen-T/F 1901 27-02-2020 14:20:00 3.3 C 93 % 2.28 C
1902 27-02-2020 14:25:00 3.3 C 93 % 2.28 C
1903 27-02-2020 14:30:00 3.2 C 93 % 2.18 C
1904 27-02-2020 14:35:00 3.2 C 94 % 2.33 C
1905 27-02-2020 14:40:00 3.2 C 94 % 2.33 C
1906 27-02-2020 14:45:00 3.2 C 93 % 2.18 C
1907 27-02-2020 14:50:00 3.1 C 94 % 2.23 C
1908 27-02-2020 14:55:00 3.1 C 93 % 2.08 C
1909 27-02-2020 15:00:00 3.1 C 94 % 2.23 C
1910 27-02-2020 15:05:00 3.1 C 94 % 2.23 C
1911 27-02-2020 15:10:00 3.1 C 94 % 2.23 C
1912 27-02-2020 15:15:00 3.1 C 94 % 2.23 C
1913 27-02-2020 15:20:00 3 C 94 % 2.13 C
1914 27-02-2020 15:25:00 3 C 94 % 2.13 C
1915 27-02-2020 15:30:00 3 C 94 % 2.13 C
1916 27-02-2020 15:35:00 3 C 94 % 2.13 C
1917 27-02-2020 15:40:00 2.9 C 94 % 2.03 C
1918 27-02-2020 15:45:00 2.9 C 94 % 2.03 C
1919 27-02-2020 15:50:00 2.8 C 94 % 1.93 C
1920 27-02-2020 15:55:00 2.8 C 94 % 1.93 C
1921 27-02-2020 16:00:00 2.7 C 94 % 1.83 C
1922 27-02-2020 16:05:00 2.6 C 94 % 1.73 C
1923 27-02-2020 16:10:00 2.6 C 94 % 1.73 C
1924 27-02-2020 16:15:00 2.5 C 94 % 1.63 C
1925 27-02-2020 16:20:00 2.4 C 94 % 1.54 C
Sensor: Nr:Datum:Temp:Feuchte:Taupunkt:
Aussen-T/F 1926 27-02-2020 16:25:00 2.3 C 94 % 1.44 C
1927 27-02-2020 16:30:00 2.2 C 94 % 1.34 C
1928 27-02-2020 16:35:00 2 C 94 % 1.14 C
1929 27-02-2020 16:40:00 1.8 C 94 % 0.94 C
1930 27-02-2020 16:45:00 1.7 C 94 % 0.84 C
1931 27-02-2020 16:50:00 1.6 C 94 % 0.74 C
1932 27-02-2020 16:55:00 1.5 C 94 % 0.64 C
1933 27-02-2020 17:00:00 1.4 C 94 % 0.54 C
1934 27-02-2020 17:05:00 1.3 C 94 % 0.44 C
1935 27-02-2020 17:10:00 1.3 C 94 % 0.44 C
1936 27-02-2020 17:15:00 1.2 C 94 % 0.34 C
1937 27-02-2020 17:20:00 1.2 C 94 % 0.34 C
1938 27-02-2020 17:25:00 1.2 C 94 % 0.34 C
1939 27-02-2020 17:30:00 1.1 C 94 % 0.24 C
1940 27-02-2020 17:35:00 1.1 C 95 % 0.39 C
1941 27-02-2020 17:40:00 1.1 C 95 % 0.39 C
1942 27-02-2020 17:45:00 1.1 C 95 % 0.39 C
1943 27-02-2020 17:50:00 1.1 C 95 % 0.39 C
1944 27-02-2020 17:55:00 1.1 C 95 % 0.39 C
1945 27-02-2020 18:00:00 1.1 C 95 % 0.39 C
1946 27-02-2020 18:05:00 1.1 C 95 % 0.39 C
1947 27-02-2020 18:10:00 1.1 C 95 % 0.39 C
1948 27-02-2020 18:15:00 1.1 C 95 % 0.39 C
1949 27-02-2020 18:20:00 1.1 C 95 % 0.39 C
1950 27-02-2020 18:25:00 1.1 C 95 % 0.39 C
Sensor: Nr:Datum:Temp:Feuchte:Taupunkt:
Aussen-T/F 1951 27-02-2020 18:30:00 1.2 C 96 % 0.63 C
1952 27-02-2020 18:35:00 1.3 C 96 % 0.73 C
1953 27-02-2020 18:40:00 1.3 C 96 % 0.73 C
1954 27-02-2020 18:45:00 1.3 C 96 % 0.73 C
1955 27-02-2020 18:50:00 1.2 C 95 % 0.49 C
1956 27-02-2020 18:55:00 1.2 C 95 % 0.49 C
1957 27-02-2020 19:00:00 1.3 C 96 % 0.73 C
1958 27-02-2020 19:05:00 1.4 C 96 % 0.83 C
1959 27-02-2020 19:10:00 1.5 C 96 % 0.93 C
1960 27-02-2020 19:15:00 1.6 C 96 % 1.03 C
1961 27-02-2020 19:20:00 1.6 C 96 % 1.03 C
1962 27-02-2020 19:25:00 1.6 C 96 % 1.03 C
1963 27-02-2020 19:30:00 1.6 C 96 % 1.03 C
1964 27-02-2020 19:35:00 1.6 C 96 % 1.03 C
1965 27-02-2020 19:40:00 1.7 C 96 % 1.13 C
1966 27-02-2020 19:45:00 1.7 C 96 % 1.13 C
1967 27-02-2020 19:50:00 1.7 C 96 % 1.13 C
1968 27-02-2020 19:55:00 1.7 C 95 % 0.99 C
1969 27-02-2020 20:00:00 1.7 C 95 % 0.99 C
1970 27-02-2020 20:05:00 1.8 C 95 % 1.09 C
1971 27-02-2020 20:10:00 1.8 C 95 % 1.09 C
1972 27-02-2020 20:15:00 1.8 C 95 % 1.09 C
1973 27-02-2020 20:20:00 1.7 C 95 % 0.99 C
1974 27-02-2020 20:25:00 1.7 C 95 % 0.99 C
1975 27-02-2020 20:30:00 1.7 C 95 % 0.99 C
Sensor: Nr:Datum:Temp:Feuchte:Taupunkt:
Aussen-T/F 1976 27-02-2020 20:35:00 1.7 C 95 % 0.99 C
1977 27-02-2020 20:40:00 1.7 C 95 % 0.99 C
1978 27-02-2020 20:45:00 1.7 C 95 % 0.99 C
1979 27-02-2020 20:50:00 1.7 C 95 % 0.99 C
1980 27-02-2020 20:55:00 1.7 C 95 % 0.99 C
1981 27-02-2020 21:00:00 1.6 C 95 % 0.89 C
1982 27-02-2020 21:05:00 1.7 C 95 % 0.99 C
1983 27-02-2020 21:10:00 1.7 C 95 % 0.99 C
1984 27-02-2020 21:15:00 1.7 C 95 % 0.99 C
1985 27-02-2020 21:20:00 1.7 C 95 % 0.99 C
1986 27-02-2020 21:25:00 1.7 C 95 % 0.99 C
1987 27-02-2020 21:30:00 1.7 C 95 % 0.99 C
1988 27-02-2020 21:35:00 1.7 C 95 % 0.99 C
1989 27-02-2020 21:40:00 1.7 C 95 % 0.99 C
1990 27-02-2020 21:45:00 1.7 C 95 % 0.99 C
1991 27-02-2020 21:50:00 1.7 C 95 % 0.99 C
1992 27-02-2020 21:55:00 1.7 C 95 % 0.99 C
1993 27-02-2020 22:00:00 1.7 C 95 % 0.99 C
1994 27-02-2020 22:05:00 1.7 C 95 % 0.99 C
1995 27-02-2020 22:10:00 1.7 C 95 % 0.99 C
1996 27-02-2020 22:15:00 1.6 C 95 % 0.89 C
1997 27-02-2020 22:20:00 1.6 C 95 % 0.89 C
1998 27-02-2020 22:25:00 1.6 C 95 % 0.89 C
1999 27-02-2020 22:30:00 1.6 C 96 % 1.03 C
2000 27-02-2020 22:35:00 1.7 C 96 % 1.13 C
Sensor: Nr:Datum:Temp:Feuchte:Taupunkt:
Aussen-T/F 2001 27-02-2020 22:40:00 1.8 C 96 % 1.23 C
2002 27-02-2020 22:45:00 1.9 C 96 % 1.33 C
2003 27-02-2020 22:50:00 1.9 C 96 % 1.33 C
2004 27-02-2020 22:55:00 1.9 C 96 % 1.33 C
2005 27-02-2020 23:00:00 1.9 C 96 % 1.33 C
2006 27-02-2020 23:05:00 2.1 C 96 % 1.53 C
2007 27-02-2020 23:10:00 2.1 C 96 % 1.53 C
2008 27-02-2020 23:15:00 2.2 C 95 % 1.48 C
2009 27-02-2020 23:20:00 2.2 C 96 % 1.63 C
2010 27-02-2020 23:25:00 2.3 C 95 % 1.58 C
2011 27-02-2020 23:30:00 2.3 C 95 % 1.58 C
2012 27-02-2020 23:35:00 2.4 C 95 % 1.68 C
2013 27-02-2020 23:40:00 2.5 C 95 % 1.78 C
2014 27-02-2020 23:45:00 2.5 C 95 % 1.78 C
2015 27-02-2020 23:50:00 2.6 C 94 % 1.73 C
2016 27-02-2020 23:55:00 2.6 C 94 % 1.73 C
2017 28-02-2020 00:00:00 2.7 C 94 % 1.83 C
2018 28-02-2020 00:05:00 2.7 C 93 % 1.68 C
2019 28-02-2020 00:10:00 2.7 C 93 % 1.68 C
2020 28-02-2020 00:15:00 2.8 C 93 % 1.78 C
2021 28-02-2020 00:20:00 2.8 C 92 % 1.63 C
2022 28-02-2020 00:25:00 2.8 C 92 % 1.63 C
2023 28-02-2020 00:30:00 2.8 C 92 % 1.63 C
2024 28-02-2020 00:35:00 2.8 C 92 % 1.63 C
2025 28-02-2020 00:40:00 2.8 C 92 % 1.63 C
Sensor: Nr:Datum:Temp:Feuchte:Taupunkt:
Aussen-T/F 2026 28-02-2020 00:45:00 2.7 C 93 % 1.68 C
2027 28-02-2020 00:50:00 2.7 C 93 % 1.68 C
2028 28-02-2020 00:55:00 2.7 C 93 % 1.68 C
2029 28-02-2020 01:00:00 2.7 C 93 % 1.68 C
2030 28-02-2020 01:05:00 2.7 C 93 % 1.68 C
2031 28-02-2020 01:10:00 2.6 C 93 % 1.59 C
2032 28-02-2020 01:15:00 2.5 C 93 % 1.49 C
2033 28-02-2020 01:20:00 2.4 C 93 % 1.39 C
2034 28-02-2020 01:25:00 2.4 C 94 % 1.54 C
2035 28-02-2020 01:30:00 2.3 C 94 % 1.44 C
2036 28-02-2020 01:35:00 2.3 C 94 % 1.44 C
2037 28-02-2020 01:40:00 2.3 C 94 % 1.44 C
2038 28-02-2020 01:45:00 2.3 C 94 % 1.44 C
2039 28-02-2020 01:50:00 2.3 C 94 % 1.44 C
2040 28-02-2020 01:55:00 2.3 C 94 % 1.44 C
2041 28-02-2020 02:00:00 2.3 C 94 % 1.44 C
2042 28-02-2020 02:05:00 2.3 C 94 % 1.44 C
2043 28-02-2020 02:10:00 2.2 C 94 % 1.34 C
2044 28-02-2020 02:15:00 2.2 C 94 % 1.34 C
2045 28-02-2020 02:20:00 2.2 C 94 % 1.34 C
2046 28-02-2020 02:25:00 2.2 C 95 % 1.48 C
2047 28-02-2020 02:30:00 2.1 C 94 % 1.24 C
2048 28-02-2020 02:35:00 2.1 C 94 % 1.24 C
2049 28-02-2020 02:40:00 2.1 C 94 % 1.24 C
2050 28-02-2020 02:45:00 2.1 C 94 % 1.24 C
Sensor: Nr:Datum:Temp:Feuchte:Taupunkt:
Aussen-T/F 2051 28-02-2020 02:50:00 2.1 C 94 % 1.24 C
2052 28-02-2020 02:55:00 2.1 C 94 % 1.24 C
2053 28-02-2020 03:00:00 2.1 C 94 % 1.24 C
2054 28-02-2020 03:05:00 2 C 94 % 1.14 C
2055 28-02-2020 03:10:00 2 C 94 % 1.14 C
2056 28-02-2020 03:15:00 2 C 94 % 1.14 C
2057 28-02-2020 03:20:00 2 C 94 % 1.14 C
2058 28-02-2020 03:25:00 1.9 C 94 % 1.04 C
2059 28-02-2020 03:30:00 1.9 C 94 % 1.04 C
2060 28-02-2020 03:35:00 1.8 C 94 % 0.94 C
2061 28-02-2020 03:40:00 1.8 C 94 % 0.94 C
2062 28-02-2020 03:45:00 1.8 C 94 % 0.94 C
2063 28-02-2020 03:50:00 1.8 C 94 % 0.94 C
2064 28-02-2020 03:55:00 1.7 C 94 % 0.84 C
2065 28-02-2020 04:00:00 1.7 C 94 % 0.84 C
2066 28-02-2020 04:05:00 1.7 C 94 % 0.84 C
2067 28-02-2020 04:10:00 1.8 C 94 % 0.94 C
2068 28-02-2020 04:15:00 1.8 C 94 % 0.94 C
2069 28-02-2020 04:20:00 1.8 C 94 % 0.94 C
2070 28-02-2020 04:25:00 1.8 C 94 % 0.94 C
2071 28-02-2020 04:30:00 1.9 C 94 % 1.04 C
2072 28-02-2020 04:35:00 1.9 C 94 % 1.04 C
2073 28-02-2020 04:40:00 1.9 C 94 % 1.04 C
2074 28-02-2020 04:45:00 1.9 C 94 % 1.04 C
2075 28-02-2020 04:50:00 1.8 C 94 % 0.94 C
Sensor: Nr:Datum:Temp:Feuchte:Taupunkt:
Aussen-T/F 2076 28-02-2020 04:55:00 1.8 C 94 % 0.94 C
2077 28-02-2020 05:00:00 1.9 C 94 % 1.04 C
2078 28-02-2020 05:05:00 1.8 C 94 % 0.94 C
2079 28-02-2020 05:10:00 1.9 C 94 % 1.04 C
2080 28-02-2020 05:15:00 1.8 C 94 % 0.94 C
2081 28-02-2020 05:20:00 1.8 C 94 % 0.94 C
2082 28-02-2020 05:25:00 1.7 C 94 % 0.84 C
2083 28-02-2020 05:30:00 1.6 C 94 % 0.74 C
2084 28-02-2020 05:35:00 1.6 C 94 % 0.74 C
2085 28-02-2020 05:40:00 1.7 C 94 % 0.84 C
2086 28-02-2020 05:45:00 1.7 C 94 % 0.84 C
2087 28-02-2020 05:50:00 1.7 C 94 % 0.84 C
2088 28-02-2020 05:55:00 1.6 C 94 % 0.74 C
2089 28-02-2020 06:00:00 1.6 C 93 % 0.59 C
2090 28-02-2020 06:05:00 1.6 C 94 % 0.74 C
2091 28-02-2020 06:10:00 1.5 C 94 % 0.64 C
2092 28-02-2020 06:15:00 1.4 C 93 % 0.4 C
2093 28-02-2020 06:20:00 1.4 C 94 % 0.54 C
2094 28-02-2020 06:25:00 1.4 C 94 % 0.54 C
2095 28-02-2020 06:30:00 1.4 C 94 % 0.54 C
2096 28-02-2020 06:35:00 1.4 C 93 % 0.4 C
2097 28-02-2020 06:40:00 1.4 C 93 % 0.4 C
2098 28-02-2020 06:45:00 1.3 C 93 % 0.3 C
2099 28-02-2020 06:50:00 1.3 C 94 % 0.44 C
2100 28-02-2020 06:55:00 1.3 C 94 % 0.44 C
Sensor: Nr:Datum:Temp:Feuchte:Taupunkt:
Aussen-T/F 2101 28-02-2020 07:00:00 1.3 C 94 % 0.44 C
2102 28-02-2020 07:05:00 1.2 C 93 % 0.2 C
2103 28-02-2020 07:10:00 1.2 C 93 % 0.2 C
2104 28-02-2020 07:15:00 1.2 C 93 % 0.2 C
2105 28-02-2020 07:20:00 1.1 C 93 % 0.1 C
2106 28-02-2020 07:25:00 1.1 C 93 % 0.1 C
2107 28-02-2020 07:30:00 1.1 C 93 % 0.1 C
2108 28-02-2020 07:35:00 1.1 C 93 % 0.1 C
2109 28-02-2020 07:40:00 1.2 C 93 % 0.2 C
2110 28-02-2020 07:45:00 1.2 C 93 % 0.2 C
2111 28-02-2020 07:50:00 1.1 C 93 % 0.1 C
2112 28-02-2020 07:55:00 1.1 C 93 % 0.1 C
2113 28-02-2020 08:00:00 1.1 C 93 % 0.1 C
2114 28-02-2020 08:05:00 1.1 C 93 % 0.1 C
2115 28-02-2020 08:10:00 1 C 93 % 0 C
2116 28-02-2020 08:15:00 1.1 C 94 % 0.24 C
2117 28-02-2020 08:20:00 1.1 C 94 % 0.24 C
2118 28-02-2020 08:25:00 1.1 C 94 % 0.24 C
2119 28-02-2020 08:30:00 1.1 C 94 % 0.24 C
2120 28-02-2020 08:35:00 1.1 C 94 % 0.24 C
2121 28-02-2020 08:40:00 1.2 C 94 % 0.34 C
2122 28-02-2020 08:45:00 1.2 C 94 % 0.34 C
2123 28-02-2020 08:50:00 1.3 C 94 % 0.44 C
2124 28-02-2020 08:55:00 1.4 C 94 % 0.54 C
2125 28-02-2020 09:00:00 1.5 C 94 % 0.64 C
Sensor: Nr:Datum:Temp:Feuchte:Taupunkt:
Aussen-T/F 2126 28-02-2020 09:05:00 1.6 C 94 % 0.74 C
2127 28-02-2020 09:10:00 1.7 C 94 % 0.84 C
2128 28-02-2020 09:15:00 1.8 C 94 % 0.94 C
2129 28-02-2020 09:20:00 1.9 C 94 % 1.04 C
2130 28-02-2020 09:25:00 1.9 C 93 % 0.89 C
2131 28-02-2020 09:30:00 2 C 93 % 0.99 C
2132 28-02-2020 09:35:00 2.1 C 93 % 1.09 C
2133 28-02-2020 09:40:00 2.2 C 93 % 1.19 C
2134 28-02-2020 09:45:00 2.3 C 93 % 1.29 C
2135 28-02-2020 09:50:00 2.3 C 92 % 1.14 C
2136 28-02-2020 09:55:00 2.4 C 92 % 1.24 C
2137 28-02-2020 10:00:00 2.5 C 92 % 1.34 C
2138 28-02-2020 10:05:00 2.6 C 92 % 1.43 C
2139 28-02-2020 10:10:00 2.7 C 91 % 1.38 C
2140 28-02-2020 10:15:00 2.7 C 91 % 1.38 C
2141 28-02-2020 10:20:00 2.8 C 91 % 1.48 C
2142 28-02-2020 10:25:00 2.9 C 90 % 1.43 C
2143 28-02-2020 10:30:00 3.1 C 90 % 1.62 C
2144 28-02-2020 10:35:00 3.2 C 90 % 1.72 C
2145 28-02-2020 10:40:00 3.3 C 89 % 1.67 C
2146 28-02-2020 10:45:00 3.4 C 88 % 1.61 C
2147 28-02-2020 10:50:00 3.4 C 88 % 1.61 C
2148 28-02-2020 10:55:00 3.5 C 88 % 1.7 C
2149 28-02-2020 11:00:00 3.5 C 87 % 1.55 C
2150 28-02-2020 11:05:00 3.6 C 87 % 1.64 C
Sensor: Nr:Datum:Temp:Feuchte:Taupunkt:
Aussen-T/F 2151 28-02-2020 11:10:00 3.6 C 87 % 1.64 C
2152 28-02-2020 11:15:00 3.6 C 87 % 1.64 C
2153 28-02-2020 11:20:00 3.7 C 87 % 1.74 C
2154 28-02-2020 11:25:00 3.7 C 86 % 1.58 C
2155 28-02-2020 11:30:00 3.8 C 86 % 1.68 C
2156 28-02-2020 11:35:00 3.8 C 87 % 1.84 C
2157 28-02-2020 11:40:00 3.9 C 87 % 1.94 C
2158 28-02-2020 11:45:00 4 C 86 % 1.88 C
2159 28-02-2020 11:50:00 4.1 C 86 % 1.97 C
2160 28-02-2020 11:55:00 4.1 C 86 % 1.97 C
2161 28-02-2020 12:00:00 4.2 C 86 % 2.07 C
2162 28-02-2020 12:05:00 4.3 C 86 % 2.17 C
2163 28-02-2020 12:10:00 4.3 C 85 % 2.01 C
2164 28-02-2020 12:15:00 4.3 C 86 % 2.17 C
2165 28-02-2020 12:20:00 4.3 C 86 % 2.17 C
2166 28-02-2020 12:25:00 4.6 C 86 % 2.47 C
2167 28-02-2020 12:30:00 4.6 C 85 % 2.3 C
2168 28-02-2020 12:35:00 4.7 C 84 % 2.23 C
2169 28-02-2020 12:40:00 4.7 C 84 % 2.23 C
2170 28-02-2020 12:45:00 4.9 C 84 % 2.43 C
2171 28-02-2020 12:50:00 5.1 C 84 % 2.63 C
2172 28-02-2020 12:55:00 5.2 C 84 % 2.72 C
2173 28-02-2020 13:00:00 5.4 C 84 % 2.92 C
2174 28-02-2020 13:05:00 5.6 C 82 % 2.78 C
2175 28-02-2020 13:10:00 5.7 C 82 % 2.87 C
Sensor: Nr:Datum:Temp:Feuchte:Taupunkt:
Aussen-T/F 2176 28-02-2020 13:15:00 5.8 C 82 % 2.97 C
2177 28-02-2020 13:20:00 5.9 C 81 % 2.9 C
2178 28-02-2020 13:25:00 6 C 80 % 2.82 C
2179 28-02-2020 13:30:00 6.1 C 79 % 2.74 C
2180 28-02-2020 13:35:00 6.2 C 79 % 2.84 C
2181 28-02-2020 13:40:00 6.3 C 78 % 2.75 C
2182 28-02-2020 13:45:00 6.4 C 78 % 2.85 C
2183 28-02-2020 13:50:00 6.6 C 77 % 2.86 C
2184 28-02-2020 13:55:00 6.7 C 75 % 2.59 C
2185 28-02-2020 14:00:00 6.9 C 75 % 2.78 C
2186 28-02-2020 14:05:00 7.1 C 75 % 2.98 C
2187 28-02-2020 14:10:00 7.3 C 75 % 3.17 C
2188 28-02-2020 14:15:00 7.3 C 74 % 2.98 C
2189 28-02-2020 14:20:00 7.3 C 74 % 2.98 C
2190 28-02-2020 14:25:00 7.3 C 74 % 2.98 C
2191 28-02-2020 14:30:00 7.4 C 73 % 2.89 C
2192 28-02-2020 14:35:00 7.5 C 73 % 2.98 C
2193 28-02-2020 14:40:00 7.6 C 72 % 2.88 C
2194 28-02-2020 14:45:00 7.6 C 73 % 3.08 C
2195 28-02-2020 14:50:00 7.6 C 72 % 2.88 C
2196 28-02-2020 14:55:00 7.5 C 73 % 2.98 C
2197 28-02-2020 15:00:00 7.3 C 72 % 2.6 C
2198 28-02-2020 15:05:00 7.3 C 75 % 3.17 C
2199 28-02-2020 15:10:00 7.4 C 75 % 3.27 C
2200 28-02-2020 15:15:00 7.4 C 73 % 2.89 C
Sensor: Nr:Datum:Temp:Feuchte:Taupunkt:
Aussen-T/F 2201 28-02-2020 15:20:00 7.4 C 73 % 2.89 C
2202 28-02-2020 15:25:00 7.5 C 72 % 2.79 C
2203 28-02-2020 15:30:00 7.6 C 73 % 3.08 C
2204 28-02-2020 15:35:00 7.6 C 72 % 2.88 C
2205 28-02-2020 15:40:00 7.6 C 70 % 2.49 C
2206 28-02-2020 15:45:00 7.5 C 70 % 2.39 C
2207 28-02-2020 15:50:00 7.4 C 71 % 2.5 C
2208 28-02-2020 15:55:00 7.4 C 71 % 2.5 C
2209 28-02-2020 16:00:00 7.4 C 72 % 2.69 C
2210 28-02-2020 16:05:00 7.3 C 71 % 2.4 C
2211 28-02-2020 16:10:00 7.3 C 74 % 2.98 C
2212 28-02-2020 16:15:00 7.2 C 73 % 2.69 C
2213 28-02-2020 16:20:00 7.2 C 75 % 3.07 C
2214 28-02-2020 16:25:00 7.3 C 75 % 3.17 C
2215 28-02-2020 16:30:00 7.2 C 75 % 3.07 C
2216 28-02-2020 16:35:00 7.2 C 77 % 3.45 C
2217 28-02-2020 16:40:00 7.2 C 78 % 3.63 C
2218 28-02-2020 16:45:00 7.2 C 77 % 3.45 C
2219 28-02-2020 16:50:00 7.1 C 79 % 3.71 C
2220 28-02-2020 16:55:00 7.1 C 78 % 3.53 C
2221 28-02-2020 17:00:00 7 C 80 % 3.79 C
2222 28-02-2020 17:05:00 7 C 79 % 3.61 C
2223 28-02-2020 17:10:00 6.9 C 81 % 3.87 C
2224 28-02-2020 17:15:00 6.8 C 81 % 3.77 C
2225 28-02-2020 17:20:00 6.8 C 82 % 3.95 C
Sensor: Nr:Datum:Temp:Feuchte:Taupunkt:
Aussen-T/F 2226 28-02-2020 17:25:00 6.6 C 82 % 3.75 C
2227 28-02-2020 17:30:00 6.4 C 82 % 3.56 C
2228 28-02-2020 17:35:00 6.2 C 80 % 3.01 C
2229 28-02-2020 17:40:00 6 C 81 % 2.99 C
2230 28-02-2020 17:45:00 5.9 C 83 % 3.24 C
2231 28-02-2020 17:50:00 5.8 C 83 % 3.14 C
2232 28-02-2020 17:55:00 5.7 C 84 % 3.21 C
2233 28-02-2020 18:00:00 5.5 C 84 % 3.02 C
2234 28-02-2020 18:05:00 5.4 C 84 % 2.92 C
2235 28-02-2020 18:10:00 5.3 C 85 % 2.99 C
2236 28-02-2020 18:15:00 5.2 C 85 % 2.89 C
2237 28-02-2020 18:20:00 5.1 C 85 % 2.79 C
2238 28-02-2020 18:25:00 5.1 C 85 % 2.79 C
2239 28-02-2020 18:30:00 5.1 C 84 % 2.63 C
2240 28-02-2020 18:35:00 5.3 C 81 % 2.31 C
2241 28-02-2020 18:40:00 5.5 C 82 % 2.68 C
2242 28-02-2020 18:45:00 5.6 C 79 % 2.25 C
2243 28-02-2020 18:50:00 5.7 C 79 % 2.35 C
2244 28-02-2020 18:55:00 5.7 C 80 % 2.53 C
2245 28-02-2020 19:00:00 5.7 C 81 % 2.7 C
2246 28-02-2020 19:05:00 5.7 C 79 % 2.35 C
2247 28-02-2020 19:10:00 5.7 C 79 % 2.35 C
2248 28-02-2020 19:15:00 5.7 C 81 % 2.7 C
2249 28-02-2020 19:20:00 5.6 C 76 % 1.71 C
2250 28-02-2020 19:25:00 5.7 C 78 % 2.17 C
Sensor: Nr:Datum:Temp:Feuchte:Taupunkt:
Aussen-T/F 2251 28-02-2020 19:30:00 5.7 C 80 % 2.53 C
2252 28-02-2020 19:35:00 5.6 C 80 % 2.43 C
2253 28-02-2020 19:40:00 5.5 C 78 % 1.98 C
2254 28-02-2020 19:45:00 5.6 C 80 % 2.43 C
2255 28-02-2020 19:50:00 5.6 C 80 % 2.43 C
2256 28-02-2020 19:55:00 5.6 C 80 % 2.43 C
2257 28-02-2020 20:00:00 5.5 C 81 % 2.51 C
2258 28-02-2020 20:05:00 5.4 C 82 % 2.58 C
2259 28-02-2020 20:10:00 5.4 C 79 % 2.06 C
2260 28-02-2020 20:15:00 5.4 C 80 % 2.23 C
2261 28-02-2020 20:20:00 5.5 C 81 % 2.51 C
2262 28-02-2020 20:25:00 5.6 C 81 % 2.6 C
2263 28-02-2020 20:30:00 5.6 C 81 % 2.6 C
2264 28-02-2020 20:35:00 5.6 C 81 % 2.6 C
2265 28-02-2020 20:40:00 5.6 C 81 % 2.6 C
2266 28-02-2020 20:45:00 5.6 C 83 % 2.95 C
2267 28-02-2020 20:50:00 5.4 C 84 % 2.92 C
2268 28-02-2020 20:55:00 5.4 C 83 % 2.75 C
2269 28-02-2020 21:00:00 5.3 C 85 % 2.99 C
2270 28-02-2020 21:05:00 5.3 C 86 % 3.15 C
2271 28-02-2020 21:10:00 5.2 C 86 % 3.05 C
2272 28-02-2020 21:15:00 5.1 C 87 % 3.12 C
2273 28-02-2020 21:20:00 5 C 88 % 3.18 C
2274 28-02-2020 21:25:00 4.9 C 87 % 2.92 C
2275 28-02-2020 21:30:00 4.9 C 88 % 3.08 C
Sensor: Nr:Datum:Temp:Feuchte:Taupunkt:
Aussen-T/F 2276 28-02-2020 21:35:00 4.8 C 88 % 2.99 C
2277 28-02-2020 21:40:00 4.8 C 87 % 2.82 C
2278 28-02-2020 21:45:00 4.9 C 86 % 2.76 C
2279 28-02-2020 21:50:00 5 C 86 % 2.86 C
2280 28-02-2020 21:55:00 5.1 C 86 % 2.96 C
2281 28-02-2020 22:00:00 5.1 C 86 % 2.96 C
2282 28-02-2020 22:05:00 5.2 C 85 % 2.89 C
2283 28-02-2020 22:10:00 5.2 C 85 % 2.89 C
2284 28-02-2020 22:15:00 5.2 C 85 % 2.89 C
2285 28-02-2020 22:20:00 5.2 C 86 % 3.05 C
2286 28-02-2020 22:25:00 5.1 C 88 % 3.28 C
2287 28-02-2020 22:30:00 5 C 89 % 3.34 C
2288 28-02-2020 22:35:00 4.9 C 89 % 3.24 C
2289 28-02-2020 22:40:00 4.8 C 89 % 3.14 C
2290 28-02-2020 22:45:00 4.7 C 90 % 3.2 C
2291 28-02-2020 22:50:00 4.7 C 91 % 3.36 C
2292 28-02-2020 22:55:00 4.6 C 91 % 3.26 C
2293 28-02-2020 23:00:00 4.6 C 92 % 3.42 C
2294 28-02-2020 23:05:00 4.5 C 92 % 3.32 C
2295 28-02-2020 23:10:00 4.4 C 92 % 3.22 C
2296 28-02-2020 23:15:00 4.3 C 92 % 3.12 C
2297 28-02-2020 23:20:00 4.3 C 93 % 3.27 C
2298 28-02-2020 23:25:00 4.3 C 93 % 3.27 C
2299 28-02-2020 23:30:00 4.3 C 93 % 3.27 C
2300 28-02-2020 23:35:00 4.4 C 93 % 3.37 C
Sensor: Nr:Datum:Temp:Feuchte:Taupunkt:
Aussen-T/F 2301 28-02-2020 23:40:00 4.4 C 93 % 3.37 C
2302 28-02-2020 23:45:00 4.5 C 93 % 3.47 C
2303 28-02-2020 23:50:00 4.5 C 93 % 3.47 C
2304 28-02-2020 23:55:00 4.5 C 93 % 3.47 C
2305 29-02-2020 00:00:00 4.6 C 94 % 3.72 C
2306 29-02-2020 00:05:00 4.6 C 94 % 3.72 C
2307 29-02-2020 00:10:00 4.7 C 94 % 3.82 C
2308 29-02-2020 00:15:00 4.8 C 94 % 3.92 C
2309 29-02-2020 00:20:00 4.9 C 94 % 4.02 C
2310 29-02-2020 00:25:00 5.1 C 94 % 4.22 C
2311 29-02-2020 00:30:00 5.2 C 94 % 4.32 C
2312 29-02-2020 00:35:00 5.3 C 94 % 4.41 C
2313 29-02-2020 00:40:00 5.5 C 93 % 4.46 C
2314 29-02-2020 00:45:00 5.6 C 93 % 4.56 C
2315 29-02-2020 00:50:00 5.6 C 93 % 4.56 C
2316 29-02-2020 00:55:00 5.7 C 93 % 4.66 C
2317 29-02-2020 01:00:00 5.6 C 93 % 4.56 C
2318 29-02-2020 01:05:00 5.7 C 93 % 4.66 C
2319 29-02-2020 01:10:00 5.7 C 93 % 4.66 C
2320 29-02-2020 01:15:00 5.7 C 93 % 4.66 C
2321 29-02-2020 01:20:00 5.6 C 93 % 4.56 C
2322 29-02-2020 01:25:00 5.6 C 93 % 4.56 C
2323 29-02-2020 01:30:00 5.6 C 94 % 4.71 C
2324 29-02-2020 01:35:00 5.7 C 94 % 4.81 C
2325 29-02-2020 01:40:00 5.7 C 94 % 4.81 C
Sensor: Nr:Datum:Temp:Feuchte:Taupunkt:
Aussen-T/F 2326 29-02-2020 01:45:00 5.8 C 94 % 4.91 C
2327 29-02-2020 01:50:00 5.8 C 94 % 4.91 C
2328 29-02-2020 01:55:00 5.8 C 95 % 5.06 C
2329 29-02-2020 02:00:00 5.9 C 95 % 5.16 C
2330 29-02-2020 02:05:00 5.9 C 95 % 5.16 C
2331 29-02-2020 02:10:00 5.9 C 95 % 5.16 C
2332 29-02-2020 02:15:00 5.9 C 94 % 5.01 C
2333 29-02-2020 02:20:00 5.9 C 95 % 5.16 C
2334 29-02-2020 02:25:00 5.9 C 95 % 5.16 C
2335 29-02-2020 02:30:00 5.9 C 95 % 5.16 C
2336 29-02-2020 02:35:00 6.1 C 95 % 5.36 C
2337 29-02-2020 02:40:00 6.2 C 95 % 5.46 C
2338 29-02-2020 02:45:00 6.4 C 95 % 5.66 C
2339 29-02-2020 02:50:00 6.6 C 95 % 5.86 C
2340 29-02-2020 02:55:00 6.7 C 95 % 5.96 C
2341 29-02-2020 03:00:00 7.1 C 95 % 6.35 C
2342 29-02-2020 03:05:00 7.4 C 95 % 6.65 C
2343 29-02-2020 03:10:00 7.7 C 94 % 6.8 C
2344 29-02-2020 03:15:00 7.9 C 94 % 7 C
2345 29-02-2020 03:20:00 8.2 C 93 % 7.14 C
2346 29-02-2020 03:25:00 8.5 C 92 % 7.28 C
2347 29-02-2020 03:30:00 8.7 C 92 % 7.47 C
2348 29-02-2020 03:35:00 8.8 C 91 % 7.41 C
2349 29-02-2020 03:40:00 8.9 C 91 % 7.51 C
2350 29-02-2020 03:45:00 9.1 C 90 % 7.55 C
Sensor: Nr:Datum:Temp:Feuchte:Taupunkt:
Aussen-T/F 2351 29-02-2020 03:50:00 9.2 C 90 % 7.65 C
2352 29-02-2020 03:55:00 9.3 C 90 % 7.75 C
2353 29-02-2020 04:00:00 9.4 C 89 % 7.68 C
2354 29-02-2020 04:05:00 9.6 C 89 % 7.88 C
2355 29-02-2020 04:10:00 9.6 C 89 % 7.88 C
2356 29-02-2020 04:15:00 9.7 C 88 % 7.81 C
2357 29-02-2020 04:20:00 9.8 C 88 % 7.91 C
2358 29-02-2020 04:25:00 9.8 C 88 % 7.91 C
2359 29-02-2020 04:30:00 9.8 C 87 % 7.74 C
2360 29-02-2020 04:35:00 9.8 C 87 % 7.74 C
2361 29-02-2020 04:40:00 9.8 C 87 % 7.74 C
2362 29-02-2020 04:45:00 9.8 C 87 % 7.74 C
2363 29-02-2020 04:50:00 9.8 C 87 % 7.74 C
2364 29-02-2020 04:55:00 9.8 C 87 % 7.74 C
2365 29-02-2020 05:00:00 9.7 C 87 % 7.64 C
2366 29-02-2020 05:05:00 9.7 C 87 % 7.64 C
2367 29-02-2020 05:10:00 9.7 C 86 % 7.47 C
2368 29-02-2020 05:15:00 9.7 C 86 % 7.47 C
2369 29-02-2020 05:20:00 9.7 C 86 % 7.47 C
2370 29-02-2020 05:25:00 9.6 C 86 % 7.38 C
2371 29-02-2020 05:30:00 9.6 C 86 % 7.38 C
2372 29-02-2020 05:35:00 9.6 C 86 % 7.38 C
2373 29-02-2020 05:40:00 9.5 C 86 % 7.28 C
2374 29-02-2020 05:45:00 9.5 C 86 % 7.28 C
2375 29-02-2020 05:50:00 9.5 C 86 % 7.28 C
Sensor: Nr:Datum:Temp:Feuchte:Taupunkt:
Aussen-T/F 2376 29-02-2020 05:55:00 9.5 C 86 % 7.28 C
2377 29-02-2020 06:00:00 9.5 C 86 % 7.28 C
2378 29-02-2020 06:05:00 9.5 C 86 % 7.28 C
2379 29-02-2020 06:10:00 9.4 C 86 % 7.18 C
2380 29-02-2020 06:15:00 9.4 C 86 % 7.18 C
2381 29-02-2020 06:20:00 9.4 C 86 % 7.18 C
2382 29-02-2020 06:25:00 9.3 C 86 % 7.08 C
2383 29-02-2020 06:30:00 9.2 C 86 % 6.98 C
2384 29-02-2020 06:35:00 9.2 C 86 % 6.98 C
2385 29-02-2020 06:40:00 9.2 C 86 % 6.98 C
2386 29-02-2020 06:45:00 9.2 C 86 % 6.98 C
2387 29-02-2020 06:50:00 9.2 C 86 % 6.98 C
2388 29-02-2020 06:55:00 9.2 C 86 % 6.98 C
2389 29-02-2020 07:00:00 9.2 C 86 % 6.98 C
2390 29-02-2020 07:05:00 9.1 C 86 % 6.89 C
2391 29-02-2020 07:10:00 9 C 86 % 6.79 C
2392 29-02-2020 07:15:00 8.9 C 86 % 6.69 C
2393 29-02-2020 07:20:00 8.8 C 87 % 6.76 C
2394 29-02-2020 07:25:00 8.8 C 87 % 6.76 C
2395 29-02-2020 07:30:00 8.7 C 87 % 6.66 C
2396 29-02-2020 07:35:00 8.7 C 87 % 6.66 C
2397 29-02-2020 07:40:00 8.6 C 87 % 6.56 C
2398 29-02-2020 07:45:00 8.6 C 87 % 6.56 C
2399 29-02-2020 07:50:00 8.5 C 88 % 6.63 C
2400 29-02-2020 07:55:00 8.4 C 88 % 6.53 C
Sensor: Nr:Datum:Temp:Feuchte:Taupunkt:
Aussen-T/F 2401 29-02-2020 08:00:00 8.3 C 88 % 6.43 C
2402 29-02-2020 08:05:00 8.3 C 88 % 6.43 C
2403 29-02-2020 08:10:00 8.3 C 89 % 6.6 C
2404 29-02-2020 08:15:00 8.3 C 89 % 6.6 C
2405 29-02-2020 08:20:00 8.2 C 89 % 6.5 C
2406 29-02-2020 08:25:00 8.2 C 89 % 6.5 C
2407 29-02-2020 08:30:00 8.2 C 90 % 6.66 C
2408 29-02-2020 08:35:00 8.2 C 90 % 6.66 C
2409 29-02-2020 08:40:00 8.2 C 90 % 6.66 C
2410 29-02-2020 08:45:00 8.2 C 90 % 6.66 C
2411 29-02-2020 08:50:00 8.2 C 90 % 6.66 C
2412 29-02-2020 08:55:00 8.2 C 90 % 6.66 C
2413 29-02-2020 09:00:00 8.3 C 90 % 6.76 C
2414 29-02-2020 09:05:00 8.4 C 91 % 7.02 C
2415 29-02-2020 09:10:00 8.5 C 90 % 6.96 C
2416 29-02-2020 09:15:00 8.6 C 89 % 6.89 C
2417 29-02-2020 09:20:00 8.7 C 88 % 6.83 C
2418 29-02-2020 09:25:00 8.9 C 88 % 7.02 C
2419 29-02-2020 09:30:00 9.1 C 88 % 7.22 C
2420 29-02-2020 09:35:00 9.2 C 88 % 7.32 C
2421 29-02-2020 09:40:00 9.3 C 87 % 7.25 C
2422 29-02-2020 09:45:00 9.4 C 86 % 7.18 C
2423 29-02-2020 09:50:00 9.6 C 83 % 6.86 C
2424 29-02-2020 09:55:00 9.7 C 81 % 6.6 C
2425 29-02-2020 10:00:00 9.8 C 80 % 6.52 C
Sensor: Nr:Datum:Temp:Feuchte:Taupunkt:
Aussen-T/F 2426 29-02-2020 10:05:00 9.9 C 80 % 6.62 C
2427 29-02-2020 10:10:00 10 C 79 % 6.53 C
2428 29-02-2020 10:15:00 10.1 C 78 % 6.44 C
2429 29-02-2020 10:20:00 10.1 C 78 % 6.44 C
2430 29-02-2020 10:25:00 10.1 C 76 % 6.07 C
2431 29-02-2020 10:30:00 10.1 C 77 % 6.26 C
2432 29-02-2020 10:35:00 10.2 C 77 % 6.35 C
2433 29-02-2020 10:40:00 10.2 C 77 % 6.35 C
2434 29-02-2020 10:45:00 10.3 C 77 % 6.45 C
2435 29-02-2020 10:50:00 10.4 C 78 % 6.74 C
2436 29-02-2020 10:55:00 10.4 C 76 % 6.36 C
2437 29-02-2020 11:00:00 10.6 C 76 % 6.55 C
2438 29-02-2020 11:05:00 10.7 C 77 % 6.84 C
2439 29-02-2020 11:10:00 10.7 C 75 % 6.46 C
2440 29-02-2020 11:15:00 10.9 C 76 % 6.84 C
2441 29-02-2020 11:20:00 11 C 74 % 6.55 C
2442 29-02-2020 11:25:00 11.3 C 73 % 6.64 C
2443 29-02-2020 11:30:00 11.6 C 72 % 6.73 C
2444 29-02-2020 11:35:00 11.9 C 71 % 6.82 C
2445 29-02-2020 11:40:00 12.2 C 70 % 6.9 C
2446 29-02-2020 11:45:00 12.3 C 70 % 6.99 C
2447 29-02-2020 11:50:00 12.6 C 67 % 6.64 C
2448 29-02-2020 11:55:00 12.7 C 68 % 6.95 C
2449 29-02-2020 12:00:00 12.9 C 68 % 7.14 C
2450 29-02-2020 12:05:00 13.2 C 66 % 7 C
Sensor: Nr:Datum:Temp:Feuchte:Taupunkt:
Aussen-T/F 2451 29-02-2020 12:10:00 13.5 C 65 % 7.06 C
2452 29-02-2020 12:15:00 13.8 C 66 % 7.57 C
2453 29-02-2020 12:20:00 13.9 C 63 % 6.98 C
2454 29-02-2020 12:25:00 14.1 C 63 % 7.17 C
2455 29-02-2020 12:30:00 14.2 C 64 % 7.5 C
2456 29-02-2020 12:35:00 14.3 C 64 % 7.59 C
2457 29-02-2020 12:40:00 14.4 C 63 % 7.45 C
2458 29-02-2020 12:45:00 14.4 C 61 % 6.98 C
2459 29-02-2020 12:50:00 14.4 C 63 % 7.45 C
2460 29-02-2020 12:55:00 14.4 C 63 % 7.45 C
2461 29-02-2020 13:00:00 14.4 C 63 % 7.45 C
2462 29-02-2020 13:05:00 14.6 C 63 % 7.64 C
2463 29-02-2020 13:10:00 14.6 C 62 % 7.41 C
2464 29-02-2020 13:15:00 14.6 C 64 % 7.87 C
2465 29-02-2020 13:20:00 14.6 C 64 % 7.87 C
2466 29-02-2020 13:25:00 14.6 C 65 % 8.1 C
2467 29-02-2020 13:30:00 14.5 C 63 % 7.55 C
2468 29-02-2020 13:35:00 14.6 C 63 % 7.64 C
2469 29-02-2020 13:40:00 14.6 C 65 % 8.1 C
2470 29-02-2020 13:45:00 14.8 C 64 % 8.06 C
2471 29-02-2020 13:50:00 14.9 C 65 % 8.39 C
2472 29-02-2020 13:55:00 15.1 C 64 % 8.35 C
2473 29-02-2020 14:00:00 15.2 C 62 % 7.98 C
2474 29-02-2020 14:05:00 15.3 C 63 % 8.31 C
2475 29-02-2020 14:10:00 15.2 C 64 % 8.44 C
Sensor: Nr:Datum:Temp:Feuchte:Taupunkt:
Aussen-T/F 2476 29-02-2020 14:15:00 15.2 C 64 % 8.44 C
2477 29-02-2020 14:20:00 15.1 C 64 % 8.35 C
2478 29-02-2020 14:25:00 15.1 C 63 % 8.12 C
2479 29-02-2020 14:30:00 15 C 65 % 8.48 C
2480 29-02-2020 14:35:00 14.9 C 67 % 8.83 C
2481 29-02-2020 14:40:00 14.6 C 70 % 9.2 C
2482 29-02-2020 14:45:00 14.1 C 73 % 9.34 C
2483 29-02-2020 14:50:00 13.6 C 76 % 9.45 C
2484 29-02-2020 14:55:00 12.9 C 81 % 9.72 C
2485 29-02-2020 15:00:00 12.2 C 84 % 9.58 C
2486 29-02-2020 15:05:00 11.6 C 87 % 9.51 C
2487 29-02-2020 15:10:00 11.3 C 89 % 9.55 C
2488 29-02-2020 15:15:00 11.2 C 90 % 9.62 C
2489 29-02-2020 15:20:00 11.2 C 91 % 9.79 C
2490 29-02-2020 15:25:00 11.2 C 91 % 9.79 C
2491 29-02-2020 15:30:00 11.2 C 91 % 9.79 C
2492 29-02-2020 15:35:00 11.2 C 90 % 9.62 C
2493 29-02-2020 15:40:00 11.2 C 90 % 9.62 C
2494 29-02-2020 15:45:00 11.2 C 90 % 9.62 C
2495 29-02-2020 15:50:00 11.2 C 89 % 9.46 C
2496 29-02-2020 15:55:00 11.3 C 88 % 9.39 C
2497 29-02-2020 16:00:00 11.3 C 87 % 9.22 C
2498 29-02-2020 16:05:00 11.6 C 86 % 9.34 C
2499 29-02-2020 16:10:00 11.8 C 84 % 9.19 C
2500 29-02-2020 16:15:00 11.9 C 83 % 9.11 C
Sensor: Nr:Datum:Temp:Feuchte:Taupunkt:
Aussen-T/F 2501 29-02-2020 16:20:00 11.9 C 82 % 8.93 C
2502 29-02-2020 16:25:00 11.8 C 83 % 9.01 C
2503 29-02-2020 16:30:00 11.6 C 84 % 8.99 C
2504 29-02-2020 16:35:00 11.4 C 86 % 9.14 C
2505 29-02-2020 16:40:00 11 C 87 % 8.92 C
2506 29-02-2020 16:45:00 10.7 C 87 % 8.63 C
2507 29-02-2020 16:50:00 10.6 C 87 % 8.53 C
2508 29-02-2020 16:55:00 10.3 C 86 % 8.06 C
2509 29-02-2020 17:00:00 10.2 C 86 % 7.97 C
2510 29-02-2020 17:05:00 9.9 C 83 % 7.15 C
2511 29-02-2020 17:10:00 9.7 C 81 % 6.6 C
2512 29-02-2020 17:15:00 9.5 C 81 % 6.41 C
2513 29-02-2020 17:20:00 9.3 C 82 % 6.39 C
2514 29-02-2020 17:25:00 9.2 C 80 % 5.94 C
2515 29-02-2020 17:30:00 9.1 C 80 % 5.84 C
2516 29-02-2020 17:35:00 9.1 C 80 % 5.84 C
2517 29-02-2020 17:40:00 9 C 81 % 5.92 C
2518 29-02-2020 17:45:00 8.9 C 81 % 5.82 C
2519 29-02-2020 17:50:00 8.9 C 82 % 6 C
2520 29-02-2020 17:55:00 8.9 C 82 % 6 C
2521 29-02-2020 18:00:00 8.9 C 82 % 6 C
2522 29-02-2020 18:05:00 8.8 C 82 % 5.9 C
2523 29-02-2020 18:10:00 8.9 C 82 % 6 C
2524 29-02-2020 18:15:00 8.9 C 83 % 6.17 C
2525 29-02-2020 18:20:00 8.8 C 83 % 6.08 C
Sensor: Nr:Datum:Temp:Feuchte:Taupunkt:
Aussen-T/F 2526 29-02-2020 18:25:00 8.7 C 83 % 5.98 C
2527 29-02-2020 18:30:00 8.6 C 84 % 6.05 C
2528 29-02-2020 18:35:00 8.4 C 84 % 5.86 C
2529 29-02-2020 18:40:00 8.3 C 82 % 5.41 C
2530 29-02-2020 18:45:00 8.3 C 81 % 5.24 C
2531 29-02-2020 18:50:00 8.1 C 81 % 5.04 C
2532 29-02-2020 18:55:00 7.4 C 81 % 4.36 C
2533 29-02-2020 19:00:00 7 C 83 % 4.32 C
2534 29-02-2020 19:05:00 6.8 C 84 % 4.29 C
2535 29-02-2020 19:10:00 6.6 C 86 % 4.43 C
2536 29-02-2020 19:15:00 6.5 C 86 % 4.33 C
2537 29-02-2020 19:20:00 6.4 C 85 % 4.07 C
2538 29-02-2020 19:25:00 6.4 C 84 % 3.9 C
2539 29-02-2020 19:30:00 6.4 C 84 % 3.9 C
2540 29-02-2020 19:35:00 6.6 C 83 % 3.92 C
2541 29-02-2020 19:40:00 6.7 C 81 % 3.68 C
2542 29-02-2020 19:45:00 6.8 C 81 % 3.77 C
2543 29-02-2020 19:50:00 6.8 C 81 % 3.77 C
2544 29-02-2020 19:55:00 6.8 C 80 % 3.6 C
2545 29-02-2020 20:00:00 6.8 C 80 % 3.6 C
2546 29-02-2020 20:05:00 6.8 C 80 % 3.6 C
2547 29-02-2020 20:10:00 6.8 C 80 % 3.6 C
2548 29-02-2020 20:15:00 6.8 C 80 % 3.6 C
2549 29-02-2020 20:20:00 6.7 C 80 % 3.5 C
2550 29-02-2020 20:25:00 6.7 C 80 % 3.5 C
Sensor: Nr:Datum:Temp:Feuchte:Taupunkt:
Aussen-T/F 2551 29-02-2020 20:30:00 6.6 C 79 % 3.23 C
2552 29-02-2020 20:35:00 6.6 C 79 % 3.23 C
2553 29-02-2020 20:40:00 6.5 C 79 % 3.13 C
2554 29-02-2020 20:45:00 6.4 C 79 % 3.03 C
2555 29-02-2020 20:50:00 6.3 C 79 % 2.93 C
2556 29-02-2020 20:55:00 6.2 C 79 % 2.84 C
2557 29-02-2020 21:00:00 6.1 C 78 % 2.56 C
2558 29-02-2020 21:05:00 6 C 79 % 2.64 C
2559 29-02-2020 21:10:00 5.9 C 78 % 2.37 C
2560 29-02-2020 21:15:00 5.8 C 79 % 2.45 C
2561 29-02-2020 21:20:00 5.8 C 79 % 2.45 C
2562 29-02-2020 21:25:00 5.8 C 80 % 2.62 C
2563 29-02-2020 21:30:00 5.7 C 80 % 2.53 C
2564 29-02-2020 21:35:00 5.6 C 80 % 2.43 C
2565 29-02-2020 21:40:00 5.5 C 80 % 2.33 C
2566 29-02-2020 21:45:00 5.4 C 80 % 2.23 C
2567 29-02-2020 21:50:00 5.4 C 81 % 2.41 C
2568 29-02-2020 21:55:00 5.3 C 82 % 2.48 C
2569 29-02-2020 22:00:00 5.2 C 83 % 2.56 C
2570 29-02-2020 22:05:00 4.9 C 83 % 2.26 C
2571 29-02-2020 22:10:00 4.8 C 84 % 2.33 C
2572 29-02-2020 22:15:00 4.7 C 84 % 2.23 C
2573 29-02-2020 22:20:00 4.6 C 85 % 2.3 C
2574 29-02-2020 22:25:00 4.4 C 86 % 2.27 C
2575 29-02-2020 22:30:00 4.4 C 86 % 2.27 C
Sensor: Nr:Datum:Temp:Feuchte:Taupunkt:
Aussen-T/F 2576 29-02-2020 22:35:00 4.3 C 87 % 2.33 C
2577 29-02-2020 22:40:00 4.3 C 87 % 2.33 C
2578 29-02-2020 22:45:00 4.3 C 88 % 2.49 C
2579 29-02-2020 22:50:00 4.3 C 88 % 2.49 C
2580 29-02-2020 22:55:00 4.3 C 89 % 2.65 C
2581 29-02-2020 23:00:00 4.4 C 89 % 2.75 C
2582 29-02-2020 23:05:00 4.5 C 89 % 2.85 C
2583 29-02-2020 23:10:00 4.7 C 88 % 2.89 C
2584 29-02-2020 23:15:00 4.9 C 88 % 3.08 C
2585 29-02-2020 23:20:00 5.1 C 87 % 3.12 C
2586 29-02-2020 23:25:00 5.3 C 86 % 3.15 C
2587 29-02-2020 23:30:00 5.3 C 86 % 3.15 C
2588 29-02-2020 23:35:00 5.4 C 86 % 3.25 C
2589 29-02-2020 23:40:00 5.4 C 86 % 3.25 C
2590 29-02-2020 23:45:00 5.6 C 86 % 3.45 C
2591 29-02-2020 23:50:00 5.8 C 85 % 3.48 C
2592 29-02-2020 23:55:00 6.1 C 84 % 3.61 C
2593 01-03-2020 00:00:00 6.4 C 83 % 3.73 C
2594 01-03-2020 00:05:00 6.8 C 81 % 3.77 C
2595 01-03-2020 00:10:00 6.9 C 81 % 3.87 C
2596 01-03-2020 00:15:00 7.1 C 80 % 3.89 C
2597 01-03-2020 00:20:00 7.2 C 80 % 3.99 C
2598 01-03-2020 00:25:00 7.1 C 79 % 3.71 C
2599 01-03-2020 00:30:00 7.1 C 80 % 3.89 C
2600 01-03-2020 00:35:00 6.9 C 80 % 3.7 C
Sensor: Nr:Datum:Temp:Feuchte:Taupunkt:
Aussen-T/F 2601 01-03-2020 00:40:00 6.8 C 80 % 3.6 C
2602 01-03-2020 00:45:00 6.7 C 80 % 3.5 C
2603 01-03-2020 00:50:00 6.7 C 81 % 3.68 C
2604 01-03-2020 00:55:00 6.7 C 81 % 3.68 C
2605 01-03-2020 01:00:00 6.7 C 81 % 3.68 C
2606 01-03-2020 01:05:00 6.6 C 81 % 3.58 C
2607 01-03-2020 01:10:00 6.5 C 81 % 3.48 C
2608 01-03-2020 01:15:00 6.4 C 81 % 3.38 C
2609 01-03-2020 01:20:00 6.4 C 82 % 3.56 C
2610 01-03-2020 01:25:00 6.4 C 82 % 3.56 C
2611 01-03-2020 01:30:00 6.4 C 82 % 3.56 C
2612 01-03-2020 01:35:00 6.3 C 82 % 3.46 C
2613 01-03-2020 01:40:00 6.3 C 82 % 3.46 C
2614 01-03-2020 01:45:00 6.2 C 83 % 3.53 C
2615 01-03-2020 01:50:00 6.2 C 83 % 3.53 C
2616 01-03-2020 01:55:00 6.2 C 83 % 3.53 C
2617 01-03-2020 02:00:00 6.2 C 83 % 3.53 C
2618 01-03-2020 02:05:00 6.3 C 83 % 3.63 C
2619 01-03-2020 02:10:00 6.3 C 83 % 3.63 C
2620 01-03-2020 02:15:00 6.3 C 83 % 3.63 C
2621 01-03-2020 02:20:00 6.3 C 83 % 3.63 C
2622 01-03-2020 02:25:00 6.2 C 83 % 3.53 C
2623 01-03-2020 02:30:00 6.2 C 83 % 3.53 C
2624 01-03-2020 02:35:00 6.3 C 83 % 3.63 C
2625 01-03-2020 02:40:00 6.3 C 83 % 3.63 C
Sensor: Nr:Datum:Temp:Feuchte:Taupunkt:
Aussen-T/F 2626 01-03-2020 02:45:00 6.4 C 83 % 3.73 C
2627 01-03-2020 02:50:00 6.7 C 82 % 3.85 C
2628 01-03-2020 02:55:00 6.8 C 82 % 3.95 C
2629 01-03-2020 03:00:00 7 C 81 % 3.97 C
2630 01-03-2020 03:05:00 7.1 C 81 % 4.07 C
2631 01-03-2020 03:10:00 7.1 C 81 % 4.07 C
2632 01-03-2020 03:15:00 7.1 C 81 % 4.07 C
2633 01-03-2020 03:20:00 7.1 C 81 % 4.07 C
2634 01-03-2020 03:25:00 7.2 C 81 % 4.16 C
2635 01-03-2020 03:30:00 7.2 C 81 % 4.16 C
2636 01-03-2020 03:35:00 7.1 C 82 % 4.24 C
2637 01-03-2020 03:40:00 7.1 C 82 % 4.24 C
2638 01-03-2020 03:45:00 7.1 C 82 % 4.24 C
2639 01-03-2020 03:50:00 7.1 C 82 % 4.24 C
2640 01-03-2020 03:55:00 7.1 C 82 % 4.24 C
2641 01-03-2020 04:00:00 7.1 C 81 % 4.07 C
2642 01-03-2020 04:05:00 7.2 C 80 % 3.99 C
2643 01-03-2020 04:10:00 7.2 C 79 % 3.81 C
2644 01-03-2020 04:15:00 7.2 C 78 % 3.63 C
2645 01-03-2020 04:20:00 7.3 C 78 % 3.73 C
2646 01-03-2020 04:25:00 7.3 C 78 % 3.73 C
2647 01-03-2020 04:30:00 7.4 C 78 % 3.82 C
2648 01-03-2020 04:35:00 7.4 C 77 % 3.64 C
2649 01-03-2020 04:40:00 7.4 C 78 % 3.82 C
2650 01-03-2020 04:45:00 7.4 C 77 % 3.64 C
Sensor: Nr:Datum:Temp:Feuchte:Taupunkt:
Aussen-T/F 2651 01-03-2020 04:50:00 7.4 C 77 % 3.64 C
2652 01-03-2020 04:55:00 7.4 C 77 % 3.64 C
2653 01-03-2020 05:00:00 7.4 C 77 % 3.64 C
2654 01-03-2020 05:05:00 7.4 C 77 % 3.64 C
2655 01-03-2020 05:10:00 7.5 C 77 % 3.74 C
2656 01-03-2020 05:15:00 7.5 C 77 % 3.74 C
2657 01-03-2020 05:20:00 7.4 C 77 % 3.64 C
2658 01-03-2020 05:25:00 7.4 C 76 % 3.45 C
2659 01-03-2020 05:30:00 7.6 C 76 % 3.65 C
2660 01-03-2020 05:35:00 7.6 C 76 % 3.65 C
2661 01-03-2020 05:40:00 7.5 C 77 % 3.74 C
2662 01-03-2020 05:45:00 7.4 C 77 % 3.64 C
2663 01-03-2020 05:50:00 7.4 C 78 % 3.82 C
2664 01-03-2020 05:55:00 7.4 C 78 % 3.82 C
2665 01-03-2020 06:00:00 7.3 C 78 % 3.73 C
2666 01-03-2020 06:05:00 7.3 C 78 % 3.73 C
2667 01-03-2020 06:10:00 7.4 C 78 % 3.82 C
2668 01-03-2020 06:15:00 7.4 C 78 % 3.82 C
2669 01-03-2020 06:20:00 7.4 C 78 % 3.82 C
2670 01-03-2020 06:25:00 7.4 C 78 % 3.82 C
2671 01-03-2020 06:30:00 7.4 C 77 % 3.64 C
2672 01-03-2020 06:35:00 7.5 C 77 % 3.74 C
2673 01-03-2020 06:40:00 7.6 C 77 % 3.83 C
2674 01-03-2020 06:45:00 7.5 C 78 % 3.92 C
2675 01-03-2020 06:50:00 7.5 C 78 % 3.92 C
Sensor: Nr:Datum:Temp:Feuchte:Taupunkt:
Aussen-T/F 2676 01-03-2020 06:55:00 7.4 C 80 % 4.18 C
2677 01-03-2020 07:00:00 7.3 C 82 % 4.44 C
2678 01-03-2020 07:05:00 7.2 C 83 % 4.51 C
2679 01-03-2020 07:10:00 7 C 84 % 4.49 C
2680 01-03-2020 07:15:00 6.8 C 84 % 4.29 C
2681 01-03-2020 07:20:00 6.8 C 85 % 4.46 C
2682 01-03-2020 07:25:00 6.7 C 86 % 4.53 C
2683 01-03-2020 07:30:00 6.7 C 87 % 4.69 C
2684 01-03-2020 07:35:00 6.6 C 87 % 4.6 C
2685 01-03-2020 07:40:00 6.5 C 88 % 4.66 C
2686 01-03-2020 07:45:00 6.4 C 88 % 4.56 C
2687 01-03-2020 07:50:00 6.3 C 89 % 4.62 C
2688 01-03-2020 07:55:00 6.3 C 90 % 4.78 C
2689 01-03-2020 08:00:00 6.2 C 90 % 4.69 C
2690 01-03-2020 08:05:00 6.2 C 91 % 4.84 C
2691 01-03-2020 08:10:00 6.2 C 91 % 4.84 C
2692 01-03-2020 08:15:00 6.1 C 91 % 4.74 C
2693 01-03-2020 08:20:00 6.1 C 91 % 4.74 C
2694 01-03-2020 08:25:00 5.9 C 91 % 4.55 C
2695 01-03-2020 08:30:00 5.8 C 91 % 4.45 C
2696 01-03-2020 08:35:00 5.7 C 91 % 4.35 C
2697 01-03-2020 08:40:00 5.6 C 91 % 4.25 C
2698 01-03-2020 08:45:00 5.3 C 91 % 3.95 C
2699 01-03-2020 08:50:00 5 C 91 % 3.66 C
2700 01-03-2020 08:55:00 4.8 C 92 % 3.61 C
Sensor: Nr:Datum:Temp:Feuchte:Taupunkt:
Aussen-T/F 2701 01-03-2020 09:00:00 4.8 C 92 % 3.61 C
2702 01-03-2020 09:05:00 4.8 C 92 % 3.61 C
2703 01-03-2020 09:10:00 4.8 C 93 % 3.77 C
2704 01-03-2020 09:15:00 4.8 C 93 % 3.77 C
2705 01-03-2020 09:20:00 4.9 C 93 % 3.87 C
2706 01-03-2020 09:25:00 5.1 C 93 % 4.06 C
2707 01-03-2020 09:30:00 5.2 C 93 % 4.16 C
2708 01-03-2020 09:35:00 5.2 C 93 % 4.16 C
2709 01-03-2020 09:40:00 5.2 C 93 % 4.16 C
2710 01-03-2020 09:45:00 5.2 C 93 % 4.16 C
2711 01-03-2020 09:50:00 5.3 C 92 % 4.11 C
2712 01-03-2020 09:55:00 5.3 C 92 % 4.11 C
2713 01-03-2020 10:00:00 5.3 C 92 % 4.11 C
2714 01-03-2020 10:05:00 5.3 C 93 % 4.26 C
2715 01-03-2020 10:10:00 5.4 C 93 % 4.36 C
2716 01-03-2020 10:15:00 5.6 C 92 % 4.41 C
2717 01-03-2020 10:20:00 5.7 C 93 % 4.66 C
2718 01-03-2020 10:25:00 6.1 C 92 % 4.9 C
2719 01-03-2020 10:30:00 6.4 C 91 % 5.04 C
2720 01-03-2020 10:35:00 6.7 C 91 % 5.34 C
2721 01-03-2020 10:40:00 6.9 C 90 % 5.38 C
2722 01-03-2020 10:45:00 7.2 C 89 % 5.51 C
2723 01-03-2020 10:50:00 7.4 C 89 % 5.71 C
2724 01-03-2020 10:55:00 7.6 C 89 % 5.91 C
2725 01-03-2020 11:00:00 7.7 C 86 % 5.51 C
Sensor: Nr:Datum:Temp:Feuchte:Taupunkt:
Aussen-T/F 2726 01-03-2020 11:05:00 7.9 C 85 % 5.54 C
2727 01-03-2020 11:10:00 8 C 82 % 5.12 C
2728 01-03-2020 11:15:00 8.2 C 83 % 5.49 C
2729 01-03-2020 11:20:00 8.3 C 81 % 5.24 C
2730 01-03-2020 11:25:00 8.5 C 79 % 5.07 C
2731 01-03-2020 11:30:00 8.6 C 79 % 5.17 C
2732 01-03-2020 11:35:00 8.8 C 77 % 5 C
2733 01-03-2020 11:40:00 8.8 C 77 % 5 C
2734 01-03-2020 11:45:00 8.8 C 76 % 4.81 C
2735 01-03-2020 11:50:00 8.8 C 75 % 4.62 C
2736 01-03-2020 11:55:00 8.9 C 77 % 5.09 C
2737 01-03-2020 12:00:00 9.1 C 75 % 4.91 C
2738 01-03-2020 12:05:00 8.9 C 75 % 4.72 C
2739 01-03-2020 12:10:00 8.7 C 74 % 4.33 C
2740 01-03-2020 12:15:00 8.7 C 76 % 4.71 C
2741 01-03-2020 12:20:00 8.7 C 75 % 4.52 C
2742 01-03-2020 12:25:00 8.8 C 74 % 4.43 C
2743 01-03-2020 12:30:00 9 C 73 % 4.43 C
2744 01-03-2020 12:35:00 9 C 73 % 4.43 C
2745 01-03-2020 12:40:00 9.1 C 74 % 4.72 C
2746 01-03-2020 12:45:00 9.2 C 74 % 4.81 C
2747 01-03-2020 12:50:00 9.4 C 73 % 4.81 C
2748 01-03-2020 12:55:00 9.6 C 72 % 4.81 C
2749 01-03-2020 13:00:00 9.9 C 72 % 5.1 C
2750 01-03-2020 13:05:00 10.1 C 70 % 4.89 C
Sensor: Nr:Datum:Temp:Feuchte:Taupunkt:
Aussen-T/F 2751 01-03-2020 13:10:00 10.2 C 69 % 4.78 C
2752 01-03-2020 13:15:00 10.1 C 68 % 4.47 C
2753 01-03-2020 13:20:00 9.9 C 69 % 4.49 C
2754 01-03-2020 13:25:00 9.8 C 69 % 4.39 C
2755 01-03-2020 13:30:00 9.8 C 69 % 4.39 C
2756 01-03-2020 13:35:00 9.9 C 69 % 4.49 C
2757 01-03-2020 13:40:00 10 C 67 % 4.16 C
2758 01-03-2020 13:45:00 10.1 C 69 % 4.68 C
2759 01-03-2020 13:50:00 10.1 C 69 % 4.68 C
2760 01-03-2020 13:55:00 10.2 C 70 % 4.98 C
2761 01-03-2020 14:00:00 10.3 C 67 % 4.45 C
2762 01-03-2020 14:05:00 10.2 C 69 % 4.78 C
2763 01-03-2020 14:10:00 10.2 C 68 % 4.57 C
2764 01-03-2020 14:15:00 10.1 C 69 % 4.68 C
2765 01-03-2020 14:20:00 10 C 69 % 4.58 C
2766 01-03-2020 14:25:00 10 C 69 % 4.58 C
2767 01-03-2020 14:30:00 10.1 C 69 % 4.68 C
2768 01-03-2020 14:35:00 10.2 C 69 % 4.78 C
2769 01-03-2020 14:40:00 10.2 C 68 % 4.57 C
2770 01-03-2020 14:45:00 10.3 C 69 % 4.87 C
2771 01-03-2020 14:50:00 10.4 C 67 % 4.55 C
2772 01-03-2020 14:55:00 10.3 C 67 % 4.45 C
2773 01-03-2020 15:00:00 10.2 C 68 % 4.57 C
2774 01-03-2020 15:05:00 10.2 C 68 % 4.57 C
2775 01-03-2020 15:10:00 10.2 C 69 % 4.78 C
Sensor: Nr:Datum:Temp:Feuchte:Taupunkt:
Aussen-T/F 2776 01-03-2020 15:15:00 10.3 C 68 % 4.66 C
2777 01-03-2020 15:20:00 10.6 C 69 % 5.16 C
2778 01-03-2020 15:25:00 10.8 C 67 % 4.93 C
2779 01-03-2020 15:30:00 10.8 C 65 % 4.49 C
2780 01-03-2020 15:35:00 10.8 C 65 % 4.49 C
2781 01-03-2020 15:40:00 10.8 C 66 % 4.71 C
2782 01-03-2020 15:45:00 11 C 66 % 4.9 C
2783 01-03-2020 15:50:00 11.1 C 65 % 4.78 C
2784 01-03-2020 15:55:00 11.1 C 65 % 4.78 C
2785 01-03-2020 16:00:00 11.1 C 66 % 5 C
2786 01-03-2020 16:05:00 11 C 66 % 4.9 C
2787 01-03-2020 16:10:00 10.9 C 66 % 4.81 C
2788 01-03-2020 16:15:00 10.8 C 65 % 4.49 C
2789 01-03-2020 16:20:00 10.8 C 66 % 4.71 C
2790 01-03-2020 16:25:00 10.8 C 66 % 4.71 C
2791 01-03-2020 16:30:00 10.7 C 66 % 4.62 C
2792 01-03-2020 16:35:00 10.7 C 67 % 4.83 C
2793 01-03-2020 16:40:00 10.8 C 72 % 5.96 C
2794 01-03-2020 16:45:00 10.7 C 72 % 5.87 C
2795 01-03-2020 16:50:00 10.7 C 75 % 6.46 C
2796 01-03-2020 16:55:00 10.6 C 76 % 6.55 C
2797 01-03-2020 17:00:00 10.4 C 77 % 6.55 C
2798 01-03-2020 17:05:00 10.3 C 79 % 6.82 C
2799 01-03-2020 17:10:00 10.1 C 79 % 6.63 C
2800 01-03-2020 17:15:00 9.7 C 81 % 6.6 C
Sensor: Nr:Datum:Temp:Feuchte:Taupunkt:
Aussen-T/F 2801 01-03-2020 17:20:00 9.6 C 84 % 7.03 C
2802 01-03-2020 17:25:00 9.3 C 85 % 6.91 C
2803 01-03-2020 17:30:00 9.1 C 87 % 7.05 C
2804 01-03-2020 17:35:00 8.9 C 87 % 6.86 C
2805 01-03-2020 17:40:00 8.7 C 88 % 6.83 C
2806 01-03-2020 17:45:00 8.5 C 89 % 6.79 C
2807 01-03-2020 17:50:00 8.3 C 90 % 6.76 C
2808 01-03-2020 17:55:00 8.2 C 90 % 6.66 C
2809 01-03-2020 18:00:00 8.1 C 91 % 6.72 C
2810 01-03-2020 18:05:00 7.9 C 91 % 6.52 C
2811 01-03-2020 18:10:00 7.8 C 91 % 6.43 C
2812 01-03-2020 18:15:00 7.8 C 92 % 6.58 C
2813 01-03-2020 18:20:00 7.7 C 92 % 6.48 C
2814 01-03-2020 18:25:00 7.6 C 92 % 6.39 C
2815 01-03-2020 18:30:00 7.6 C 93 % 6.54 C
2816 01-03-2020 18:35:00 7.5 C 93 % 6.44 C
2817 01-03-2020 18:40:00 7.5 C 93 % 6.44 C
2818 01-03-2020 18:45:00 7.4 C 93 % 6.34 C
2819 01-03-2020 18:50:00 7.4 C 93 % 6.34 C
2820 01-03-2020 18:55:00 7.4 C 93 % 6.34 C
2821 01-03-2020 19:00:00 7.4 C 94 % 6.5 C
2822 01-03-2020 19:05:00 7.3 C 94 % 6.4 C
2823 01-03-2020 19:10:00 7.3 C 94 % 6.4 C
2824 01-03-2020 19:15:00 7.3 C 94 % 6.4 C
2825 01-03-2020 19:20:00 7.3 C 94 % 6.4 C
Sensor: Nr:Datum:Temp:Feuchte:Taupunkt:
Aussen-T/F 2826 01-03-2020 19:25:00 7.3 C 94 % 6.4 C
2827 01-03-2020 19:30:00 7.3 C 94 % 6.4 C
2828 01-03-2020 19:35:00 7.2 C 94 % 6.3 C
2829 01-03-2020 19:40:00 7.2 C 94 % 6.3 C
2830 01-03-2020 19:45:00 7.2 C 95 % 6.45 C
2831 01-03-2020 19:50:00 7.1 C 94 % 6.2 C
2832 01-03-2020 19:55:00 7.1 C 94 % 6.2 C
2833 01-03-2020 20:00:00 7.1 C 95 % 6.35 C
2834 01-03-2020 20:05:00 7.1 C 95 % 6.35 C
2835 01-03-2020 20:10:00 7.1 C 95 % 6.35 C
2836 01-03-2020 20:15:00 7 C 95 % 6.26 C
2837 01-03-2020 20:20:00 7 C 95 % 6.26 C
2838 01-03-2020 20:25:00 6.9 C 95 % 6.16 C
2839 01-03-2020 20:30:00 6.9 C 95 % 6.16 C
2840 01-03-2020 20:35:00 6.8 C 95 % 6.06 C
2841 01-03-2020 20:40:00 6.7 C 95 % 5.96 C
2842 01-03-2020 20:45:00 6.6 C 95 % 5.86 C
2843 01-03-2020 20:50:00 6.5 C 95 % 5.76 C
2844 01-03-2020 20:55:00 6.4 C 95 % 5.66 C
2845 01-03-2020 21:00:00 6.3 C 95 % 5.56 C
2846 01-03-2020 21:05:00 6.3 C 95 % 5.56 C
2847 01-03-2020 21:10:00 6.3 C 95 % 5.56 C
2848 01-03-2020 21:15:00 6.3 C 95 % 5.56 C
2849 01-03-2020 21:20:00 6.3 C 95 % 5.56 C
2850 01-03-2020 21:25:00 6.2 C 95 % 5.46 C
Sensor: Nr:Datum:Temp:Feuchte:Taupunkt:
Aussen-T/F 2851 01-03-2020 21:30:00 6.2 C 95 % 5.46 C
2852 01-03-2020 21:35:00 6.2 C 95 % 5.46 C
2853 01-03-2020 21:40:00 6.3 C 95 % 5.56 C
2854 01-03-2020 21:45:00 6.3 C 96 % 5.71 C
2855 01-03-2020 21:50:00 6.3 C 96 % 5.71 C
2856 01-03-2020 21:55:00 6.4 C 96 % 5.81 C
2857 01-03-2020 22:00:00 6.5 C 96 % 5.91 C
2858 01-03-2020 22:05:00 6.6 C 96 % 6.01 C
2859 01-03-2020 22:10:00 6.6 C 96 % 6.01 C
2860 01-03-2020 22:15:00 6.7 C 96 % 6.11 C
2861 01-03-2020 22:20:00 6.7 C 96 % 6.11 C
2862 01-03-2020 22:25:00 6.8 C 96 % 6.21 C
2863 01-03-2020 22:30:00 6.8 C 96 % 6.21 C
2864 01-03-2020 22:35:00 6.8 C 96 % 6.21 C
2865 01-03-2020 22:40:00 6.8 C 96 % 6.21 C
2866 01-03-2020 22:45:00 6.8 C 96 % 6.21 C
2867 01-03-2020 22:50:00 6.8 C 96 % 6.21 C
2868 01-03-2020 22:55:00 6.8 C 96 % 6.21 C
2869 01-03-2020 23:00:00 6.9 C 96 % 6.31 C
2870 01-03-2020 23:05:00 6.9 C 96 % 6.31 C
2871 01-03-2020 23:10:00 6.9 C 96 % 6.31 C
2872 01-03-2020 23:15:00 7 C 96 % 6.41 C
2873 01-03-2020 23:20:00 6.2 C 95 % 5.46 C
2874 01-03-2020 23:25:00 5.4 C 92 % 4.21 C
2875 01-03-2020 23:30:00 5.1 C 92 % 3.91 C
Sensor: Nr:Datum:Temp:Feuchte:Taupunkt:
Aussen-T/F 2876 01-03-2020 23:35:00 4.8 C 91 % 3.46 C
2877 01-03-2020 23:40:00 4.3 C 91 % 2.96 C
2878 01-03-2020 23:45:00 4.1 C 92 % 2.92 C
2879 01-03-2020 23:50:00 3.9 C 93 % 2.87 C
2880 01-03-2020 23:55:00 3.8 C 93 % 2.77 C
2881 02-03-2020 00:00:00 3.8 C 93 % 2.77 C
2882 02-03-2020 00:05:00 3.9 C 94 % 3.02 C
2883 02-03-2020 00:10:00 3.9 C 94 % 3.02 C
2884 02-03-2020 00:15:00 4 C 94 % 3.12 C
2885 02-03-2020 00:20:00 4.1 C 94 % 3.22 C
2886 02-03-2020 00:25:00 4.1 C 94 % 3.22 C
2887 02-03-2020 00:30:00 4.1 C 94 % 3.22 C
2888 02-03-2020 00:35:00 4.2 C 94 % 3.32 C
2889 02-03-2020 00:40:00 4.2 C 94 % 3.32 C
2890 02-03-2020 00:45:00 4.2 C 94 % 3.32 C
2891 02-03-2020 00:50:00 4.2 C 94 % 3.32 C
2892 02-03-2020 00:55:00 4.3 C 94 % 3.42 C
2893 02-03-2020 01:00:00 4.3 C 94 % 3.42 C
2894 02-03-2020 01:05:00 4.3 C 93 % 3.27 C
2895 02-03-2020 01:10:00 4.3 C 93 % 3.27 C
2896 02-03-2020 01:15:00 4.3 C 93 % 3.27 C
2897 02-03-2020 01:20:00 4.3 C 93 % 3.27 C
2898 02-03-2020 01:25:00 4.3 C 93 % 3.27 C
2899 02-03-2020 01:30:00 4.3 C 93 % 3.27 C
2900 02-03-2020 01:35:00 4.3 C 93 % 3.27 C
Sensor: Nr:Datum:Temp:Feuchte:Taupunkt:
Aussen-T/F 2901 02-03-2020 01:40:00 4.3 C 93 % 3.27 C
2902 02-03-2020 01:45:00 4.3 C 93 % 3.27 C
2903 02-03-2020 01:50:00 4.3 C 93 % 3.27 C
2904 02-03-2020 01:55:00 4.4 C 93 % 3.37 C
2905 02-03-2020 02:00:00 4.3 C 93 % 3.27 C
2906 02-03-2020 02:05:00 4.3 C 93 % 3.27 C
2907 02-03-2020 02:10:00 4.2 C 93 % 3.17 C
2908 02-03-2020 02:15:00 4.2 C 93 % 3.17 C
2909 02-03-2020 02:20:00 4.2 C 93 % 3.17 C
2910 02-03-2020 02:25:00 4.2 C 93 % 3.17 C
2911 02-03-2020 02:30:00 4.1 C 93 % 3.07 C
2912 02-03-2020 02:35:00 4.2 C 93 % 3.17 C
2913 02-03-2020 02:40:00 4.3 C 93 % 3.27 C
2914 02-03-2020 02:45:00 4.3 C 93 % 3.27 C
2915 02-03-2020 02:50:00 4.4 C 93 % 3.37 C
2916 02-03-2020 02:55:00 4.3 C 93 % 3.27 C
2917 02-03-2020 03:00:00 4.2 C 93 % 3.17 C
2918 02-03-2020 03:05:00 4.2 C 93 % 3.17 C
2919 02-03-2020 03:10:00 4.1 C 93 % 3.07 C
2920 02-03-2020 03:15:00 4.1 C 93 % 3.07 C
2921 02-03-2020 03:20:00 4.1 C 93 % 3.07 C
2922 02-03-2020 03:25:00 3.9 C 93 % 2.87 C
2923 02-03-2020 03:30:00 3.9 C 92 % 2.72 C
2924 02-03-2020 03:35:00 3.8 C 93 % 2.77 C
2925 02-03-2020 03:40:00 3.7 C 93 % 2.68 C
Sensor: Nr:Datum:Temp:Feuchte:Taupunkt:
Aussen-T/F 2926 02-03-2020 03:45:00 3.6 C 93 % 2.58 C
2927 02-03-2020 03:50:00 3.6 C 93 % 2.58 C
2928 02-03-2020 03:55:00 3.5 C 93 % 2.48 C
2929 02-03-2020 04:00:00 3.4 C 93 % 2.38 C
2930 02-03-2020 04:05:00 3.4 C 93 % 2.38 C
2931 02-03-2020 04:10:00 3.3 C 94 % 2.43 C
2932 02-03-2020 04:15:00 3.2 C 94 % 2.33 C
2933 02-03-2020 04:20:00 3.1 C 94 % 2.23 C
2934 02-03-2020 04:25:00 3.2 C 94 % 2.33 C
2935 02-03-2020 04:30:00 3.2 C 94 % 2.33 C
2936 02-03-2020 04:35:00 3.2 C 94 % 2.33 C
2937 02-03-2020 04:40:00 3.2 C 94 % 2.33 C
2938 02-03-2020 04:45:00 3.2 C 95 % 2.48 C
2939 02-03-2020 04:50:00 3.2 C 94 % 2.33 C
2940 02-03-2020 04:55:00 3.1 C 94 % 2.23 C
2941 02-03-2020 05:00:00 3 C 94 % 2.13 C
2942 02-03-2020 05:05:00 2.9 C 94 % 2.03 C
2943 02-03-2020 05:10:00 2.8 C 94 % 1.93 C
2944 02-03-2020 05:15:00 2.7 C 94 % 1.83 C
2945 02-03-2020 05:20:00 2.6 C 94 % 1.73 C
2946 02-03-2020 05:25:00 2.5 C 94 % 1.63 C
2947 02-03-2020 05:30:00 2.4 C 94 % 1.54 C
2948 02-03-2020 05:35:00 2.3 C 94 % 1.44 C
2949 02-03-2020 05:40:00 2.2 C 94 % 1.34 C
2950 02-03-2020 05:45:00 2.2 C 95 % 1.48 C
Sensor: Nr:Datum:Temp:Feuchte:Taupunkt:
Aussen-T/F 2951 02-03-2020 05:50:00 2.2 C 95 % 1.48 C
2952 02-03-2020 05:55:00 2.1 C 95 % 1.38 C
2953 02-03-2020 06:00:00 2.1 C 95 % 1.38 C
2954 02-03-2020 06:05:00 2.1 C 95 % 1.38 C
2955 02-03-2020 06:10:00 2.1 C 95 % 1.38 C
2956 02-03-2020 06:15:00 2.1 C 95 % 1.38 C
2957 02-03-2020 06:20:00 2.1 C 95 % 1.38 C
2958 02-03-2020 06:25:00 2.2 C 95 % 1.48 C
2959 02-03-2020 06:30:00 2.3 C 95 % 1.58 C
2960 02-03-2020 06:35:00 2.4 C 96 % 1.83 C
2961 02-03-2020 06:40:00 2.4 C 95 % 1.68 C
2962 02-03-2020 06:45:00 2.3 C 95 % 1.58 C
2963 02-03-2020 06:50:00 2.3 C 95 % 1.58 C
2964 02-03-2020 06:55:00 2.4 C 95 % 1.68 C
2965 02-03-2020 07:00:00 2.4 C 96 % 1.83 C
2966 02-03-2020 07:05:00 2.4 C 96 % 1.83 C
2967 02-03-2020 07:10:00 2.4 C 96 % 1.83 C
2968 02-03-2020 07:15:00 2.4 C 96 % 1.83 C
2969 02-03-2020 07:20:00 2.6 C 96 % 2.03 C
2970 02-03-2020 07:25:00 2.7 C 96 % 2.13 C
2971 02-03-2020 07:30:00 2.7 C 96 % 2.13 C
2972 02-03-2020 07:35:00 2.8 C 96 % 2.23 C
2973 02-03-2020 07:40:00 2.8 C 96 % 2.23 C
2974 02-03-2020 07:45:00 2.9 C 96 % 2.33 C
2975 02-03-2020 07:50:00 2.9 C 96 % 2.33 C
Sensor: Nr:Datum:Temp:Feuchte:Taupunkt:
Aussen-T/F 2976 02-03-2020 07:55:00 3.1 C 96 % 2.53 C
2977 02-03-2020 08:00:00 3.1 C 96 % 2.53 C
2978 02-03-2020 08:05:00 3.2 C 96 % 2.63 C
2979 02-03-2020 08:10:00 3.3 C 96 % 2.72 C
2980 02-03-2020 08:15:00 3.3 C 96 % 2.72 C
2981 02-03-2020 08:20:00 3.4 C 96 % 2.82 C
2982 02-03-2020 08:25:00 3.4 C 96 % 2.82 C
2983 02-03-2020 08:30:00 3.5 C 96 % 2.92 C
2984 02-03-2020 08:35:00 3.6 C 96 % 3.02 C
2985 02-03-2020 08:40:00 3.7 C 97 % 3.27 C
2986 02-03-2020 08:45:00 3.8 C 97 % 3.37 C
2987 02-03-2020 08:50:00 3.9 C 96 % 3.32 C
2988 02-03-2020 08:55:00 4.1 C 97 % 3.67 C
2989 02-03-2020 09:00:00 4.2 C 97 % 3.77 C
2990 02-03-2020 09:05:00 4.3 C 96 % 3.72 C
2991 02-03-2020 09:10:00 4.4 C 97 % 3.97 C
2992 02-03-2020 09:15:00 4.5 C 97 % 4.07 C
2993 02-03-2020 09:20:00 4.6 C 96 % 4.02 C
2994 02-03-2020 09:25:00 4.7 C 97 % 4.27 C
2995 02-03-2020 09:30:00 4.8 C 96 % 4.22 C
2996 02-03-2020 09:35:00 4.9 C 96 % 4.32 C
2997 02-03-2020 09:40:00 5.1 C 95 % 4.37 C
2998 02-03-2020 09:45:00 5.3 C 95 % 4.57 C
2999 02-03-2020 09:50:00 5.4 C 94 % 4.51 C
3000 02-03-2020 09:55:00 5.7 C 93 % 4.66 C
Sensor: Nr:Datum:Temp:Feuchte:Taupunkt:
Aussen-T/F 3001 02-03-2020 10:00:00 5.8 C 92 % 4.6 C
3002 02-03-2020 10:05:00 6.1 C 91 % 4.74 C
3003 02-03-2020 10:10:00 6.3 C 90 % 4.78 C
3004 02-03-2020 10:15:00 6.4 C 89 % 4.72 C
3005 02-03-2020 10:20:00 6.6 C 88 % 4.76 C
3006 02-03-2020 10:25:00 6.8 C 88 % 4.96 C
3007 02-03-2020 10:30:00 7 C 86 % 4.82 C
3008 02-03-2020 10:35:00 7.2 C 85 % 4.85 C
3009 02-03-2020 10:40:00 7.4 C 86 % 5.22 C
3010 02-03-2020 10:45:00 7.7 C 86 % 5.51 C
3011 02-03-2020 10:50:00 7.9 C 84 % 5.37 C
3012 02-03-2020 10:55:00 8.2 C 84 % 5.66 C
3013 02-03-2020 11:00:00 8.4 C 83 % 5.69 C
3014 02-03-2020 11:05:00 8.7 C 81 % 5.63 C
3015 02-03-2020 11:10:00 9 C 81 % 5.92 C
3016 02-03-2020 11:15:00 9.2 C 80 % 5.94 C
3017 02-03-2020 11:20:00 9.3 C 78 % 5.67 C
3018 02-03-2020 11:25:00 9.4 C 77 % 5.58 C
3019 02-03-2020 11:30:00 9.6 C 77 % 5.77 C
3020 02-03-2020 11:35:00 9.7 C 76 % 5.68 C
3021 02-03-2020 11:40:00 9.9 C 77 % 6.06 C
3022 02-03-2020 11:45:00 10.1 C 74 % 5.68 C
3023 02-03-2020 11:50:00 10.2 C 73 % 5.58 C
3024 02-03-2020 11:55:00 10.2 C 75 % 5.97 C
3025 02-03-2020 12:00:00 10.4 C 72 % 5.58 C
Sensor: Nr:Datum:Temp:Feuchte:Taupunkt:
Aussen-T/F 3026 02-03-2020 12:05:00 10.6 C 71 % 5.57 C
3027 02-03-2020 12:10:00 10.7 C 71 % 5.66 C
3028 02-03-2020 12:15:00 10.8 C 70 % 5.56 C
3029 02-03-2020 12:20:00 10.8 C 68 % 5.14 C
3030 02-03-2020 12:25:00 10.9 C 70 % 5.65 C
3031 02-03-2020 12:30:00 10.8 C 68 % 5.14 C
3032 02-03-2020 12:35:00 10.8 C 68 % 5.14 C
3033 02-03-2020 12:40:00 10.9 C 71 % 5.86 C
3034 02-03-2020 12:45:00 11 C 68 % 5.33 C
3035 02-03-2020 12:50:00 11 C 67 % 5.12 C
3036 02-03-2020 12:55:00 10.9 C 69 % 5.44 C
3037 02-03-2020 13:00:00 10.8 C 70 % 5.56 C
3038 02-03-2020 13:05:00 10.8 C 69 % 5.35 C
3039 02-03-2020 13:10:00 10.9 C 71 % 5.86 C
3040 02-03-2020 13:15:00 11.1 C 68 % 5.43 C
3041 02-03-2020 13:20:00 11.4 C 69 % 5.92 C
3042 02-03-2020 13:25:00 11.7 C 67 % 5.78 C
3043 02-03-2020 13:30:00 11.8 C 67 % 5.88 C
3044 02-03-2020 13:35:00 11.9 C 67 % 5.98 C
3045 02-03-2020 13:40:00 12.2 C 67 % 6.26 C
3046 02-03-2020 13:45:00 12.3 C 65 % 5.92 C
3047 02-03-2020 13:50:00 12.2 C 65 % 5.82 C
3048 02-03-2020 13:55:00 11.9 C 64 % 5.32 C
3049 02-03-2020 14:00:00 11.7 C 66 % 5.57 C
3050 02-03-2020 14:05:00 11.5 C 68 % 5.81 C
Sensor: Nr:Datum:Temp:Feuchte:Taupunkt:
Aussen-T/F 3051 02-03-2020 14:10:00 11.4 C 68 % 5.71 C
3052 02-03-2020 14:15:00 11.3 C 67 % 5.4 C
3053 02-03-2020 14:20:00 11.2 C 68 % 5.52 C
3054 02-03-2020 14:25:00 11 C 69 % 5.54 C
3055 02-03-2020 14:30:00 11 C 69 % 5.54 C
3056 02-03-2020 14:35:00 10.9 C 69 % 5.44 C
3057 02-03-2020 14:40:00 10.9 C 68 % 5.23 C
3058 02-03-2020 14:45:00 10.8 C 69 % 5.35 C
3059 02-03-2020 14:50:00 10.7 C 69 % 5.25 C
3060 02-03-2020 14:55:00 10.7 C 68 % 5.04 C
3061 02-03-2020 15:00:00 10.6 C 69 % 5.16 C
3062 02-03-2020 15:05:00 10.6 C 70 % 5.36 C
3063 02-03-2020 15:10:00 10.6 C 70 % 5.36 C
3064 02-03-2020 15:15:00 10.5 C 70 % 5.27 C
3065 02-03-2020 15:20:00 10.5 C 70 % 5.27 C
3066 02-03-2020 15:25:00 10.5 C 71 % 5.47 C
3067 02-03-2020 15:30:00 10.4 C 70 % 5.17 C
3068 02-03-2020 15:35:00 10.4 C 72 % 5.58 C
3069 02-03-2020 15:40:00 10.3 C 72 % 5.48 C
3070 02-03-2020 15:45:00 10.2 C 75 % 5.97 C
3071 02-03-2020 15:50:00 10.2 C 76 % 6.16 C
3072 02-03-2020 15:55:00 10.2 C 80 % 6.91 C
3073 02-03-2020 16:00:00 10.1 C 83 % 7.35 C
3074 02-03-2020 16:05:00 9.8 C 83 % 7.05 C
3075 02-03-2020 16:10:00 9.6 C 85 % 7.21 C
Sensor: Nr:Datum:Temp:Feuchte:Taupunkt:
Aussen-T/F 3076 02-03-2020 16:15:00 9.4 C 86 % 7.18 C
3077 02-03-2020 16:20:00 9.2 C 87 % 7.15 C
3078 02-03-2020 16:25:00 9.1 C 87 % 7.05 C
3079 02-03-2020 16:30:00 8.8 C 88 % 6.93 C
3080 02-03-2020 16:35:00 8.7 C 89 % 6.99 C
3081 02-03-2020 16:40:00 8.6 C 89 % 6.89 C
3082 02-03-2020 16:45:00 8.4 C 90 % 6.86 C
3083 02-03-2020 16:50:00 8.3 C 90 % 6.76 C
3084 02-03-2020 16:55:00 8.2 C 90 % 6.66 C
3085 02-03-2020 17:00:00 8.1 C 91 % 6.72 C
3086 02-03-2020 17:05:00 8 C 91 % 6.62 C
3087 02-03-2020 17:10:00 7.9 C 91 % 6.52 C
3088 02-03-2020 17:15:00 7.8 C 91 % 6.43 C
3089 02-03-2020 17:20:00 7.7 C 91 % 6.33 C
3090 02-03-2020 17:25:00 7.6 C 92 % 6.39 C
3091 02-03-2020 17:30:00 7.6 C 92 % 6.39 C
3092 02-03-2020 17:35:00 7.5 C 92 % 6.29 C
3093 02-03-2020 17:40:00 7.4 C 93 % 6.34 C
3094 02-03-2020 17:45:00 7.4 C 93 % 6.34 C
3095 02-03-2020 17:50:00 7.3 C 93 % 6.25 C
3096 02-03-2020 17:55:00 7.3 C 93 % 6.25 C
3097 02-03-2020 18:00:00 7.2 C 93 % 6.15 C
3098 02-03-2020 18:05:00 7.2 C 93 % 6.15 C
3099 02-03-2020 18:10:00 7.2 C 93 % 6.15 C
3100 02-03-2020 18:15:00 7.1 C 93 % 6.05 C
Sensor: Nr:Datum:Temp:Feuchte:Taupunkt:
Aussen-T/F 3101 02-03-2020 18:20:00 7.1 C 93 % 6.05 C
3102 02-03-2020 18:25:00 7 C 94 % 6.1 C
3103 02-03-2020 18:30:00 7 C 94 % 6.1 C
3104 02-03-2020 18:35:00 6.9 C 94 % 6 C
3105 02-03-2020 18:40:00 6.9 C 94 % 6 C
3106 02-03-2020 18:45:00 6.8 C 94 % 5.9 C
3107 02-03-2020 18:50:00 6.8 C 94 % 5.9 C
3108 02-03-2020 18:55:00 6.7 C 94 % 5.8 C
3109 02-03-2020 19:00:00 6.7 C 94 % 5.8 C
3110 02-03-2020 19:05:00 6.7 C 94 % 5.8 C
3111 02-03-2020 19:10:00 6.6 C 94 % 5.71 C
3112 02-03-2020 19:15:00 6.6 C 94 % 5.71 C
3113 02-03-2020 19:20:00 6.6 C 94 % 5.71 C
3114 02-03-2020 19:25:00 6.5 C 95 % 5.76 C
3115 02-03-2020 19:30:00 6.5 C 95 % 5.76 C
3116 02-03-2020 19:35:00 6.5 C 95 % 5.76 C
3117 02-03-2020 19:40:00 6.5 C 95 % 5.76 C
3118 02-03-2020 19:45:00 6.4 C 95 % 5.66 C
3119 02-03-2020 19:50:00 6.4 C 95 % 5.66 C
3120 02-03-2020 19:55:00 6.4 C 95 % 5.66 C
3121 02-03-2020 20:00:00 6.4 C 95 % 5.66 C
3122 02-03-2020 20:05:00 6.4 C 95 % 5.66 C
3123 02-03-2020 20:10:00 6.4 C 95 % 5.66 C
3124 02-03-2020 20:15:00 6.4 C 95 % 5.66 C
3125 02-03-2020 20:20:00 6.4 C 95 % 5.66 C
Sensor: Nr:Datum:Temp:Feuchte:Taupunkt:
Aussen-T/F 3126 02-03-2020 20:25:00 6.4 C 95 % 5.66 C
3127 02-03-2020 20:30:00 6.4 C 95 % 5.66 C
3128 02-03-2020 20:35:00 6.3 C 95 % 5.56 C
3129 02-03-2020 20:40:00 6.3 C 95 % 5.56 C
3130 02-03-2020 20:45:00 6.3 C 95 % 5.56 C
3131 02-03-2020 20:50:00 6.3 C 95 % 5.56 C
3132 02-03-2020 20:55:00 6.3 C 95 % 5.56 C
3133 02-03-2020 21:00:00 6.3 C 95 % 5.56 C
3134 02-03-2020 21:05:00 6.3 C 95 % 5.56 C
3135 02-03-2020 21:10:00 6.3 C 95 % 5.56 C
3136 02-03-2020 21:15:00 6.2 C 95 % 5.46 C
3137 02-03-2020 21:20:00 6.2 C 95 % 5.46 C
3138 02-03-2020 21:25:00 6.2 C 95 % 5.46 C
3139 02-03-2020 21:30:00 6.2 C 95 % 5.46 C
3140 02-03-2020 21:35:00 6.2 C 95 % 5.46 C
3141 02-03-2020 21:40:00 6.2 C 95 % 5.46 C
3142 02-03-2020 21:45:00 6.2 C 96 % 5.61 C
3143 02-03-2020 21:50:00 6.2 C 96 % 5.61 C
3144 02-03-2020 21:55:00 6.2 C 96 % 5.61 C
3145 02-03-2020 22:00:00 6.2 C 96 % 5.61 C
3146 02-03-2020 22:05:00 6.1 C 96 % 5.51 C
3147 02-03-2020 22:10:00 6.1 C 96 % 5.51 C
3148 02-03-2020 22:15:00 6.2 C 96 % 5.61 C
3149 02-03-2020 22:20:00 6.1 C 96 % 5.51 C
3150 02-03-2020 22:25:00 6.2 C 96 % 5.61 C
Sensor: Nr:Datum:Temp:Feuchte:Taupunkt:
Aussen-T/F 3151 02-03-2020 22:30:00 6.2 C 96 % 5.61 C
3152 02-03-2020 22:35:00 6.2 C 96 % 5.61 C
3153 02-03-2020 22:40:00 6.2 C 96 % 5.61 C
3154 02-03-2020 22:45:00 6.2 C 96 % 5.61 C
3155 02-03-2020 22:50:00 6.1 C 96 % 5.51 C
3156 02-03-2020 22:55:00 6.1 C 96 % 5.51 C
3157 02-03-2020 23:00:00 6.1 C 96 % 5.51 C
3158 02-03-2020 23:05:00 6.1 C 96 % 5.51 C
3159 02-03-2020 23:10:00 6 C 96 % 5.41 C
3160 02-03-2020 23:15:00 6 C 96 % 5.41 C
3161 02-03-2020 23:20:00 5.9 C 96 % 5.31 C
3162 02-03-2020 23:25:00 5.9 C 96 % 5.31 C
3163 02-03-2020 23:30:00 5.9 C 96 % 5.31 C
3164 02-03-2020 23:35:00 5.9 C 96 % 5.31 C
3165 02-03-2020 23:40:00 5.9 C 96 % 5.31 C
3166 02-03-2020 23:45:00 5.9 C 96 % 5.31 C
3167 02-03-2020 23:50:00 5.9 C 96 % 5.31 C
3168 02-03-2020 23:55:00 5.9 C 96 % 5.31 C
3169 03-03-2020 00:00:00 5.9 C 96 % 5.31 C
3170 03-03-2020 00:05:00 5.9 C 96 % 5.31 C
3171 03-03-2020 00:10:00 5.9 C 96 % 5.31 C
3172 03-03-2020 00:15:00 5.9 C 96 % 5.31 C
3173 03-03-2020 00:20:00 5.8 C 96 % 5.21 C
3174 03-03-2020 00:25:00 5.8 C 96 % 5.21 C
3175 03-03-2020 00:30:00 5.8 C 96 % 5.21 C
Sensor: Nr:Datum:Temp:Feuchte:Taupunkt:
Aussen-T/F 3176 03-03-2020 00:35:00 5.7 C 96 % 5.11 C
3177 03-03-2020 00:40:00 5.7 C 96 % 5.11 C
3178 03-03-2020 00:45:00 5.7 C 96 % 5.11 C
3179 03-03-2020 00:50:00 5.7 C 96 % 5.11 C
3180 03-03-2020 00:55:00 5.7 C 96 % 5.11 C
3181 03-03-2020 01:00:00 5.7 C 96 % 5.11 C
3182 03-03-2020 01:05:00 5.7 C 96 % 5.11 C
3183 03-03-2020 01:10:00 5.7 C 96 % 5.11 C
3184 03-03-2020 01:15:00 5.7 C 96 % 5.11 C
3185 03-03-2020 01:20:00 5.7 C 96 % 5.11 C
3186 03-03-2020 01:25:00 5.8 C 95 % 5.06 C
3187 03-03-2020 01:30:00 5.8 C 95 % 5.06 C
3188 03-03-2020 01:35:00 5.7 C 94 % 4.81 C
3189 03-03-2020 01:40:00 5.5 C 93 % 4.46 C
3190 03-03-2020 01:45:00 5.4 C 93 % 4.36 C
3191 03-03-2020 01:50:00 5.3 C 93 % 4.26 C
3192 03-03-2020 01:55:00 5.3 C 93 % 4.26 C
3193 03-03-2020 02:00:00 5.3 C 93 % 4.26 C
3194 03-03-2020 02:05:00 5.3 C 93 % 4.26 C
3195 03-03-2020 02:10:00 5.3 C 93 % 4.26 C
3196 03-03-2020 02:15:00 5.2 C 93 % 4.16 C
3197 03-03-2020 02:20:00 5.2 C 93 % 4.16 C
3198 03-03-2020 02:25:00 5.1 C 93 % 4.06 C
3199 03-03-2020 02:30:00 5.1 C 91 % 3.76 C
3200 03-03-2020 02:35:00 5.2 C 91 % 3.85 C
Sensor: Nr:Datum:Temp:Feuchte:Taupunkt:
Aussen-T/F 3201 03-03-2020 02:40:00 5.2 C 90 % 3.7 C
3202 03-03-2020 02:45:00 5.2 C 90 % 3.7 C
3203 03-03-2020 02:50:00 5.2 C 90 % 3.7 C
3204 03-03-2020 02:55:00 5.1 C 89 % 3.44 C
3205 03-03-2020 03:00:00 5.1 C 90 % 3.6 C
3206 03-03-2020 03:05:00 4.9 C 91 % 3.56 C
3207 03-03-2020 03:10:00 4.8 C 90 % 3.3 C
3208 03-03-2020 03:15:00 4.7 C 91 % 3.36 C
3209 03-03-2020 03:20:00 4.5 C 89 % 2.85 C
3210 03-03-2020 03:25:00 4.4 C 89 % 2.75 C
3211 03-03-2020 03:30:00 4.4 C 90 % 2.91 C
3212 03-03-2020 03:35:00 4.3 C 90 % 2.81 C
3213 03-03-2020 03:40:00 4.2 C 90 % 2.71 C
3214 03-03-2020 03:45:00 4.1 C 91 % 2.77 C
3215 03-03-2020 03:50:00 3.9 C 91 % 2.57 C
3216 03-03-2020 03:55:00 3.9 C 91 % 2.57 C
3217 03-03-2020 04:00:00 3.8 C 91 % 2.47 C
3218 03-03-2020 04:05:00 3.7 C 92 % 2.52 C
3219 03-03-2020 04:10:00 3.7 C 92 % 2.52 C
3220 03-03-2020 04:15:00 3.6 C 92 % 2.42 C
3221 03-03-2020 04:20:00 3.6 C 92 % 2.42 C
3222 03-03-2020 04:25:00 3.6 C 92 % 2.42 C
3223 03-03-2020 04:30:00 3.6 C 92 % 2.42 C
3224 03-03-2020 04:35:00 3.6 C 92 % 2.42 C
3225 03-03-2020 04:40:00 3.7 C 92 % 2.52 C
Sensor: Nr:Datum:Temp:Feuchte:Taupunkt:
Aussen-T/F 3226 03-03-2020 04:45:00 3.7 C 92 % 2.52 C
3227 03-03-2020 04:50:00 3.6 C 92 % 2.42 C
3228 03-03-2020 04:55:00 3.6 C 93 % 2.58 C
3229 03-03-2020 05:00:00 3.6 C 92 % 2.42 C
3230 03-03-2020 05:05:00 3.6 C 92 % 2.42 C
3231 03-03-2020 05:10:00 3.6 C 92 % 2.42 C
3232 03-03-2020 05:15:00 3.6 C 92 % 2.42 C
3233 03-03-2020 05:20:00 3.5 C 92 % 2.33 C
3234 03-03-2020 05:25:00 3.4 C 92 % 2.23 C
3235 03-03-2020 05:30:00 3.3 C 93 % 2.28 C
3236 03-03-2020 05:35:00 3.3 C 93 % 2.28 C
3237 03-03-2020 05:40:00 3.3 C 93 % 2.28 C
3238 03-03-2020 05:45:00 3.3 C 93 % 2.28 C
3239 03-03-2020 05:50:00 3.3 C 93 % 2.28 C
3240 03-03-2020 05:55:00 3.2 C 93 % 2.18 C
3241 03-03-2020 06:00:00 3.2 C 93 % 2.18 C
3242 03-03-2020 06:05:00 3.2 C 93 % 2.18 C
3243 03-03-2020 06:10:00 3.3 C 94 % 2.43 C
3244 03-03-2020 06:15:00 3.3 C 94 % 2.43 C
3245 03-03-2020 06:20:00 3.4 C 93 % 2.38 C
3246 03-03-2020 06:25:00 3.4 C 93 % 2.38 C
3247 03-03-2020 06:30:00 3.4 C 93 % 2.38 C
3248 03-03-2020 06:35:00 3.3 C 93 % 2.28 C
3249 03-03-2020 06:40:00 3.3 C 93 % 2.28 C
3250 03-03-2020 06:45:00 3.2 C 93 % 2.18 C
Sensor: Nr:Datum:Temp:Feuchte:Taupunkt:
Aussen-T/F 3251 03-03-2020 06:50:00 3.2 C 93 % 2.18 C
3252 03-03-2020 06:55:00 3.2 C 93 % 2.18 C
3253 03-03-2020 07:00:00 3.2 C 93 % 2.18 C
3254 03-03-2020 07:05:00 3.3 C 93 % 2.28 C
3255 03-03-2020 07:10:00 3.3 C 93 % 2.28 C
3256 03-03-2020 07:15:00 3.3 C 93 % 2.28 C
3257 03-03-2020 07:20:00 3.3 C 93 % 2.28 C
3258 03-03-2020 07:25:00 3.3 C 93 % 2.28 C
3259 03-03-2020 07:30:00 3.3 C 93 % 2.28 C
3260 03-03-2020 07:35:00 3.3 C 93 % 2.28 C
3261 03-03-2020 07:40:00 3.3 C 93 % 2.28 C
3262 03-03-2020 07:45:00 3.3 C 93 % 2.28 C
3263 03-03-2020 07:50:00 3.2 C 93 % 2.18 C
3264 03-03-2020 07:55:00 3.2 C 93 % 2.18 C
3265 03-03-2020 08:00:00 3.2 C 93 % 2.18 C
3266 03-03-2020 08:05:00 3.2 C 93 % 2.18 C
3267 03-03-2020 08:10:00 3.2 C 93 % 2.18 C
3268 03-03-2020 08:15:00 3.2 C 93 % 2.18 C
3269 03-03-2020 08:20:00 3.3 C 93 % 2.28 C
3270 03-03-2020 08:25:00 3.4 C 93 % 2.38 C
3271 03-03-2020 08:30:00 3.5 C 93 % 2.48 C
3272 03-03-2020 08:35:00 3.7 C 93 % 2.68 C
3273 03-03-2020 08:40:00 3.8 C 92 % 2.62 C
3274 03-03-2020 08:45:00 3.8 C 92 % 2.62 C
3275 03-03-2020 08:50:00 3.9 C 91 % 2.57 C
Sensor: Nr:Datum:Temp:Feuchte:Taupunkt:
Aussen-T/F 3276 03-03-2020 08:55:00 3.9 C 90 % 2.41 C
3277 03-03-2020 09:00:00 3.9 C 90 % 2.41 C
3278 03-03-2020 09:05:00 3.9 C 90 % 2.41 C
3279 03-03-2020 09:10:00 3.9 C 90 % 2.41 C
3280 03-03-2020 09:15:00 3.9 C 90 % 2.41 C
3281 03-03-2020 09:20:00 3.8 C 90 % 2.31 C
3282 03-03-2020 09:25:00 3.9 C 90 % 2.41 C
3283 03-03-2020 09:30:00 3.9 C 90 % 2.41 C
3284 03-03-2020 09:35:00 4.1 C 90 % 2.61 C
3285 03-03-2020 09:40:00 4.1 C 90 % 2.61 C
3286 03-03-2020 09:45:00 4.2 C 90 % 2.71 C
3287 03-03-2020 09:50:00 4.3 C 90 % 2.81 C
3288 03-03-2020 09:55:00 4.4 C 89 % 2.75 C
3289 03-03-2020 10:00:00 4.7 C 88 % 2.89 C
3290 03-03-2020 10:05:00 4.8 C 87 % 2.82 C
3291 03-03-2020 10:10:00 5.1 C 87 % 3.12 C
3292 03-03-2020 10:15:00 5.3 C 85 % 2.99 C
3293 03-03-2020 10:20:00 5.3 C 84 % 2.82 C
3294 03-03-2020 10:25:00 5.4 C 84 % 2.92 C
3295 03-03-2020 10:30:00 5.4 C 84 % 2.92 C
3296 03-03-2020 10:35:00 5.5 C 84 % 3.02 C
3297 03-03-2020 10:40:00 5.5 C 82 % 2.68 C
3298 03-03-2020 10:45:00 5.4 C 82 % 2.58 C
3299 03-03-2020 10:50:00 5.3 C 81 % 2.31 C
3300 03-03-2020 10:55:00 5.2 C 82 % 2.39 C
Sensor: Nr:Datum:Temp:Feuchte:Taupunkt:
Aussen-T/F 3301 03-03-2020 11:00:00 5.2 C 82 % 2.39 C
3302 03-03-2020 11:05:00 5.3 C 83 % 2.65 C
3303 03-03-2020 11:10:00 5.3 C 83 % 2.65 C
3304 03-03-2020 11:15:00 5.4 C 83 % 2.75 C
3305 03-03-2020 11:20:00 5.4 C 84 % 2.92 C
3306 03-03-2020 11:25:00 5.5 C 84 % 3.02 C
3307 03-03-2020 11:30:00 5.4 C 83 % 2.75 C
3308 03-03-2020 11:35:00 5.4 C 83 % 2.75 C
3309 03-03-2020 11:40:00 5.5 C 84 % 3.02 C
3310 03-03-2020 11:45:00 5.6 C 84 % 3.12 C
3311 03-03-2020 11:50:00 5.7 C 83 % 3.04 C
3312 03-03-2020 11:55:00 5.7 C 82 % 2.87 C
3313 03-03-2020 12:00:00 5.8 C 83 % 3.14 C
3314 03-03-2020 12:05:00 5.8 C 83 % 3.14 C
3315 03-03-2020 12:10:00 5.9 C 82 % 3.07 C
3316 03-03-2020 12:15:00 6 C 82 % 3.17 C
3317 03-03-2020 12:20:00 6.1 C 82 % 3.26 C
3318 03-03-2020 12:25:00 6.2 C 82 % 3.36 C
3319 03-03-2020 12:30:00 6.3 C 82 % 3.46 C
3320 03-03-2020 12:35:00 6.4 C 81 % 3.38 C
3321 03-03-2020 12:40:00 6.5 C 81 % 3.48 C
3322 03-03-2020 12:45:00 6.6 C 81 % 3.58 C
3323 03-03-2020 12:50:00 6.6 C 80 % 3.4 C
3324 03-03-2020 12:55:00 6.6 C 79 % 3.23 C
3325 03-03-2020 13:00:00 6.5 C 79 % 3.13 C
Sensor: Nr:Datum:Temp:Feuchte:Taupunkt:
Aussen-T/F 3326 03-03-2020 13:05:00 6.6 C 78 % 3.05 C
3327 03-03-2020 13:10:00 6.7 C 78 % 3.14 C
3328 03-03-2020 13:15:00 6.9 C 78 % 3.34 C
3329 03-03-2020 13:20:00 7.2 C 76 % 3.26 C
3330 03-03-2020 13:25:00 7.4 C 77 % 3.64 C
3331 03-03-2020 13:30:00 7.6 C 76 % 3.65 C
3332 03-03-2020 13:35:00 7.7 C 75 % 3.56 C
3333 03-03-2020 13:40:00 7.7 C 74 % 3.37 C
3334 03-03-2020 13:45:00 7.9 C 73 % 3.37 C
3335 03-03-2020 13:50:00 8 C 74 % 3.66 C
3336 03-03-2020 13:55:00 7.8 C 74 % 3.46 C
3337 03-03-2020 14:00:00 7.4 C 76 % 3.45 C
3338 03-03-2020 14:05:00 7.2 C 80 % 3.99 C
3339 03-03-2020 14:10:00 7 C 82 % 4.14 C
3340 03-03-2020 14:15:00 6.8 C 83 % 4.12 C
3341 03-03-2020 14:20:00 6.7 C 84 % 4.19 C
3342 03-03-2020 14:25:00 6.6 C 85 % 4.26 C
3343 03-03-2020 14:30:00 6.5 C 85 % 4.17 C
3344 03-03-2020 14:35:00 6.3 C 84 % 3.8 C
3345 03-03-2020 14:40:00 6.1 C 85 % 3.77 C
3346 03-03-2020 14:45:00 5.9 C 87 % 3.91 C
3347 03-03-2020 14:50:00 5.8 C 87 % 3.81 C
3348 03-03-2020 14:55:00 5.8 C 87 % 3.81 C
3349 03-03-2020 15:00:00 5.7 C 88 % 3.87 C
3350 03-03-2020 15:05:00 5.6 C 88 % 3.77 C
Sensor: Nr:Datum:Temp:Feuchte:Taupunkt:
Aussen-T/F 3351 03-03-2020 15:10:00 5.4 C 87 % 3.41 C
3352 03-03-2020 15:15:00 5.4 C 88 % 3.58 C
3353 03-03-2020 15:20:00 5.6 C 88 % 3.77 C
3354 03-03-2020 15:25:00 5.8 C 87 % 3.81 C
3355 03-03-2020 15:30:00 6.1 C 87 % 4.1 C
3356 03-03-2020 15:35:00 6.4 C 87 % 4.4 C
3357 03-03-2020 15:40:00 6.6 C 85 % 4.26 C
3358 03-03-2020 15:45:00 6.8 C 83 % 4.12 C
3359 03-03-2020 15:50:00 7 C 82 % 4.14 C
3360 03-03-2020 15:55:00 7 C 81 % 3.97 C
3361 03-03-2020 16:00:00 6.9 C 82 % 4.05 C
3362 03-03-2020 16:05:00 7.2 C 81 % 4.16 C
3363 03-03-2020 16:10:00 7.4 C 80 % 4.18 C
3364 03-03-2020 16:15:00 7.7 C 80 % 4.47 C
3365 03-03-2020 16:20:00 7.7 C 78 % 4.11 C
3366 03-03-2020 16:25:00 7.6 C 77 % 3.83 C
3367 03-03-2020 16:30:00 7.5 C 78 % 3.92 C
3368 03-03-2020 16:35:00 7.4 C 78 % 3.82 C
3369 03-03-2020 16:40:00 7.4 C 78 % 3.82 C
3370 03-03-2020 16:45:00 7.3 C 78 % 3.73 C
3371 03-03-2020 16:50:00 7.3 C 79 % 3.91 C
3372 03-03-2020 16:55:00 7.3 C 79 % 3.91 C
3373 03-03-2020 17:00:00 7.3 C 78 % 3.73 C
3374 03-03-2020 17:05:00 7.2 C 79 % 3.81 C
3375 03-03-2020 17:10:00 7.1 C 80 % 3.89 C
Sensor: Nr:Datum:Temp:Feuchte:Taupunkt:
Aussen-T/F 3376 03-03-2020 17:15:00 7.1 C 80 % 3.89 C
3377 03-03-2020 17:20:00 7.1 C 82 % 4.24 C
3378 03-03-2020 17:25:00 7 C 80 % 3.79 C
3379 03-03-2020 17:30:00 6.9 C 80 % 3.7 C
3380 03-03-2020 17:35:00 6.9 C 79 % 3.52 C
3381 03-03-2020 17:40:00 6.9 C 81 % 3.87 C
3382 03-03-2020 17:45:00 6.9 C 81 % 3.87 C
3383 03-03-2020 17:50:00 6.9 C 81 % 3.87 C
3384 03-03-2020 17:55:00 6.8 C 81 % 3.77 C
3385 03-03-2020 18:00:00 6.6 C 81 % 3.58 C
3386 03-03-2020 18:05:00 6.2 C 82 % 3.36 C
3387 03-03-2020 18:10:00 5.9 C 83 % 3.24 C
3388 03-03-2020 18:15:00 5.7 C 84 % 3.21 C
3389 03-03-2020 18:20:00 5.3 C 85 % 2.99 C
3390 03-03-2020 18:25:00 5.1 C 85 % 2.79 C
3391 03-03-2020 18:30:00 4.9 C 86 % 2.76 C
3392 03-03-2020 18:35:00 4.8 C 86 % 2.66 C
3393 03-03-2020 18:40:00 4.6 C 87 % 2.63 C
3394 03-03-2020 18:45:00 4.4 C 88 % 2.59 C
3395 03-03-2020 18:50:00 4.3 C 88 % 2.49 C
3396 03-03-2020 18:55:00 4.2 C 89 % 2.55 C
3397 03-03-2020 19:00:00 4.1 C 89 % 2.45 C
3398 03-03-2020 19:05:00 4 C 90 % 2.51 C
3399 03-03-2020 19:10:00 3.9 C 90 % 2.41 C
3400 03-03-2020 19:15:00 3.8 C 90 % 2.31 C
Sensor: Nr:Datum:Temp:Feuchte:Taupunkt:
Aussen-T/F 3401 03-03-2020 19:20:00 3.8 C 90 % 2.31 C
3402 03-03-2020 19:25:00 3.8 C 90 % 2.31 C
3403 03-03-2020 19:30:00 3.8 C 90 % 2.31 C
3404 03-03-2020 19:35:00 3.7 C 90 % 2.22 C
3405 03-03-2020 19:40:00 3.6 C 90 % 2.12 C
3406 03-03-2020 19:45:00 3.5 C 90 % 2.02 C
3407 03-03-2020 19:50:00 3.4 C 91 % 2.07 C
3408 03-03-2020 19:55:00 3.4 C 91 % 2.07 C
3409 03-03-2020 20:00:00 3.4 C 91 % 2.07 C
3410 03-03-2020 20:05:00 3.3 C 91 % 1.98 C
3411 03-03-2020 20:10:00 3.2 C 91 % 1.88 C
3412 03-03-2020 20:15:00 3 C 91 % 1.68 C
3413 03-03-2020 20:20:00 2.9 C 91 % 1.58 C
3414 03-03-2020 20:25:00 2.8 C 91 % 1.48 C
3415 03-03-2020 20:30:00 2.8 C 92 % 1.63 C
3416 03-03-2020 20:35:00 2.7 C 92 % 1.53 C
3417 03-03-2020 20:40:00 2.7 C 92 % 1.53 C
3418 03-03-2020 20:45:00 2.6 C 92 % 1.43 C
3419 03-03-2020 20:50:00 2.6 C 93 % 1.59 C
3420 03-03-2020 20:55:00 2.6 C 93 % 1.59 C
3421 03-03-2020 21:00:00 2.5 C 93 % 1.49 C
3422 03-03-2020 21:05:00 2.4 C 93 % 1.39 C
3423 03-03-2020 21:10:00 2.3 C 93 % 1.29 C
3424 03-03-2020 21:15:00 2.3 C 93 % 1.29 C
3425 03-03-2020 21:20:00 2.3 C 93 % 1.29 C
Sensor: Nr:Datum:Temp:Feuchte:Taupunkt:
Aussen-T/F 3426 03-03-2020 21:25:00 2.3 C 93 % 1.29 C
3427 03-03-2020 21:30:00 2.3 C 94 % 1.44 C
3428 03-03-2020 21:35:00 2.3 C 94 % 1.44 C
3429 03-03-2020 21:40:00 2.3 C 94 % 1.44 C
3430 03-03-2020 21:45:00 2.3 C 94 % 1.44 C
3431 03-03-2020 21:50:00 2.4 C 94 % 1.54 C
3432 03-03-2020 21:55:00 2.4 C 94 % 1.54 C
3433 03-03-2020 22:00:00 2.4 C 94 % 1.54 C
3434 03-03-2020 22:05:00 2.4 C 94 % 1.54 C
3435 03-03-2020 22:10:00 2.4 C 94 % 1.54 C
3436 03-03-2020 22:15:00 2.4 C 94 % 1.54 C
3437 03-03-2020 22:20:00 2.4 C 94 % 1.54 C
3438 03-03-2020 22:25:00 2.4 C 94 % 1.54 C
3439 03-03-2020 22:30:00 2.4 C 94 % 1.54 C
3440 03-03-2020 22:35:00 2.3 C 94 % 1.44 C
3441 03-03-2020 22:40:00 2.3 C 94 % 1.44 C
3442 03-03-2020 22:45:00 2.3 C 94 % 1.44 C
3443 03-03-2020 22:50:00 2.2 C 94 % 1.34 C
3444 03-03-2020 22:55:00 2.2 C 94 % 1.34 C
3445 03-03-2020 23:00:00 2.2 C 94 % 1.34 C
3446 03-03-2020 23:05:00 2.2 C 95 % 1.48 C
3447 03-03-2020 23:10:00 2.3 C 95 % 1.58 C
3448 03-03-2020 23:15:00 2.4 C 95 % 1.68 C
3449 03-03-2020 23:20:00 2.6 C 95 % 1.88 C
3450 03-03-2020 23:25:00 2.8 C 95 % 2.08 C
Sensor: Nr:Datum:Temp:Feuchte:Taupunkt:
Aussen-T/F 3451 03-03-2020 23:30:00 2.8 C 95 % 2.08 C
3452 03-03-2020 23:35:00 2.9 C 95 % 2.18 C
3453 03-03-2020 23:40:00 2.9 C 95 % 2.18 C
3454 03-03-2020 23:45:00 3 C 95 % 2.28 C
3455 03-03-2020 23:50:00 3 C 95 % 2.28 C
3456 03-03-2020 23:55:00 3 C 94 % 2.13 C
3457 04-03-2020 00:00:00 3.1 C 94 % 2.23 C
3458 04-03-2020 00:05:00 3.1 C 94 % 2.23 C
3459 04-03-2020 00:10:00 3.2 C 94 % 2.33 C
3460 04-03-2020 00:15:00 3.2 C 94 % 2.33 C
3461 04-03-2020 00:20:00 3.2 C 94 % 2.33 C
3462 04-03-2020 00:25:00 3.2 C 94 % 2.33 C
3463 04-03-2020 00:30:00 3.2 C 94 % 2.33 C
3464 04-03-2020 00:35:00 3.2 C 94 % 2.33 C
3465 04-03-2020 00:40:00 3.2 C 94 % 2.33 C
3466 04-03-2020 00:45:00 3.2 C 93 % 2.18 C
3467 04-03-2020 00:50:00 3.2 C 93 % 2.18 C
3468 04-03-2020 00:55:00 3.1 C 93 % 2.08 C
3469 04-03-2020 01:00:00 3 C 93 % 1.98 C
3470 04-03-2020 01:05:00 2.9 C 93 % 1.88 C
3471 04-03-2020 01:10:00 2.9 C 93 % 1.88 C
3472 04-03-2020 01:15:00 3 C 93 % 1.98 C
3473 04-03-2020 01:20:00 3 C 93 % 1.98 C
3474 04-03-2020 01:25:00 3 C 93 % 1.98 C
3475 04-03-2020 01:30:00 2.9 C 93 % 1.88 C
Sensor: Nr:Datum:Temp:Feuchte:Taupunkt:
Aussen-T/F 3476 04-03-2020 01:35:00 2.9 C 93 % 1.88 C
3477 04-03-2020 01:40:00 2.9 C 92 % 1.73 C
3478 04-03-2020 01:45:00 2.9 C 93 % 1.88 C
3479 04-03-2020 01:50:00 2.9 C 93 % 1.88 C
3480 04-03-2020 01:55:00 2.9 C 92 % 1.73 C
3481 04-03-2020 02:00:00 3 C 92 % 1.83 C
3482 04-03-2020 02:05:00 3 C 92 % 1.83 C
3483 04-03-2020 02:10:00 3.1 C 92 % 1.93 C
3484 04-03-2020 02:15:00 3.1 C 92 % 1.93 C
3485 04-03-2020 02:20:00 3.2 C 92 % 2.03 C
3486 04-03-2020 02:25:00 3.2 C 92 % 2.03 C
3487 04-03-2020 02:30:00 3.2 C 92 % 2.03 C
3488 04-03-2020 02:35:00 3.3 C 92 % 2.13 C
3489 04-03-2020 02:40:00 3.4 C 92 % 2.23 C
3490 04-03-2020 02:45:00 3.5 C 92 % 2.33 C
3491 04-03-2020 02:50:00 3.7 C 91 % 2.37 C
3492 04-03-2020 02:55:00 3.8 C 91 % 2.47 C
3493 04-03-2020 03:00:00 3.8 C 91 % 2.47 C
3494 04-03-2020 03:05:00 3.8 C 91 % 2.47 C
3495 04-03-2020 03:10:00 3.9 C 90 % 2.41 C
3496 04-03-2020 03:15:00 3.9 C 90 % 2.41 C
3497 04-03-2020 03:20:00 3.8 C 90 % 2.31 C
3498 04-03-2020 03:25:00 3.9 C 90 % 2.41 C
3499 04-03-2020 03:30:00 3.9 C 90 % 2.41 C
3500 04-03-2020 03:35:00 3.9 C 90 % 2.41 C
Sensor: Nr:Datum:Temp:Feuchte:Taupunkt:
Aussen-T/F 3501 04-03-2020 03:40:00 3.8 C 90 % 2.31 C
3502 04-03-2020 03:45:00 3.8 C 90 % 2.31 C
3503 04-03-2020 03:50:00 3.8 C 90 % 2.31 C
3504 04-03-2020 03:55:00 3.6 C 90 % 2.12 C
3505 04-03-2020 04:00:00 3.6 C 90 % 2.12 C
3506 04-03-2020 04:05:00 3.6 C 91 % 2.27 C
3507 04-03-2020 04:10:00 3.7 C 91 % 2.37 C
3508 04-03-2020 04:15:00 3.8 C 91 % 2.47 C
3509 04-03-2020 04:20:00 3.9 C 91 % 2.57 C
3510 04-03-2020 04:25:00 3.9 C 90 % 2.41 C
3511 04-03-2020 04:30:00 4.1 C 90 % 2.61 C
3512 04-03-2020 04:35:00 4.1 C 90 % 2.61 C
3513 04-03-2020 04:40:00 4.2 C 90 % 2.71 C
3514 04-03-2020 04:45:00 4.2 C 90 % 2.71 C
3515 04-03-2020 04:50:00 4.2 C 90 % 2.71 C
3516 04-03-2020 04:55:00 4.2 C 90 % 2.71 C
3517 04-03-2020 05:00:00 4.2 C 90 % 2.71 C
3518 04-03-2020 05:05:00 4.2 C 90 % 2.71 C
3519 04-03-2020 05:10:00 4.2 C 90 % 2.71 C
3520 04-03-2020 05:15:00 4.2 C 91 % 2.87 C
3521 04-03-2020 05:20:00 4.2 C 91 % 2.87 C
3522 04-03-2020 05:25:00 4.1 C 92 % 2.92 C
3523 04-03-2020 05:30:00 4.1 C 92 % 2.92 C
3524 04-03-2020 05:35:00 4.1 C 92 % 2.92 C
3525 04-03-2020 05:40:00 4 C 92 % 2.82 C
Sensor: Nr:Datum:Temp:Feuchte:Taupunkt:
Aussen-T/F 3526 04-03-2020 05:45:00 4 C 93 % 2.97 C
3527 04-03-2020 05:50:00 4 C 93 % 2.97 C
3528 04-03-2020 05:55:00 4 C 93 % 2.97 C
3529 04-03-2020 06:00:00 4 C 93 % 2.97 C
3530 04-03-2020 06:05:00 4 C 93 % 2.97 C
3531 04-03-2020 06:10:00 4.1 C 93 % 3.07 C
3532 04-03-2020 06:15:00 4.1 C 93 % 3.07 C
3533 04-03-2020 06:20:00 4.1 C 93 % 3.07 C
3534 04-03-2020 06:25:00 4.1 C 93 % 3.07 C
3535 04-03-2020 06:30:00 4.1 C 93 % 3.07 C
3536 04-03-2020 06:35:00 4.1 C 93 % 3.07 C
3537 04-03-2020 06:40:00 4.2 C 93 % 3.17 C
3538 04-03-2020 06:45:00 4.2 C 92 % 3.02 C
3539 04-03-2020 06:50:00 4.3 C 92 % 3.12 C
3540 04-03-2020 06:55:00 4.3 C 92 % 3.12 C
3541 04-03-2020 07:00:00 4.3 C 92 % 3.12 C
3542 04-03-2020 07:05:00 4.3 C 92 % 3.12 C
3543 04-03-2020 07:10:00 4.3 C 92 % 3.12 C
3544 04-03-2020 07:15:00 4.3 C 92 % 3.12 C
3545 04-03-2020 07:20:00 4.3 C 92 % 3.12 C
3546 04-03-2020 07:25:00 4.4 C 92 % 3.22 C
3547 04-03-2020 07:30:00 4.4 C 92 % 3.22 C
3548 04-03-2020 07:35:00 4.5 C 91 % 3.16 C
3549 04-03-2020 07:40:00 4.5 C 91 % 3.16 C
3550 04-03-2020 07:45:00 4.6 C 91 % 3.26 C
Sensor: Nr:Datum:Temp:Feuchte:Taupunkt:
Aussen-T/F 3551 04-03-2020 07:50:00 4.6 C 91 % 3.26 C
3552 04-03-2020 07:55:00 4.6 C 91 % 3.26 C
3553 04-03-2020 08:00:00 4.5 C 91 % 3.16 C
3554 04-03-2020 08:05:00 4.4 C 91 % 3.06 C
3555 04-03-2020 08:10:00 4.3 C 91 % 2.96 C
3556 04-03-2020 08:15:00 4.3 C 91 % 2.96 C
3557 04-03-2020 08:20:00 4.3 C 91 % 2.96 C
3558 04-03-2020 08:25:00 4.3 C 91 % 2.96 C
3559 04-03-2020 08:30:00 4.4 C 91 % 3.06 C
3560 04-03-2020 08:35:00 4.4 C 91 % 3.06 C
3561 04-03-2020 08:40:00 4.4 C 91 % 3.06 C
3562 04-03-2020 08:45:00 4.4 C 91 % 3.06 C
3563 04-03-2020 08:50:00 4.5 C 91 % 3.16 C
3564 04-03-2020 08:55:00 4.5 C 91 % 3.16 C
3565 04-03-2020 09:00:00 4.5 C 91 % 3.16 C
3566 04-03-2020 09:05:00 4.6 C 91 % 3.26 C
3567 04-03-2020 09:10:00 4.7 C 91 % 3.36 C
3568 04-03-2020 09:15:00 4.7 C 90 % 3.2 C
3569 04-03-2020 09:20:00 4.8 C 90 % 3.3 C
3570 04-03-2020 09:25:00 4.9 C 90 % 3.4 C
3571 04-03-2020 09:30:00 5.1 C 89 % 3.44 C
3572 04-03-2020 09:35:00 5.1 C 89 % 3.44 C
3573 04-03-2020 09:40:00 5.2 C 88 % 3.38 C
3574 04-03-2020 09:45:00 5.3 C 88 % 3.48 C
3575 04-03-2020 09:50:00 5.5 C 88 % 3.67 C
Sensor: Nr:Datum:Temp:Feuchte:Taupunkt:
Aussen-T/F 3576 04-03-2020 09:55:00 5.7 C 87 % 3.71 C
3577 04-03-2020 10:00:00 5.8 C 86 % 3.64 C
3578 04-03-2020 10:05:00 5.9 C 86 % 3.74 C
3579 04-03-2020 10:10:00 6 C 86 % 3.84 C
3580 04-03-2020 10:15:00 6.1 C 85 % 3.77 C
3581 04-03-2020 10:20:00 6.2 C 85 % 3.87 C
3582 04-03-2020 10:25:00 6.2 C 85 % 3.87 C
3583 04-03-2020 10:30:00 6.3 C 84 % 3.8 C
3584 04-03-2020 10:35:00 6.5 C 84 % 4 C
3585 04-03-2020 10:40:00 6.6 C 83 % 3.92 C
3586 04-03-2020 10:45:00 6.7 C 83 % 4.02 C
3587 04-03-2020 10:50:00 6.7 C 83 % 4.02 C
3588 04-03-2020 10:55:00 6.7 C 83 % 4.02 C
3589 04-03-2020 11:00:00 6.8 C 83 % 4.12 C
3590 04-03-2020 11:05:00 6.9 C 82 % 4.05 C
3591 04-03-2020 11:10:00 7.1 C 82 % 4.24 C
3592 04-03-2020 11:15:00 7.2 C 82 % 4.34 C
3593 04-03-2020 11:20:00 7.4 C 81 % 4.36 C
3594 04-03-2020 11:25:00 7.5 C 80 % 4.28 C
3595 04-03-2020 11:30:00 7.6 C 80 % 4.38 C
3596 04-03-2020 11:35:00 7.6 C 80 % 4.38 C
3597 04-03-2020 11:40:00 7.7 C 79 % 4.3 C
3598 04-03-2020 11:45:00 7.8 C 79 % 4.39 C
3599 04-03-2020 11:50:00 8 C 78 % 4.41 C
3600 04-03-2020 11:55:00 8.1 C 78 % 4.5 C
Sensor: Nr:Datum:Temp:Feuchte:Taupunkt:
Aussen-T/F 3601 04-03-2020 12:00:00 8.2 C 77 % 4.42 C
3602 04-03-2020 12:05:00 8.3 C 77 % 4.51 C
3603 04-03-2020 12:10:00 8.4 C 77 % 4.61 C
3604 04-03-2020 12:15:00 8.6 C 77 % 4.8 C
3605 04-03-2020 12:20:00 8.8 C 77 % 5 C
3606 04-03-2020 12:25:00 9 C 75 % 4.81 C
3607 04-03-2020 12:30:00 9.1 C 74 % 4.72 C
3608 04-03-2020 12:35:00 9.2 C 75 % 5.01 C
3609 04-03-2020 12:40:00 9.2 C 74 % 4.81 C
3610 04-03-2020 12:45:00 9.3 C 73 % 4.72 C
3611 04-03-2020 12:50:00 9.3 C 73 % 4.72 C
3612 04-03-2020 12:55:00 9.3 C 73 % 4.72 C
3613 04-03-2020 13:00:00 9.2 C 73 % 4.62 C
3614 04-03-2020 13:05:00 9.1 C 73 % 4.52 C
3615 04-03-2020 13:10:00 9.1 C 73 % 4.52 C
3616 04-03-2020 13:15:00 9.1 C 73 % 4.52 C
3617 04-03-2020 13:20:00 9.1 C 73 % 4.52 C
3618 04-03-2020 13:25:00 9.2 C 73 % 4.62 C
3619 04-03-2020 13:30:00 9.3 C 73 % 4.72 C
3620 04-03-2020 13:35:00 9.2 C 73 % 4.62 C
3621 04-03-2020 13:40:00 9.1 C 72 % 4.33 C
3622 04-03-2020 13:45:00 8.8 C 72 % 4.04 C
3623 04-03-2020 13:50:00 8.9 C 73 % 4.33 C
3624 04-03-2020 13:55:00 9.2 C 72 % 4.42 C
3625 04-03-2020 14:00:00 9.4 C 71 % 4.42 C
Sensor: Nr:Datum:Temp:Feuchte:Taupunkt:
Aussen-T/F 3626 04-03-2020 14:05:00 9.6 C 70 % 4.41 C
3627 04-03-2020 14:10:00 9.7 C 71 % 4.7 C
3628 04-03-2020 14:15:00 9.8 C 70 % 4.6 C
3629 04-03-2020 14:20:00 9.8 C 69 % 4.39 C
3630 04-03-2020 14:25:00 9.8 C 70 % 4.6 C
3631 04-03-2020 14:30:00 9.8 C 69 % 4.39 C
3632 04-03-2020 14:35:00 9.7 C 68 % 4.09 C
3633 04-03-2020 14:40:00 9.6 C 71 % 4.61 C
3634 04-03-2020 14:45:00 9.5 C 71 % 4.51 C
3635 04-03-2020 14:50:00 9.3 C 72 % 4.52 C
3636 04-03-2020 14:55:00 9.1 C 73 % 4.52 C
3637 04-03-2020 15:00:00 9 C 73 % 4.43 C
3638 04-03-2020 15:05:00 9 C 74 % 4.62 C
3639 04-03-2020 15:10:00 9.1 C 74 % 4.72 C
3640 04-03-2020 15:15:00 9.2 C 73 % 4.62 C
3641 04-03-2020 15:20:00 9.1 C 72 % 4.33 C
3642 04-03-2020 15:25:00 9.2 C 73 % 4.62 C
3643 04-03-2020 15:30:00 9.2 C 71 % 4.22 C
3644 04-03-2020 15:35:00 9.1 C 73 % 4.52 C
3645 04-03-2020 15:40:00 9.1 C 74 % 4.72 C
3646 04-03-2020 15:45:00 9.2 C 74 % 4.81 C
3647 04-03-2020 15:50:00 9.2 C 74 % 4.81 C
3648 04-03-2020 15:55:00 9.2 C 74 % 4.81 C
3649 04-03-2020 16:00:00 9.2 C 74 % 4.81 C
3650 04-03-2020 16:05:00 9.2 C 73 % 4.62 C
Sensor: Nr:Datum:Temp:Feuchte:Taupunkt:
Aussen-T/F 3651 04-03-2020 16:10:00 9.2 C 73 % 4.62 C
3652 04-03-2020 16:15:00 9.1 C 73 % 4.52 C
3653 04-03-2020 16:20:00 9.2 C 73 % 4.62 C
3654 04-03-2020 16:25:00 9.1 C 72 % 4.33 C
3655 04-03-2020 16:30:00 8.9 C 72 % 4.14 C
3656 04-03-2020 16:35:00 8.8 C 73 % 4.24 C
3657 04-03-2020 16:40:00 8.8 C 73 % 4.24 C
3658 04-03-2020 16:45:00 8.9 C 72 % 4.14 C
3659 04-03-2020 16:50:00 9 C 72 % 4.23 C
3660 04-03-2020 16:55:00 9 C 71 % 4.03 C
3661 04-03-2020 17:00:00 9.1 C 71 % 4.13 C
3662 04-03-2020 17:05:00 9.1 C 71 % 4.13 C
3663 04-03-2020 17:10:00 9.1 C 71 % 4.13 C
3664 04-03-2020 17:15:00 9.2 C 72 % 4.42 C
3665 04-03-2020 17:20:00 9.2 C 71 % 4.22 C
3666 04-03-2020 17:25:00 8.9 C 70 % 3.74 C
3667 04-03-2020 17:30:00 8.7 C 72 % 3.94 C
3668 04-03-2020 17:35:00 8.6 C 73 % 4.04 C
3669 04-03-2020 17:40:00 8.4 C 74 % 4.04 C
3670 04-03-2020 17:45:00 8.3 C 75 % 4.14 C
3671 04-03-2020 17:50:00 8.1 C 76 % 4.13 C
3672 04-03-2020 17:55:00 7.7 C 77 % 3.93 C
3673 04-03-2020 18:00:00 7.3 C 78 % 3.73 C
3674 04-03-2020 18:05:00 6.9 C 80 % 3.7 C
3675 04-03-2020 18:10:00 6.6 C 81 % 3.58 C
Sensor: Nr:Datum:Temp:Feuchte:Taupunkt:
Aussen-T/F 3676 04-03-2020 18:15:00 6.2 C 82 % 3.36 C
3677 04-03-2020 18:20:00 5.9 C 83 % 3.24 C
3678 04-03-2020 18:25:00 5.7 C 84 % 3.21 C
3679 04-03-2020 18:30:00 5.5 C 84 % 3.02 C
3680 04-03-2020 18:35:00 5.3 C 85 % 2.99 C
3681 04-03-2020 18:40:00 5.1 C 86 % 2.96 C
3682 04-03-2020 18:45:00 4.9 C 86 % 2.76 C
3683 04-03-2020 18:50:00 4.8 C 87 % 2.82 C
3684 04-03-2020 18:55:00 4.6 C 87 % 2.63 C
3685 04-03-2020 19:00:00 4.5 C 87 % 2.53 C
3686 04-03-2020 19:05:00 4.3 C 88 % 2.49 C
3687 04-03-2020 19:10:00 4.3 C 88 % 2.49 C
3688 04-03-2020 19:15:00 4.2 C 89 % 2.55 C
3689 04-03-2020 19:20:00 4.2 C 89 % 2.55 C
3690 04-03-2020 19:25:00 4.2 C 90 % 2.71 C
3691 04-03-2020 19:30:00 4.2 C 90 % 2.71 C
3692 04-03-2020 19:35:00 4.2 C 90 % 2.71 C
3693 04-03-2020 19:40:00 4.2 C 90 % 2.71 C
3694 04-03-2020 19:45:00 4.2 C 90 % 2.71 C
3695 04-03-2020 19:50:00 4.2 C 90 % 2.71 C
3696 04-03-2020 19:55:00 4.2 C 90 % 2.71 C
3697 04-03-2020 20:00:00 4.2 C 90 % 2.71 C
3698 04-03-2020 20:05:00 4.1 C 91 % 2.77 C
3699 04-03-2020 20:10:00 4.1 C 91 % 2.77 C
3700 04-03-2020 20:15:00 4.1 C 91 % 2.77 C
Sensor: Nr:Datum:Temp:Feuchte:Taupunkt:
Aussen-T/F 3701 04-03-2020 20:20:00 4.1 C 91 % 2.77 C
3702 04-03-2020 20:25:00 4.1 C 91 % 2.77 C
3703 04-03-2020 20:30:00 4 C 91 % 2.67 C
3704 04-03-2020 20:35:00 3.9 C 91 % 2.57 C
3705 04-03-2020 20:40:00 3.8 C 91 % 2.47 C
3706 04-03-2020 20:45:00 3.7 C 91 % 2.37 C
3707 04-03-2020 20:50:00 3.7 C 91 % 2.37 C
3708 04-03-2020 20:55:00 3.6 C 91 % 2.27 C
3709 04-03-2020 21:00:00 3.4 C 91 % 2.07 C
3710 04-03-2020 21:05:00 3.4 C 91 % 2.07 C
3711 04-03-2020 21:10:00 3.3 C 92 % 2.13 C
3712 04-03-2020 21:15:00 3.3 C 92 % 2.13 C
3713 04-03-2020 21:20:00 3.2 C 92 % 2.03 C
3714 04-03-2020 21:25:00 3.2 C 92 % 2.03 C
3715 04-03-2020 21:30:00 3.3 C 93 % 2.28 C
3716 04-03-2020 21:35:00 3.3 C 93 % 2.28 C
3717 04-03-2020 21:40:00 3.4 C 93 % 2.38 C
3718 04-03-2020 21:45:00 3.4 C 93 % 2.38 C
3719 04-03-2020 21:50:00 3.4 C 93 % 2.38 C
3720 04-03-2020 21:55:00 3.6 C 93 % 2.58 C
3721 04-03-2020 22:00:00 3.6 C 93 % 2.58 C
3722 04-03-2020 22:05:00 3.5 C 93 % 2.48 C
3723 04-03-2020 22:10:00 3.4 C 92 % 2.23 C
3724 04-03-2020 22:15:00 3.3 C 92 % 2.13 C
3725 04-03-2020 22:20:00 3.3 C 93 % 2.28 C
Sensor: Nr:Datum:Temp:Feuchte:Taupunkt:
Aussen-T/F 3726 04-03-2020 22:25:00 3.2 C 93 % 2.18 C
3727 04-03-2020 22:30:00 3.2 C 93 % 2.18 C
3728 04-03-2020 22:35:00 3.2 C 93 % 2.18 C
3729 04-03-2020 22:40:00 3.2 C 93 % 2.18 C
3730 04-03-2020 22:45:00 3.2 C 94 % 2.33 C
3731 04-03-2020 22:50:00 3.3 C 94 % 2.43 C
3732 04-03-2020 22:55:00 3.4 C 94 % 2.53 C
3733 04-03-2020 23:00:00 3.5 C 94 % 2.63 C
3734 04-03-2020 23:05:00 3.6 C 94 % 2.73 C
3735 04-03-2020 23:10:00 3.6 C 94 % 2.73 C
3736 04-03-2020 23:15:00 3.7 C 94 % 2.83 C
3737 04-03-2020 23:20:00 3.7 C 94 % 2.83 C
3738 04-03-2020 23:25:00 3.8 C 94 % 2.93 C
3739 04-03-2020 23:30:00 3.8 C 94 % 2.93 C
3740 04-03-2020 23:35:00 3.8 C 94 % 2.93 C
3741 04-03-2020 23:40:00 3.9 C 94 % 3.02 C
3742 04-03-2020 23:45:00 4.1 C 94 % 3.22 C
3743 04-03-2020 23:50:00 4.1 C 94 % 3.22 C
3744 04-03-2020 23:55:00 4.2 C 94 % 3.32 C
3745 05-03-2020 00:00:00 4.2 C 94 % 3.32 C
3746 05-03-2020 00:05:00 4.2 C 94 % 3.32 C
3747 05-03-2020 00:10:00 4.3 C 94 % 3.42 C
3748 05-03-2020 00:15:00 4.3 C 94 % 3.42 C
3749 05-03-2020 00:20:00 4.3 C 94 % 3.42 C
3750 05-03-2020 00:25:00 4.3 C 94 % 3.42 C
Sensor: Nr:Datum:Temp:Feuchte:Taupunkt:
Aussen-T/F 3751 05-03-2020 00:30:00 4.4 C 95 % 3.67 C
3752 05-03-2020 00:35:00 4.5 C 95 % 3.77 C
3753 05-03-2020 00:40:00 4.6 C 95 % 3.87 C
3754 05-03-2020 00:45:00 4.6 C 95 % 3.87 C
3755 05-03-2020 00:50:00 4.6 C 95 % 3.87 C
3756 05-03-2020 00:55:00 4.5 C 95 % 3.77 C
3757 05-03-2020 01:00:00 4.4 C 94 % 3.52 C
3758 05-03-2020 01:05:00 4.3 C 94 % 3.42 C
3759 05-03-2020 01:10:00 4.3 C 94 % 3.42 C
3760 05-03-2020 01:15:00 4.3 C 95 % 3.57 C
3761 05-03-2020 01:20:00 4.3 C 95 % 3.57 C
3762 05-03-2020 01:25:00 4.3 C 95 % 3.57 C
3763 05-03-2020 01:30:00 4.3 C 95 % 3.57 C
3764 05-03-2020 01:35:00 4.2 C 95 % 3.47 C
3765 05-03-2020 01:40:00 4.2 C 95 % 3.47 C
3766 05-03-2020 01:45:00 4.3 C 95 % 3.57 C
3767 05-03-2020 01:50:00 4.3 C 95 % 3.57 C
3768 05-03-2020 01:55:00 4.3 C 95 % 3.57 C
3769 05-03-2020 02:00:00 4.3 C 95 % 3.57 C
3770 05-03-2020 02:05:00 4.4 C 95 % 3.67 C
3771 05-03-2020 02:10:00 4.4 C 95 % 3.67 C
3772 05-03-2020 02:15:00 4.4 C 94 % 3.52 C
3773 05-03-2020 02:20:00 4.5 C 94 % 3.62 C
3774 05-03-2020 02:25:00 4.5 C 94 % 3.62 C
3775 05-03-2020 02:30:00 4.5 C 94 % 3.62 C
Sensor: Nr:Datum:Temp:Feuchte:Taupunkt:
Aussen-T/F 3776 05-03-2020 02:35:00 4.6 C 94 % 3.72 C
3777 05-03-2020 02:40:00 4.6 C 94 % 3.72 C
3778 05-03-2020 02:45:00 4.6 C 94 % 3.72 C
3779 05-03-2020 02:50:00 4.7 C 93 % 3.67 C
3780 05-03-2020 02:55:00 4.7 C 93 % 3.67 C
3781 05-03-2020 03:00:00 4.8 C 92 % 3.61 C
3782 05-03-2020 03:05:00 4.8 C 92 % 3.61 C
3783 05-03-2020 03:10:00 4.8 C 92 % 3.61 C
3784 05-03-2020 03:15:00 4.8 C 92 % 3.61 C
3785 05-03-2020 03:20:00 4.8 C 92 % 3.61 C
3786 05-03-2020 03:25:00 4.9 C 92 % 3.71 C
3787 05-03-2020 03:30:00 4.9 C 92 % 3.71 C
3788 05-03-2020 03:35:00 4.9 C 91 % 3.56 C
3789 05-03-2020 03:40:00 4.9 C 91 % 3.56 C
3790 05-03-2020 03:45:00 4.9 C 91 % 3.56 C
3791 05-03-2020 03:50:00 4.9 C 91 % 3.56 C
3792 05-03-2020 03:55:00 4.9 C 91 % 3.56 C
3793 05-03-2020 04:00:00 4.9 C 91 % 3.56 C
3794 05-03-2020 04:05:00 4.9 C 91 % 3.56 C
3795 05-03-2020 04:10:00 4.9 C 92 % 3.71 C
3796 05-03-2020 04:15:00 4.9 C 92 % 3.71 C
3797 05-03-2020 04:20:00 4.9 C 92 % 3.71 C
3798 05-03-2020 04:25:00 4.9 C 91 % 3.56 C
3799 05-03-2020 04:30:00 4.9 C 91 % 3.56 C
3800 05-03-2020 04:35:00 5 C 91 % 3.66 C
Sensor: Nr:Datum:Temp:Feuchte:Taupunkt:
Aussen-T/F 3801 05-03-2020 04:40:00 5 C 91 % 3.66 C
3802 05-03-2020 04:45:00 5 C 91 % 3.66 C
3803 05-03-2020 04:50:00 5 C 91 % 3.66 C
3804 05-03-2020 04:55:00 5 C 91 % 3.66 C
3805 05-03-2020 05:00:00 5 C 91 % 3.66 C
3806 05-03-2020 05:05:00 5 C 91 % 3.66 C
3807 05-03-2020 05:10:00 5 C 91 % 3.66 C
3808 05-03-2020 05:15:00 4.9 C 91 % 3.56 C
3809 05-03-2020 05:20:00 4.9 C 91 % 3.56 C
3810 05-03-2020 05:25:00 4.9 C 91 % 3.56 C
3811 05-03-2020 05:30:00 4.9 C 91 % 3.56 C
3812 05-03-2020 05:35:00 4.9 C 92 % 3.71 C
3813 05-03-2020 05:40:00 4.9 C 92 % 3.71 C
3814 05-03-2020 05:45:00 4.9 C 92 % 3.71 C
3815 05-03-2020 05:50:00 4.9 C 92 % 3.71 C
3816 05-03-2020 05:55:00 4.9 C 92 % 3.71 C
3817 05-03-2020 06:00:00 4.9 C 92 % 3.71 C
3818 05-03-2020 06:05:00 4.9 C 92 % 3.71 C
3819 05-03-2020 06:10:00 4.9 C 91 % 3.56 C
3820 05-03-2020 06:15:00 4.9 C 91 % 3.56 C
3821 05-03-2020 06:20:00 5 C 91 % 3.66 C
3822 05-03-2020 06:25:00 5 C 91 % 3.66 C
3823 05-03-2020 06:30:00 5.1 C 91 % 3.76 C
3824 05-03-2020 06:35:00 5.1 C 91 % 3.76 C
3825 05-03-2020 06:40:00 5.1 C 91 % 3.76 C
Sensor: Nr:Datum:Temp:Feuchte:Taupunkt:
Aussen-T/F 3826 05-03-2020 06:45:00 5.1 C 91 % 3.76 C
3827 05-03-2020 06:50:00 5.1 C 91 % 3.76 C
3828 05-03-2020 06:55:00 5.1 C 91 % 3.76 C
3829 05-03-2020 07:00:00 5.2 C 91 % 3.85 C
3830 05-03-2020 07:05:00 5.2 C 91 % 3.85 C
3831 05-03-2020 07:10:00 5.2 C 91 % 3.85 C
3832 05-03-2020 07:15:00 5.2 C 90 % 3.7 C
3833 05-03-2020 07:20:00 5.2 C 91 % 3.85 C
3834 05-03-2020 07:25:00 5.3 C 91 % 3.95 C
3835 05-03-2020 07:30:00 5.3 C 91 % 3.95 C
3836 05-03-2020 07:35:00 5.3 C 91 % 3.95 C
3837 05-03-2020 07:40:00 5.3 C 91 % 3.95 C
3838 05-03-2020 07:45:00 5.3 C 90 % 3.8 C
3839 05-03-2020 07:50:00 5.4 C 91 % 4.05 C
3840 05-03-2020 07:55:00 5.4 C 91 % 4.05 C
3841 05-03-2020 08:00:00 5.4 C 90 % 3.89 C
3842 05-03-2020 08:05:00 5.5 C 90 % 3.99 C
3843 05-03-2020 08:10:00 5.6 C 91 % 4.25 C
3844 05-03-2020 08:15:00 5.6 C 91 % 4.25 C
3845 05-03-2020 08:20:00 5.6 C 91 % 4.25 C
3846 05-03-2020 08:25:00 5.6 C 91 % 4.25 C
3847 05-03-2020 08:30:00 5.6 C 91 % 4.25 C
3848 05-03-2020 08:35:00 5.7 C 91 % 4.35 C
3849 05-03-2020 08:40:00 5.7 C 91 % 4.35 C
3850 05-03-2020 08:45:00 5.8 C 91 % 4.45 C
Sensor: Nr:Datum:Temp:Feuchte:Taupunkt:
Aussen-T/F 3851 05-03-2020 08:50:00 5.8 C 90 % 4.29 C
3852 05-03-2020 08:55:00 5.8 C 90 % 4.29 C
3853 05-03-2020 09:00:00 5.9 C 91 % 4.55 C
3854 05-03-2020 09:05:00 5.9 C 90 % 4.39 C
3855 05-03-2020 09:10:00 6 C 90 % 4.49 C
3856 05-03-2020 09:15:00 6 C 90 % 4.49 C
3857 05-03-2020 09:20:00 6.1 C 90 % 4.59 C
3858 05-03-2020 09:25:00 6.2 C 90 % 4.69 C
3859 05-03-2020 09:30:00 6.2 C 89 % 4.53 C
3860 05-03-2020 09:35:00 6.3 C 90 % 4.78 C
3861 05-03-2020 09:40:00 6.3 C 89 % 4.62 C
3862 05-03-2020 09:45:00 6.3 C 89 % 4.62 C
3863 05-03-2020 09:50:00 6.4 C 89 % 4.72 C
3864 05-03-2020 09:55:00 6.5 C 89 % 4.82 C
3865 05-03-2020 10:00:00 6.6 C 89 % 4.92 C
3866 05-03-2020 10:05:00 6.6 C 88 % 4.76 C
3867 05-03-2020 10:10:00 6.6 C 88 % 4.76 C
3868 05-03-2020 10:15:00 6.6 C 88 % 4.76 C
3869 05-03-2020 10:20:00 6.6 C 88 % 4.76 C
3870 05-03-2020 10:25:00 6.6 C 89 % 4.92 C
3871 05-03-2020 10:30:00 6.6 C 88 % 4.76 C
3872 05-03-2020 10:35:00 6.5 C 89 % 4.82 C
3873 05-03-2020 10:40:00 6.5 C 89 % 4.82 C
3874 05-03-2020 10:45:00 6.4 C 89 % 4.72 C
3875 05-03-2020 10:50:00 6.5 C 89 % 4.82 C
Sensor: Nr:Datum:Temp:Feuchte:Taupunkt:
Aussen-T/F 3876 05-03-2020 10:55:00 6.5 C 89 % 4.82 C
3877 05-03-2020 11:00:00 6.6 C 90 % 5.08 C
3878 05-03-2020 11:05:00 6.6 C 90 % 5.08 C
3879 05-03-2020 11:10:00 6.7 C 90 % 5.18 C
3880 05-03-2020 11:15:00 6.7 C 89 % 5.02 C
3881 05-03-2020 11:20:00 6.8 C 89 % 5.12 C
3882 05-03-2020 11:25:00 6.8 C 89 % 5.12 C
3883 05-03-2020 11:30:00 6.9 C 89 % 5.22 C
3884 05-03-2020 11:35:00 7 C 89 % 5.31 C
3885 05-03-2020 11:40:00 7.1 C 89 % 5.41 C
3886 05-03-2020 11:45:00 7.1 C 89 % 5.41 C
3887 05-03-2020 11:50:00 7.2 C 89 % 5.51 C
3888 05-03-2020 11:55:00 7.2 C 89 % 5.51 C
3889 05-03-2020 12:00:00 7.2 C 88 % 5.35 C
3890 05-03-2020 12:05:00 7.2 C 88 % 5.35 C
3891 05-03-2020 12:10:00 7.3 C 88 % 5.45 C
3892 05-03-2020 12:15:00 7.3 C 88 % 5.45 C
3893 05-03-2020 12:20:00 7.3 C 88 % 5.45 C
3894 05-03-2020 12:25:00 7.3 C 88 % 5.45 C
3895 05-03-2020 12:30:00 7.3 C 88 % 5.45 C
3896 05-03-2020 12:35:00 7.4 C 89 % 5.71 C
3897 05-03-2020 12:40:00 7.4 C 89 % 5.71 C
3898 05-03-2020 12:45:00 7.4 C 89 % 5.71 C
3899 05-03-2020 12:50:00 7.4 C 90 % 5.87 C
3900 05-03-2020 12:55:00 7.4 C 90 % 5.87 C
Sensor: Nr:Datum:Temp:Feuchte: